﻿<?xml version="1.0" encoding="utf-8"?><gpx creator="Garmin Desktop App" version="1.1" xsi:schemaLocation="http://www.topografix.com/GPX/1/1 http://www.topografix.com/GPX/1/1/gpx.xsd http://www.garmin.com/xmlschemas/WaypointExtension/v1 http://www8.garmin.com/xmlschemas/WaypointExtensionv1.xsd http://www.garmin.com/xmlschemas/TrackPointExtension/v1 http://www.garmin.com/xmlschemas/TrackPointExtensionv1.xsd http://www.garmin.com/xmlschemas/GpxExtensions/v3 http://www8.garmin.com/xmlschemas/GpxExtensionsv3.xsd http://www.garmin.com/xmlschemas/ActivityExtension/v1 http://www8.garmin.com/xmlschemas/ActivityExtensionv1.xsd http://www.garmin.com/xmlschemas/AdventuresExtensions/v1 http://www8.garmin.com/xmlschemas/AdventuresExtensionv1.xsd http://www.garmin.com/xmlschemas/PressureExtension/v1 http://www.garmin.com/xmlschemas/PressureExtensionv1.xsd http://www.garmin.com/xmlschemas/TripExtensions/v1 http://www.garmin.com/xmlschemas/TripExtensionsv1.xsd http://www.garmin.com/xmlschemas/TripMetaDataExtensions/v1 http://www.garmin.com/xmlschemas/TripMetaDataExtensionsv1.xsd http://www.garmin.com/xmlschemas/ViaPointTransportationModeExtensions/v1 http://www.garmin.com/xmlschemas/ViaPointTransportationModeExtensionsv1.xsd http://www.garmin.com/xmlschemas/CreationTimeExtension/v1 http://www.garmin.com/xmlschemas/CreationTimeExtensionsv1.xsd http://www.garmin.com/xmlschemas/AccelerationExtension/v1 http://www.garmin.com/xmlschemas/AccelerationExtensionv1.xsd http://www.garmin.com/xmlschemas/PowerExtension/v1 http://www.garmin.com/xmlschemas/PowerExtensionv1.xsd http://www.garmin.com/xmlschemas/VideoExtension/v1 http://www.garmin.com/xmlschemas/VideoExtensionv1.xsd" xmlns="http://www.topografix.com/GPX/1/1" xmlns:xsi="http://www.w3.org/2001/XMLSchema-instance" xmlns:wptx1="http://www.garmin.com/xmlschemas/WaypointExtension/v1" xmlns:gpxtrx="http://www.garmin.com/xmlschemas/GpxExtensions/v3" xmlns:gpxtpx="http://www.garmin.com/xmlschemas/TrackPointExtension/v1" xmlns:gpxx="http://www.garmin.com/xmlschemas/GpxExtensions/v3" xmlns:trp="http://www.garmin.com/xmlschemas/TripExtensions/v1" xmlns:adv="http://www.garmin.com/xmlschemas/AdventuresExtensions/v1" xmlns:prs="http://www.garmin.com/xmlschemas/PressureExtension/v1" xmlns:tmd="http://www.garmin.com/xmlschemas/TripMetaDataExtensions/v1" xmlns:vptm="http://www.garmin.com/xmlschemas/ViaPointTransportationModeExtensions/v1" xmlns:ctx="http://www.garmin.com/xmlschemas/CreationTimeExtension/v1" xmlns:gpxacc="http://www.garmin.com/xmlschemas/AccelerationExtension/v1" xmlns:gpxpx="http://www.garmin.com/xmlschemas/PowerExtension/v1" xmlns:vidx1="http://www.garmin.com/xmlschemas/VideoExtension/v1">

  <metadata>
    <link href="http://www.garmin.com">
      <text>Garmin International</text>
    </link>
    <time>2021-02-20T11:46:37Z</time>
    <bounds maxlat="46.271309908479452" maxlon="9.227000763639808" minlat="46.256498834118247" minlon="9.174963980913162" />
  </metadata>

  <trk>
    <name>lago di cama2013-10-27</name>
    <extensions>
      <gpxx:TrackExtension>
        <gpxx:DisplayColor>Yellow</gpxx:DisplayColor>
      </gpxx:TrackExtension>
    </extensions>
    <trkseg>
      <trkpt lat="46.270795594900846" lon="9.176024124026299">
        <ele>522.13</ele>
        <time>2013-10-27T07:59:28Z</time>
      </trkpt>
      <trkpt lat="46.270931046456099" lon="9.176002750173211">
        <ele>525.01999999999998</ele>
        <time>2013-10-27T07:59:46Z</time>
      </trkpt>
      <trkpt lat="46.27097949385643" lon="9.175989255309105">
        <ele>526.46000000000004</ele>
        <time>2013-10-27T07:59:52Z</time>
      </trkpt>
      <trkpt lat="46.271070688962936" lon="9.176029823720455">
        <ele>527.89999999999998</ele>
        <time>2013-10-27T08:00:04Z</time>
      </trkpt>
      <trkpt lat="46.271074041724205" lon="9.176124036312103">
        <ele>530.29999999999995</ele>
        <time>2013-10-27T08:00:18Z</time>
      </trkpt>
      <trkpt lat="46.271075131371617" lon="9.176127053797245">
        <ele>530.29999999999995</ele>
        <time>2013-10-27T08:00:19Z</time>
      </trkpt>
      <trkpt lat="46.27100539393723" lon="9.176229061558843">
        <ele>531.75</ele>
        <time>2013-10-27T08:00:33Z</time>
      </trkpt>
      <trkpt lat="46.27096583135426" lon="9.176261834800243">
        <ele>533.19000000000005</ele>
        <time>2013-10-27T08:00:48Z</time>
      </trkpt>
      <trkpt lat="46.270965998992324" lon="9.176216153427959">
        <ele>532.71000000000004</ele>
        <time>2013-10-27T08:01:09Z</time>
      </trkpt>
      <trkpt lat="46.270979410037398" lon="9.176246076822281">
        <ele>531.26999999999998</ele>
        <time>2013-10-27T08:01:36Z</time>
      </trkpt>
      <trkpt lat="46.270988211035728" lon="9.17627340182662">
        <ele>531.26999999999998</ele>
        <time>2013-10-27T08:01:52Z</time>
      </trkpt>
      <trkpt lat="46.270971698686481" lon="9.176391838118434">
        <ele>530.78999999999996</ele>
        <time>2013-10-27T08:02:15Z</time>
      </trkpt>
      <trkpt lat="46.271005561575294" lon="9.176393682137132">
        <ele>531.26999999999998</ele>
        <time>2013-10-27T08:02:39Z</time>
      </trkpt>
      <trkpt lat="46.270987037569284" lon="9.176455289125443">
        <ele>534.14999999999998</ele>
        <time>2013-10-27T08:02:56Z</time>
      </trkpt>
      <trkpt lat="46.270950743928552" lon="9.176530642434955">
        <ele>532.71000000000004</ele>
        <time>2013-10-27T08:03:08Z</time>
      </trkpt>
      <trkpt lat="46.270947894081473" lon="9.176551345735788">
        <ele>534.14999999999998</ele>
        <time>2013-10-27T08:03:10Z</time>
      </trkpt>
      <trkpt lat="46.270965915173292" lon="9.176617646589875">
        <ele>536.07000000000005</ele>
        <time>2013-10-27T08:03:23Z</time>
      </trkpt>
      <trkpt lat="46.270974464714527" lon="9.176752846688032">
        <ele>538.96000000000004</ele>
        <time>2013-10-27T08:03:38Z</time>
      </trkpt>
      <trkpt lat="46.270975722000003" lon="9.176915874704719">
        <ele>541.84000000000003</ele>
        <time>2013-10-27T08:03:56Z</time>
      </trkpt>
      <trkpt lat="46.270966585725546" lon="9.17704101651907">
        <ele>544.72000000000003</ele>
        <time>2013-10-27T08:04:08Z</time>
      </trkpt>
      <trkpt lat="46.270939679816365" lon="9.177174875512719">
        <ele>547.13</ele>
        <time>2013-10-27T08:04:23Z</time>
      </trkpt>
      <trkpt lat="46.270933393388987" lon="9.177344609051943">
        <ele>548.57000000000005</ele>
        <time>2013-10-27T08:04:37Z</time>
      </trkpt>
      <trkpt lat="46.270911013707519" lon="9.17749154381454">
        <ele>551.92999999999995</ele>
        <time>2013-10-27T08:04:52Z</time>
      </trkpt>
      <trkpt lat="46.270914282649755" lon="9.177639568224549">
        <ele>554.34000000000003</ele>
        <time>2013-10-27T08:05:08Z</time>
      </trkpt>
      <trkpt lat="46.270906152203679" lon="9.177786335349083">
        <ele>556.25999999999999</ele>
        <time>2013-10-27T08:05:23Z</time>
      </trkpt>
      <trkpt lat="46.270853262394667" lon="9.1779166739434">
        <ele>556.74000000000001</ele>
        <time>2013-10-27T08:05:35Z</time>
      </trkpt>
      <trkpt lat="46.270796936005354" lon="9.178012646734715">
        <ele>557.22000000000003</ele>
        <time>2013-10-27T08:05:49Z</time>
      </trkpt>
      <trkpt lat="46.270778831094503" lon="9.178073918446899">
        <ele>560.11000000000001</ele>
        <time>2013-10-27T08:06:05Z</time>
      </trkpt>
      <trkpt lat="46.270783273503184" lon="9.178126389160752">
        <ele>562.02999999999997</ele>
        <time>2013-10-27T08:06:22Z</time>
      </trkpt>
      <trkpt lat="46.270702136680484" lon="9.178158324211836">
        <ele>564.42999999999995</ele>
        <time>2013-10-27T08:06:36Z</time>
      </trkpt>
      <trkpt lat="46.270625190809369" lon="9.178157737478614">
        <ele>566.35000000000002</ele>
        <time>2013-10-27T08:06:49Z</time>
      </trkpt>
      <trkpt lat="46.270596692338586" lon="9.178205011412501">
        <ele>568.75999999999999</ele>
        <time>2013-10-27T08:07:07Z</time>
      </trkpt>
      <trkpt lat="46.270655449479818" lon="9.178242646157742">
        <ele>571.63999999999999</ele>
        <time>2013-10-27T08:07:22Z</time>
      </trkpt>
      <trkpt lat="46.270643630996346" lon="9.178231582045555">
        <ele>574.52999999999997</ele>
        <time>2013-10-27T08:07:38Z</time>
      </trkpt>
      <trkpt lat="46.270550843328238" lon="9.178214315325022">
        <ele>577.40999999999997</ele>
        <time>2013-10-27T08:07:55Z</time>
      </trkpt>
      <trkpt lat="46.270514633506536" lon="9.178241807967424">
        <ele>580.28999999999996</ele>
        <time>2013-10-27T08:08:11Z</time>
      </trkpt>
      <trkpt lat="46.270564002916217" lon="9.178344234824181">
        <ele>583.17999999999995</ele>
        <time>2013-10-27T08:08:28Z</time>
      </trkpt>
      <trkpt lat="46.270563751459122" lon="9.178540958091617">
        <ele>585.58000000000004</ele>
        <time>2013-10-27T08:08:49Z</time>
      </trkpt>
      <trkpt lat="46.270641703158617" lon="9.178625950589776">
        <ele>588.46000000000004</ele>
        <time>2013-10-27T08:09:09Z</time>
      </trkpt>
      <trkpt lat="46.270543467253447" lon="9.178714631125331">
        <ele>590.87</ele>
        <time>2013-10-27T08:09:28Z</time>
      </trkpt>
      <trkpt lat="46.270465515553951" lon="9.178716475144029">
        <ele>593.26999999999998</ele>
        <time>2013-10-27T08:09:45Z</time>
      </trkpt>
      <trkpt lat="46.270409608259797" lon="9.178705830127001">
        <ele>595.66999999999996</ele>
        <time>2013-10-27T08:10:03Z</time>
      </trkpt>
      <trkpt lat="46.270364429801702" lon="9.178622430190444">
        <ele>598.08000000000004</ele>
        <time>2013-10-27T08:10:19Z</time>
      </trkpt>
      <trkpt lat="46.270288322120905" lon="9.178542885929346">
        <ele>600.48000000000002</ele>
        <time>2013-10-27T08:10:35Z</time>
      </trkpt>
      <trkpt lat="46.270240126177669" lon="9.178585130721331">
        <ele>601.91999999999996</ele>
        <time>2013-10-27T08:10:50Z</time>
      </trkpt>
      <trkpt lat="46.270172316581011" lon="9.178633829578757">
        <ele>604.33000000000004</ele>
        <time>2013-10-27T08:11:05Z</time>
      </trkpt>
      <trkpt lat="46.270125713199377" lon="9.178680935874581">
        <ele>606.25</ele>
        <time>2013-10-27T08:11:18Z</time>
      </trkpt>
      <trkpt lat="46.270123785361648" lon="9.178758217021823">
        <ele>608.64999999999998</ele>
        <time>2013-10-27T08:11:34Z</time>
      </trkpt>
      <trkpt lat="46.270039966329932" lon="9.178753271698952">
        <ele>611.05999999999995</ele>
        <time>2013-10-27T08:11:51Z</time>
      </trkpt>
      <trkpt lat="46.270014569163322" lon="9.178801132366061">
        <ele>613.46000000000004</ele>
        <time>2013-10-27T08:12:08Z</time>
      </trkpt>
      <trkpt lat="46.269940556958318" lon="9.17885871604085">
        <ele>615.38</ele>
        <time>2013-10-27T08:12:26Z</time>
      </trkpt>
      <trkpt lat="46.269872998818755" lon="9.178902050480247">
        <ele>618.25999999999999</ele>
        <time>2013-10-27T08:12:42Z</time>
      </trkpt>
      <trkpt lat="46.269806865602732" lon="9.178936835378408">
        <ele>621.14999999999998</ele>
        <time>2013-10-27T08:12:58Z</time>
      </trkpt>
      <trkpt lat="46.269714999943972" lon="9.17896868661046">
        <ele>623.07000000000005</ele>
        <time>2013-10-27T08:13:14Z</time>
      </trkpt>
      <trkpt lat="46.269660769030452" lon="9.17897597886622">
        <ele>625.47000000000003</ele>
        <time>2013-10-27T08:13:29Z</time>
      </trkpt>
      <trkpt lat="46.269627576693892" lon="9.179002214223146">
        <ele>627.39999999999998</ele>
        <time>2013-10-27T08:13:45Z</time>
      </trkpt>
      <trkpt lat="46.269549960270524" lon="9.178936332464218">
        <ele>630.27999999999997</ele>
        <time>2013-10-27T08:14:02Z</time>
      </trkpt>
      <trkpt lat="46.269471757113934" lon="9.178909845650196">
        <ele>632.67999999999995</ele>
        <time>2013-10-27T08:14:18Z</time>
      </trkpt>
      <trkpt lat="46.269416268914938" lon="9.178925519809127">
        <ele>633.64999999999998</ele>
        <time>2013-10-27T08:14:30Z</time>
      </trkpt>
      <trkpt lat="46.269381819292903" lon="9.179030209779739">
        <ele>636.52999999999997</ele>
        <time>2013-10-27T08:14:52Z</time>
      </trkpt>
      <trkpt lat="46.269408473744988" lon="9.179074885323644">
        <ele>639.88999999999999</ele>
        <time>2013-10-27T08:15:08Z</time>
      </trkpt>
      <trkpt lat="46.269390201196074" lon="9.179148897528648">
        <ele>642.77999999999997</ele>
        <time>2013-10-27T08:15:30Z</time>
      </trkpt>
      <trkpt lat="46.269299006089568" lon="9.179229699075222">
        <ele>645.65999999999997</ele>
        <time>2013-10-27T08:15:56Z</time>
      </trkpt>
      <trkpt lat="46.269282577559352" lon="9.179312596097589">
        <ele>649.02999999999997</ele>
        <time>2013-10-27T08:16:10Z</time>
      </trkpt>
      <trkpt lat="46.269205799326301" lon="9.179442599415779">
        <ele>651.42999999999995</ele>
        <time>2013-10-27T08:16:25Z</time>
      </trkpt>
      <trkpt lat="46.269203703850508" lon="9.17953060939908">
        <ele>653.83000000000004</ele>
        <time>2013-10-27T08:16:44Z</time>
      </trkpt>
      <trkpt lat="46.269205631688237" lon="9.179624570533633">
        <ele>657.67999999999995</ele>
        <time>2013-10-27T08:17:04Z</time>
      </trkpt>
      <trkpt lat="46.269170846790075" lon="9.179740827530623">
        <ele>660.08000000000004</ele>
        <time>2013-10-27T08:17:21Z</time>
      </trkpt>
      <trkpt lat="46.269204374402761" lon="9.179809726774693">
        <ele>663.45000000000005</ele>
        <time>2013-10-27T08:17:39Z</time>
      </trkpt>
      <trkpt lat="46.269185515120625" lon="9.179899748414755">
        <ele>665.37</ele>
        <time>2013-10-27T08:17:58Z</time>
      </trkpt>
      <trkpt lat="46.269242176786065" lon="9.179980047047138">
        <ele>668.73000000000002</ele>
        <time>2013-10-27T08:18:16Z</time>
      </trkpt>
      <trkpt lat="46.26927612349391" lon="9.180042240768671">
        <ele>670.65999999999997</ele>
        <time>2013-10-27T08:18:34Z</time>
      </trkpt>
      <trkpt lat="46.269297413527966" lon="9.180101836100221">
        <ele>674.01999999999998</ele>
        <time>2013-10-27T08:18:52Z</time>
      </trkpt>
      <trkpt lat="46.269353572279215" lon="9.180179117247462">
        <ele>675.94000000000005</ele>
        <time>2013-10-27T08:19:12Z</time>
      </trkpt>
      <trkpt lat="46.269415263086557" lon="9.180279951542616">
        <ele>678.35000000000002</ele>
        <time>2013-10-27T08:19:30Z</time>
      </trkpt>
      <trkpt lat="46.269448455423117" lon="9.180355807766318">
        <ele>680.26999999999998</ele>
        <time>2013-10-27T08:19:39Z</time>
      </trkpt>
      <trkpt lat="46.269491203129292" lon="9.180423282086849">
        <ele>682.19000000000005</ele>
        <time>2013-10-27T08:19:54Z</time>
      </trkpt>
      <trkpt lat="46.269489610567689" lon="9.180533587932587">
        <ele>683.63</ele>
        <time>2013-10-27T08:20:07Z</time>
      </trkpt>
      <trkpt lat="46.269525485113263" lon="9.180563092231751">
        <ele>686.03999999999996</ele>
        <time>2013-10-27T08:20:23Z</time>
      </trkpt>
      <trkpt lat="46.269521126523614" lon="9.180592261254787">
        <ele>687.96000000000004</ele>
        <time>2013-10-27T08:20:39Z</time>
      </trkpt>
      <trkpt lat="46.269600754603744" lon="9.180621095001698">
        <ele>689.88</ele>
        <time>2013-10-27T08:20:56Z</time>
      </trkpt>
      <trkpt lat="46.269596898928285" lon="9.180607432499528">
        <ele>692.28999999999996</ele>
        <time>2013-10-27T08:21:04Z</time>
      </trkpt>
      <trkpt lat="46.269561275839806" lon="9.18063148856163">
        <ele>692.28999999999996</ele>
        <time>2013-10-27T08:21:22Z</time>
      </trkpt>
      <trkpt lat="46.269583655521274" lon="9.180652443319559">
        <ele>692.76999999999998</ele>
        <time>2013-10-27T08:21:38Z</time>
      </trkpt>
      <trkpt lat="46.269625816494226" lon="9.180595194920898">
        <ele>694.21000000000004</ele>
        <time>2013-10-27T08:21:58Z</time>
      </trkpt>
      <trkpt lat="46.269672000780702" lon="9.180687898769975">
        <ele>695.64999999999998</ele>
        <time>2013-10-27T08:22:14Z</time>
      </trkpt>
      <trkpt lat="46.269752886146307" lon="9.180759815499187">
        <ele>698.52999999999997</ele>
        <time>2013-10-27T08:22:30Z</time>
      </trkpt>
      <trkpt lat="46.269725561141968" lon="9.180911695584655">
        <ele>701.41999999999996</ele>
        <time>2013-10-27T08:22:46Z</time>
      </trkpt>
      <trkpt lat="46.269698655232787" lon="9.181005237624049">
        <ele>702.86000000000001</ele>
        <time>2013-10-27T08:23:02Z</time>
      </trkpt>
      <trkpt lat="46.26968071796" lon="9.181113196536899">
        <ele>704.77999999999997</ele>
        <time>2013-10-27T08:23:23Z</time>
      </trkpt>
      <trkpt lat="46.269658505916595" lon="9.181140270084143">
        <ele>706.23000000000002</ele>
        <time>2013-10-27T08:23:30Z</time>
      </trkpt>
      <trkpt lat="46.269593546167016" lon="9.181184023618698">
        <ele>707.19000000000005</ele>
        <time>2013-10-27T08:23:48Z</time>
      </trkpt>
      <trkpt lat="46.269518109038472" lon="9.181186873465776">
        <ele>707.66999999999996</ele>
        <time>2013-10-27T08:24:13Z</time>
      </trkpt>
      <trkpt lat="46.269419202581048" lon="9.181204307824373">
        <ele>711.02999999999997</ele>
        <time>2013-10-27T08:24:31Z</time>
      </trkpt>
      <trkpt lat="46.269370587542653" lon="9.181207492947578">
        <ele>711.99000000000001</ele>
        <time>2013-10-27T08:24:46Z</time>
      </trkpt>
      <trkpt lat="46.269318284466863" lon="9.181273877620697">
        <ele>714.39999999999998</ele>
        <time>2013-10-27T08:25:01Z</time>
      </trkpt>
      <trkpt lat="46.269331527873874" lon="9.181322660297155">
        <ele>716.79999999999995</ele>
        <time>2013-10-27T08:25:14Z</time>
      </trkpt>
      <trkpt lat="46.269377628341317" lon="9.181363731622696">
        <ele>718.72000000000003</ele>
        <time>2013-10-27T08:25:29Z</time>
      </trkpt>
      <trkpt lat="46.269379975274205" lon="9.181429361924529">
        <ele>721.61000000000001</ele>
        <time>2013-10-27T08:25:45Z</time>
      </trkpt>
      <trkpt lat="46.269364049658179" lon="9.181499518454075">
        <ele>724.97000000000003</ele>
        <time>2013-10-27T08:26:04Z</time>
      </trkpt>
      <trkpt lat="46.269323229789734" lon="9.181573782116175">
        <ele>727.37</ele>
        <time>2013-10-27T08:26:22Z</time>
      </trkpt>
      <trkpt lat="46.269314177334309" lon="9.181664809584618">
        <ele>729.77999999999997</ele>
        <time>2013-10-27T08:26:41Z</time>
      </trkpt>
      <trkpt lat="46.269246870651841" lon="9.181736810132861">
        <ele>733.13999999999999</ele>
        <time>2013-10-27T08:26:55Z</time>
      </trkpt>
      <trkpt lat="46.26915886066854" lon="9.181697499006987">
        <ele>734.58000000000004</ele>
        <time>2013-10-27T08:27:13Z</time>
      </trkpt>
      <trkpt lat="46.269117789342999" lon="9.181658187881112">
        <ele>736.50999999999999</ele>
        <time>2013-10-27T08:27:30Z</time>
      </trkpt>
      <trkpt lat="46.269044447690248" lon="9.18164100497961">
        <ele>739.87</ele>
        <time>2013-10-27T08:27:45Z</time>
      </trkpt>
      <trkpt lat="46.268957862630486" lon="9.181574201211333">
        <ele>739.87</ele>
        <time>2013-10-27T08:27:57Z</time>
      </trkpt>
      <trkpt lat="46.268867757171392" lon="9.181541847065091">
        <ele>740.35000000000002</ele>
        <time>2013-10-27T08:28:13Z</time>
      </trkpt>
      <trkpt lat="46.268831379711628" lon="9.181580739095807">
        <ele>742.27999999999997</ele>
        <time>2013-10-27T08:28:30Z</time>
      </trkpt>
      <trkpt lat="46.268772203475237" lon="9.18164100497961">
        <ele>744.67999999999995</ele>
        <time>2013-10-27T08:28:49Z</time>
      </trkpt>
      <trkpt lat="46.268684947863221" lon="9.181700684130192">
        <ele>746.60000000000002</ele>
        <time>2013-10-27T08:29:08Z</time>
      </trkpt>
      <trkpt lat="46.268607834354043" lon="9.181759105995297">
        <ele>748.03999999999996</ele>
        <time>2013-10-27T08:29:26Z</time>
      </trkpt>
      <trkpt lat="46.268498785793781" lon="9.181750891730189">
        <ele>749.49000000000001</ele>
        <time>2013-10-27T08:29:42Z</time>
      </trkpt>
      <trkpt lat="46.268394934013486" lon="9.181748293340206">
        <ele>750.45000000000005</ele>
        <time>2013-10-27T08:29:59Z</time>
      </trkpt>
      <trkpt lat="46.268335087224841" lon="9.181754495948553">
        <ele>751.40999999999997</ele>
        <time>2013-10-27T08:30:13Z</time>
      </trkpt>
      <trkpt lat="46.268269876018167" lon="9.181784000247717">
        <ele>753.33000000000004</ele>
        <time>2013-10-27T08:30:30Z</time>
      </trkpt>
      <trkpt lat="46.268188823014498" lon="9.181769583374262">
        <ele>754.76999999999998</ele>
        <time>2013-10-27T08:30:44Z</time>
      </trkpt>
      <trkpt lat="46.268093856051564" lon="9.181731948629022">
        <ele>757.17999999999995</ele>
        <time>2013-10-27T08:31:02Z</time>
      </trkpt>
      <trkpt lat="46.268007690086961" lon="9.181745862588286">
        <ele>758.62</ele>
        <time>2013-10-27T08:31:19Z</time>
      </trkpt>
      <trkpt lat="46.267930660396814" lon="9.181792046874762">
        <ele>760.53999999999996</ele>
        <time>2013-10-27T08:31:37Z</time>
      </trkpt>
      <trkpt lat="46.267875423654914" lon="9.181839069351554">
        <ele>762.94000000000005</ele>
        <time>2013-10-27T08:31:55Z</time>
      </trkpt>
      <trkpt lat="46.267796717584133" lon="9.181862203404307">
        <ele>763.89999999999998</ele>
        <time>2013-10-27T08:32:13Z</time>
      </trkpt>
      <trkpt lat="46.267735026776791" lon="9.181926157325506">
        <ele>765.83000000000004</ele>
        <time>2013-10-27T08:32:32Z</time>
      </trkpt>
      <trkpt lat="46.267675766721368" lon="9.181946776807308">
        <ele>767.75</ele>
        <time>2013-10-27T08:32:43Z</time>
      </trkpt>
      <trkpt lat="46.267583146691322" lon="9.18192439712584">
        <ele>770.14999999999998</ele>
        <time>2013-10-27T08:32:55Z</time>
      </trkpt>
      <trkpt lat="46.267579710111022" lon="9.181926073506475">
        <ele>768.71000000000004</ele>
        <time>2013-10-27T08:32:56Z</time>
      </trkpt>
      <trkpt lat="46.267507374286652" lon="9.181953817605972">
        <ele>770.14999999999998</ele>
        <time>2013-10-27T08:33:15Z</time>
      </trkpt>
      <trkpt lat="46.267381478101015" lon="9.182038391008973">
        <ele>772.55999999999995</ele>
        <time>2013-10-27T08:33:38Z</time>
      </trkpt>
      <trkpt lat="46.267286343500018" lon="9.18204995803535">
        <ele>774.48000000000002</ele>
        <time>2013-10-27T08:33:57Z</time>
      </trkpt>
      <trkpt lat="46.26723806373775" lon="9.18207342736423">
        <ele>775.91999999999996</ele>
        <time>2013-10-27T08:34:14Z</time>
      </trkpt>
      <trkpt lat="46.267191041260958" lon="9.182091532275081">
        <ele>778.32000000000005</ele>
        <time>2013-10-27T08:34:28Z</time>
      </trkpt>
      <trkpt lat="46.267039328813553" lon="9.182030009105802">
        <ele>779.76999999999998</ele>
        <time>2013-10-27T08:34:44Z</time>
      </trkpt>
      <trkpt lat="46.266979733482003" lon="9.182004947215319">
        <ele>782.64999999999998</ele>
        <time>2013-10-27T08:35:01Z</time>
      </trkpt>
      <trkpt lat="46.266933800652623" lon="9.181888857856393">
        <ele>783.61000000000001</ele>
        <time>2013-10-27T08:35:21Z</time>
      </trkpt>
      <trkpt lat="46.266787620261312" lon="9.181459872052074">
        <ele>786.01999999999998</ele>
        <time>2013-10-27T08:35:35Z</time>
      </trkpt>
      <trkpt lat="46.266694162040949" lon="9.180931812152267">
        <ele>787.46000000000004</ele>
        <time>2013-10-27T08:35:51Z</time>
      </trkpt>
      <trkpt lat="46.266630124300718" lon="9.180891327559948">
        <ele>789.38</ele>
        <time>2013-10-27T08:36:11Z</time>
      </trkpt>
      <trkpt lat="46.266572708263993" lon="9.180791079998016">
        <ele>791.77999999999997</ele>
        <time>2013-10-27T08:36:32Z</time>
      </trkpt>
      <trkpt lat="46.266509843990207" lon="9.180702567100525">
        <ele>793.22000000000003</ele>
        <time>2013-10-27T08:36:51Z</time>
      </trkpt>
      <trkpt lat="46.266443710774183" lon="9.180709104984999">
        <ele>794.66999999999996</ele>
        <time>2013-10-27T08:37:10Z</time>
      </trkpt>
      <trkpt lat="46.266359388828278" lon="9.180692676454783">
        <ele>797.07000000000005</ele>
        <time>2013-10-27T08:37:32Z</time>
      </trkpt>
      <trkpt lat="46.266301721334457" lon="9.180765263736248">
        <ele>798.50999999999999</ele>
        <time>2013-10-27T08:37:53Z</time>
      </trkpt>
      <trkpt lat="46.266229720786214" lon="9.180800132453442">
        <ele>800.44000000000005</ele>
        <time>2013-10-27T08:38:11Z</time>
      </trkpt>
      <trkpt lat="46.266155960038304" lon="9.180847825482488">
        <ele>801.88</ele>
        <time>2013-10-27T08:38:29Z</time>
      </trkpt>
      <trkpt lat="46.266153277829289" lon="9.180894093587995">
        <ele>803.32000000000005</ele>
        <time>2013-10-27T08:38:49Z</time>
      </trkpt>
      <trkpt lat="46.266212789341807" lon="9.180907756090164">
        <ele>804.75999999999999</ele>
        <time>2013-10-27T08:39:08Z</time>
      </trkpt>
      <trkpt lat="46.266275150701404" lon="9.180940445512533">
        <ele>806.67999999999995</ele>
        <time>2013-10-27T08:39:24Z</time>
      </trkpt>
      <trkpt lat="46.266327872872353" lon="9.180986043065786">
        <ele>807.15999999999997</ele>
        <time>2013-10-27T08:39:36Z</time>
      </trkpt>
      <trkpt lat="46.266310941427946" lon="9.181049996986985">
        <ele>809.57000000000005</ele>
        <time>2013-10-27T08:39:52Z</time>
      </trkpt>
      <trkpt lat="46.266293507069349" lon="9.181100958958268">
        <ele>811.00999999999999</ele>
        <time>2013-10-27T08:40:08Z</time>
      </trkpt>
      <trkpt lat="46.26632384955883" lon="9.181217132136226">
        <ele>812.92999999999995</ele>
        <time>2013-10-27T08:40:28Z</time>
      </trkpt>
      <trkpt lat="46.266323430463672" lon="9.181260215118527">
        <ele>814.37</ele>
        <time>2013-10-27T08:40:43Z</time>
      </trkpt>
      <trkpt lat="46.266354443505406" lon="9.181268010288477">
        <ele>815.82000000000005</ele>
        <time>2013-10-27T08:40:58Z</time>
      </trkpt>
      <trkpt lat="46.266358382999897" lon="9.181313524022698">
        <ele>817.25999999999999</ele>
        <time>2013-10-27T08:41:15Z</time>
      </trkpt>
      <trkpt lat="46.266369614750147" lon="9.181313943117857">
        <ele>818.70000000000005</ele>
        <time>2013-10-27T08:41:30Z</time>
      </trkpt>
      <trkpt lat="46.266333740204573" lon="9.181430703029037">
        <ele>821.10000000000002</ele>
        <time>2013-10-27T08:41:50Z</time>
      </trkpt>
      <trkpt lat="46.266299709677696" lon="9.181521730497479">
        <ele>822.05999999999995</ele>
        <time>2013-10-27T08:42:04Z</time>
      </trkpt>
      <trkpt lat="46.266274228692055" lon="9.1815862711519">
        <ele>823.50999999999999</ele>
        <time>2013-10-27T08:42:19Z</time>
      </trkpt>
      <trkpt lat="46.266266098245978" lon="9.181701606139541">
        <ele>824.47000000000003</ele>
        <time>2013-10-27T08:42:35Z</time>
      </trkpt>
      <trkpt lat="46.266282191500068" lon="9.181802859529853">
        <ele>824.95000000000005</ele>
        <time>2013-10-27T08:42:51Z</time>
      </trkpt>
      <trkpt lat="46.26631110906601" lon="9.181908471509814">
        <ele>826.87</ele>
        <time>2013-10-27T08:43:10Z</time>
      </trkpt>
      <trkpt lat="46.266322256997228" lon="9.18197569437325">
        <ele>829.26999999999998</ele>
        <time>2013-10-27T08:43:25Z</time>
      </trkpt>
      <trkpt lat="46.266354694962502" lon="9.18208465911448">
        <ele>831.20000000000005</ele>
        <time>2013-10-27T08:43:40Z</time>
      </trkpt>
      <trkpt lat="46.266346564516425" lon="9.182236036285758">
        <ele>833.12</ele>
        <time>2013-10-27T08:43:58Z</time>
      </trkpt>
      <trkpt lat="46.266264757141471" lon="9.182282639667392">
        <ele>835.51999999999998</ele>
        <time>2013-10-27T08:44:16Z</time>
      </trkpt>
      <trkpt lat="46.266178591176867" lon="9.182299319654703">
        <ele>837.92999999999995</ele>
        <time>2013-10-27T08:44:33Z</time>
      </trkpt>
      <trkpt lat="46.266005337238312" lon="9.182335445657373">
        <ele>839.37</ele>
        <time>2013-10-27T08:44:52Z</time>
      </trkpt>
      <trkpt lat="46.265979940071702" lon="9.182453881949186">
        <ele>841.76999999999998</ele>
        <time>2013-10-27T08:45:11Z</time>
      </trkpt>
      <trkpt lat="46.265935767441988" lon="9.182528229430318">
        <ele>843.69000000000005</ele>
        <time>2013-10-27T08:45:28Z</time>
      </trkpt>
      <trkpt lat="46.265861922875047" lon="9.182564439252019">
        <ele>846.58000000000004</ele>
        <time>2013-10-27T08:45:47Z</time>
      </trkpt>
      <trkpt lat="46.265804674476385" lon="9.182652784511447">
        <ele>847.53999999999996</ele>
        <time>2013-10-27T08:46:03Z</time>
      </trkpt>
      <trkpt lat="46.265725633129478" lon="9.182723946869373">
        <ele>849.46000000000004</ele>
        <time>2013-10-27T08:46:20Z</time>
      </trkpt>
      <trkpt lat="46.265681209042668" lon="9.182801144197583">
        <ele>850.41999999999996</ele>
        <time>2013-10-27T08:46:37Z</time>
      </trkpt>
      <trkpt lat="46.265652878209949" lon="9.182905834168196">
        <ele>852.35000000000002</ele>
        <time>2013-10-27T08:46:56Z</time>
      </trkpt>
      <trkpt lat="46.265630498528481" lon="9.183054361492395">
        <ele>853.78999999999996</ele>
        <time>2013-10-27T08:47:17Z</time>
      </trkpt>
      <trkpt lat="46.265578363090754" lon="9.183167684823275">
        <ele>856.19000000000005</ele>
        <time>2013-10-27T08:47:37Z</time>
      </trkpt>
      <trkpt lat="46.26556159928441" lon="9.183211522176862">
        <ele>858.59000000000003</ele>
        <time>2013-10-27T08:47:45Z</time>
      </trkpt>
      <trkpt lat="46.265556067228317" lon="9.183292994275689">
        <ele>859.08000000000004</ele>
        <time>2013-10-27T08:48:02Z</time>
      </trkpt>
      <trkpt lat="46.265588086098433" lon="9.183474881574512">
        <ele>861</ele>
        <time>2013-10-27T08:48:21Z</time>
      </trkpt>
      <trkpt lat="46.265599066391587" lon="9.183608740568161">
        <ele>862.91999999999996</ele>
        <time>2013-10-27T08:48:41Z</time>
      </trkpt>
      <trkpt lat="46.265605688095093" lon="9.183713598176837">
        <ele>864.36000000000001</ele>
        <time>2013-10-27T08:48:59Z</time>
      </trkpt>
      <trkpt lat="46.265590852126479" lon="9.18388282880187">
        <ele>866.28999999999996</ele>
        <time>2013-10-27T08:49:19Z</time>
      </trkpt>
      <trkpt lat="46.26551566645503" lon="9.184016771614552">
        <ele>866.76999999999998</ele>
        <time>2013-10-27T08:49:37Z</time>
      </trkpt>
      <trkpt lat="46.265496974810958" lon="9.184146858751774">
        <ele>868.69000000000005</ele>
        <time>2013-10-27T08:49:57Z</time>
      </trkpt>
      <trkpt lat="46.265521366149187" lon="9.184263367205858">
        <ele>869.16999999999996</ele>
        <time>2013-10-27T08:50:13Z</time>
      </trkpt>
      <trkpt lat="46.265542153269053" lon="9.184375768527389">
        <ele>871.09000000000003</ele>
        <time>2013-10-27T08:50:29Z</time>
      </trkpt>
      <trkpt lat="46.265531927347183" lon="9.184513399377465">
        <ele>872.52999999999997</ele>
        <time>2013-10-27T08:50:48Z</time>
      </trkpt>
      <trkpt lat="46.265547936782241" lon="9.184660585597158">
        <ele>873.5</ele>
        <time>2013-10-27T08:51:05Z</time>
      </trkpt>
      <trkpt lat="46.265548691153526" lon="9.184777429327369">
        <ele>874.94000000000005</ele>
        <time>2013-10-27T08:51:26Z</time>
      </trkpt>
      <trkpt lat="46.265538716688752" lon="9.184877006337047">
        <ele>875.89999999999998</ele>
        <time>2013-10-27T08:51:42Z</time>
      </trkpt>
      <trkpt lat="46.265531927347183" lon="9.184964429587126">
        <ele>876.38</ele>
        <time>2013-10-27T08:51:59Z</time>
      </trkpt>
      <trkpt lat="46.265511978417635" lon="9.185077836737037">
        <ele>877.34000000000003</ele>
        <time>2013-10-27T08:52:17Z</time>
      </trkpt>
      <trkpt lat="46.265499740839005" lon="9.185108849778771">
        <ele>876.38</ele>
        <time>2013-10-27T08:52:38Z</time>
      </trkpt>
      <trkpt lat="46.265492783859372" lon="9.18510876595974">
        <ele>874.94000000000005</ele>
        <time>2013-10-27T08:52:42Z</time>
      </trkpt>
      <trkpt lat="46.265560425817966" lon="9.18513759970665">
        <ele>874.94000000000005</ele>
        <time>2013-10-27T08:53:16Z</time>
      </trkpt>
      <trkpt lat="46.265475181862712" lon="9.185208007693291">
        <ele>874.46000000000004</ele>
        <time>2013-10-27T08:53:49Z</time>
      </trkpt>
      <trkpt lat="46.265327325090766" lon="9.185122763738036">
        <ele>874.46000000000004</ele>
        <time>2013-10-27T08:54:27Z</time>
      </trkpt>
      <trkpt lat="46.26535682938993" lon="9.185154195874929">
        <ele>873.00999999999999</ele>
        <time>2013-10-27T08:55:08Z</time>
      </trkpt>
      <trkpt lat="46.265318691730499" lon="9.18513759970665">
        <ele>872.04999999999995</ele>
        <time>2013-10-27T08:55:53Z</time>
      </trkpt>
      <trkpt lat="46.265299916267395" lon="9.185171462595463">
        <ele>871.57000000000005</ele>
        <time>2013-10-27T08:56:33Z</time>
      </trkpt>
      <trkpt lat="46.265338724479079" lon="9.185236254706979">
        <ele>871.09000000000003</ele>
        <time>2013-10-27T08:57:00Z</time>
      </trkpt>
      <trkpt lat="46.265446851029992" lon="9.185200883075595">
        <ele>870.61000000000001</ele>
        <time>2013-10-27T08:57:30Z</time>
      </trkpt>
      <trkpt lat="46.265374599024653" lon="9.185189483687282">
        <ele>869.64999999999998</ele>
        <time>2013-10-27T08:57:58Z</time>
      </trkpt>
      <trkpt lat="46.265329504385591" lon="9.185159727931023">
        <ele>869.16999999999996</ele>
        <time>2013-10-27T08:58:42Z</time>
      </trkpt>
      <trkpt lat="46.265376443043351" lon="9.185189818963409">
        <ele>867.73000000000002</ele>
        <time>2013-10-27T08:59:23Z</time>
      </trkpt>
      <trkpt lat="46.26535439863801" lon="9.185012122616172">
        <ele>866.28999999999996</ele>
        <time>2013-10-27T08:59:37Z</time>
      </trkpt>
      <trkpt lat="46.265386585146189" lon="9.185090158134699">
        <ele>865.79999999999995</ele>
        <time>2013-10-27T09:00:06Z</time>
      </trkpt>
      <trkpt lat="46.265452466905117" lon="9.185159644111991">
        <ele>865.32000000000005</ele>
        <time>2013-10-27T09:00:25Z</time>
      </trkpt>
      <trkpt lat="46.26545456238091" lon="9.185236422345042">
        <ele>866.28999999999996</ele>
        <time>2013-10-27T09:00:30Z</time>
      </trkpt>
      <trkpt lat="46.265483982861042" lon="9.185437923297286">
        <ele>867.73000000000002</ele>
        <time>2013-10-27T09:00:49Z</time>
      </trkpt>
      <trkpt lat="46.2654999922961" lon="9.185655768960714">
        <ele>870.13</ele>
        <time>2013-10-27T09:01:08Z</time>
      </trkpt>
      <trkpt lat="46.265457328408957" lon="9.185695918276906">
        <ele>870.61000000000001</ele>
        <time>2013-10-27T09:01:24Z</time>
      </trkpt>
      <trkpt lat="46.26547459512949" lon="9.185842936858535">
        <ele>872.04999999999995</ele>
        <time>2013-10-27T09:01:42Z</time>
      </trkpt>
      <trkpt lat="46.265527401119471" lon="9.185963971540332">
        <ele>873.98000000000002</ele>
        <time>2013-10-27T09:01:59Z</time>
      </trkpt>
      <trkpt lat="46.265552379190922" lon="9.186159605160356">
        <ele>875.89999999999998</ele>
        <time>2013-10-27T09:02:18Z</time>
      </trkpt>
      <trkpt lat="46.265594540163875" lon="9.186277287080884">
        <ele>877.82000000000005</ele>
        <time>2013-10-27T09:02:36Z</time>
      </trkpt>
      <trkpt lat="46.265629241243005" lon="9.186363704502583">
        <ele>879.25999999999999</ele>
        <time>2013-10-27T09:02:53Z</time>
      </trkpt>
      <trkpt lat="46.265653464943171" lon="9.186476692557335">
        <ele>881.66999999999996</ele>
        <time>2013-10-27T09:03:09Z</time>
      </trkpt>
      <trkpt lat="46.265680538490415" lon="9.186563780531287">
        <ele>883.11000000000001</ele>
        <time>2013-10-27T09:03:24Z</time>
      </trkpt>
      <trkpt lat="46.265735439956188" lon="9.186693448573351">
        <ele>884.07000000000005</ele>
        <time>2013-10-27T09:03:40Z</time>
      </trkpt>
      <trkpt lat="46.26577952876687" lon="9.186799228191376">
        <ele>885.50999999999999</ele>
        <time>2013-10-27T09:03:55Z</time>
      </trkpt>
      <trkpt lat="46.2658073566854" lon="9.186944318935275">
        <ele>886.95000000000005</ele>
        <time>2013-10-27T09:04:11Z</time>
      </trkpt>
      <trkpt lat="46.265820348635316" lon="9.187068874016404">
        <ele>888.88</ele>
        <time>2013-10-27T09:04:28Z</time>
      </trkpt>
      <trkpt lat="46.265886817127466" lon="9.187185717746615">
        <ele>889.84000000000003</ele>
        <time>2013-10-27T09:04:44Z</time>
      </trkpt>
      <trkpt lat="46.265950184315443" lon="9.187299124896526">
        <ele>891.75999999999999</ele>
        <time>2013-10-27T09:05:04Z</time>
      </trkpt>
      <trkpt lat="46.265983795747161" lon="9.187456201761961">
        <ele>893.20000000000005</ele>
        <time>2013-10-27T09:05:26Z</time>
      </trkpt>
      <trkpt lat="46.266032746061683" lon="9.187637083232403">
        <ele>895.12</ele>
        <time>2013-10-27T09:05:46Z</time>
      </trkpt>
      <trkpt lat="46.266135843470693" lon="9.187815869227052">
        <ele>896.57000000000005</ele>
        <time>2013-10-27T09:06:06Z</time>
      </trkpt>
      <trkpt lat="46.266183285042644" lon="9.187977137044072">
        <ele>897.52999999999997</ele>
        <time>2013-10-27T09:06:27Z</time>
      </trkpt>
      <trkpt lat="46.266238354146481" lon="9.188125245273113">
        <ele>898.97000000000003</ele>
        <time>2013-10-27T09:06:47Z</time>
      </trkpt>
      <trkpt lat="46.266353018581867" lon="9.188280142843723">
        <ele>899.92999999999995</ele>
        <time>2013-10-27T09:07:08Z</time>
      </trkpt>
      <trkpt lat="46.266359724104404" lon="9.188523553311825">
        <ele>901.37</ele>
        <time>2013-10-27T09:07:31Z</time>
      </trkpt>
      <trkpt lat="46.266431724652648" lon="9.188701333478093">
        <ele>902.82000000000005</ele>
        <time>2013-10-27T09:07:52Z</time>
      </trkpt>
      <trkpt lat="46.266465671360493" lon="9.188848519697785">
        <ele>904.25999999999999</ele>
        <time>2013-10-27T09:08:14Z</time>
      </trkpt>
      <trkpt lat="46.266506826505065" lon="9.189015068113804">
        <ele>905.22000000000003</ele>
        <time>2013-10-27T09:08:35Z</time>
      </trkpt>
      <trkpt lat="46.266603553667665" lon="9.189140796661377">
        <ele>907.13999999999999</ele>
        <time>2013-10-27T09:08:55Z</time>
      </trkpt>
      <trkpt lat="46.266657533124089" lon="9.189332826063037">
        <ele>908.58000000000004</ele>
        <time>2013-10-27T09:09:13Z</time>
      </trkpt>
      <trkpt lat="46.266680164262652" lon="9.189584283158183">
        <ele>910.50999999999999</ele>
        <time>2013-10-27T09:09:37Z</time>
      </trkpt>
      <trkpt lat="46.266744788736105" lon="9.189688386395574">
        <ele>911.47000000000003</ele>
        <time>2013-10-27T09:09:57Z</time>
      </trkpt>
      <trkpt lat="46.266772281378508" lon="9.189829202368856">
        <ele>913.87</ele>
        <time>2013-10-27T09:10:19Z</time>
      </trkpt>
      <trkpt lat="46.266807317733765" lon="9.18995107524097">
        <ele>915.78999999999996</ele>
        <time>2013-10-27T09:10:42Z</time>
      </trkpt>
      <trkpt lat="46.266817627474666" lon="9.190260451287031">
        <ele>918.20000000000005</ele>
        <time>2013-10-27T09:11:07Z</time>
      </trkpt>
      <trkpt lat="46.2668676674366" lon="9.190409146249294">
        <ele>920.12</ele>
        <time>2013-10-27T09:11:28Z</time>
      </trkpt>
      <trkpt lat="46.266919886693358" lon="9.190511908382177">
        <ele>921.55999999999995</ele>
        <time>2013-10-27T09:11:50Z</time>
      </trkpt>
      <trkpt lat="46.267010662704706" lon="9.190702009946108">
        <ele>923.48000000000002</ele>
        <time>2013-10-27T09:12:17Z</time>
      </trkpt>
      <trkpt lat="46.26709096133709" lon="9.190872497856617">
        <ele>923.96000000000004</ele>
        <time>2013-10-27T09:12:34Z</time>
      </trkpt>
      <trkpt lat="46.267128763720393" lon="9.191100150346756">
        <ele>925.40999999999997</ele>
        <time>2013-10-27T09:12:56Z</time>
      </trkpt>
      <trkpt lat="46.267178049311042" lon="9.191339956596494">
        <ele>928.76999999999998</ele>
        <time>2013-10-27T09:13:17Z</time>
      </trkpt>
      <trkpt lat="46.267262287437916" lon="9.191560484468937">
        <ele>929.73000000000002</ele>
        <time>2013-10-27T09:13:36Z</time>
      </trkpt>
      <trkpt lat="46.267280224710703" lon="9.191732816398144">
        <ele>931.16999999999996</ele>
        <time>2013-10-27T09:13:55Z</time>
      </trkpt>
      <trkpt lat="46.267278464511037" lon="9.191878577694297">
        <ele>933.10000000000002</ele>
        <time>2013-10-27T09:14:15Z</time>
      </trkpt>
      <trkpt lat="46.267285086214542" lon="9.192042108625174">
        <ele>935.98000000000002</ele>
        <time>2013-10-27T09:14:37Z</time>
      </trkpt>
      <trkpt lat="46.267268322408199" lon="9.192137075588107">
        <ele>936.94000000000005</ele>
        <time>2013-10-27T09:14:56Z</time>
      </trkpt>
      <trkpt lat="46.267282068729401" lon="9.192261882126331">
        <ele>937.89999999999998</ele>
        <time>2013-10-27T09:15:15Z</time>
      </trkpt>
      <trkpt lat="46.267283409833908" lon="9.192483332008123">
        <ele>939.83000000000004</ele>
        <time>2013-10-27T09:15:37Z</time>
      </trkpt>
      <trkpt lat="46.267300006002188" lon="9.192702518776059">
        <ele>942.23000000000002</ele>
        <time>2013-10-27T09:15:58Z</time>
      </trkpt>
      <trkpt lat="46.267346609383821" lon="9.192973086610436">
        <ele>943.66999999999996</ele>
        <time>2013-10-27T09:16:17Z</time>
      </trkpt>
      <trkpt lat="46.267411820590496" lon="9.193171989172697">
        <ele>945.11000000000001</ele>
        <time>2013-10-27T09:16:36Z</time>
      </trkpt>
      <trkpt lat="46.267440151423216" lon="9.193321941420436">
        <ele>946.55999999999995</ele>
        <time>2013-10-27T09:16:54Z</time>
      </trkpt>
      <trkpt lat="46.267402097582817" lon="9.193519251421094">
        <ele>948</ele>
        <time>2013-10-27T09:17:12Z</time>
      </trkpt>
      <trkpt lat="46.267346860840917" lon="9.193689487874508">
        <ele>949.44000000000005</ele>
        <time>2013-10-27T09:17:29Z</time>
      </trkpt>
      <trkpt lat="46.267255833372474" lon="9.19381027109921">
        <ele>951.36000000000001</ele>
        <time>2013-10-27T09:17:48Z</time>
      </trkpt>
      <trkpt lat="46.267231609672308" lon="9.193978160619736">
        <ele>953.27999999999997</ele>
        <time>2013-10-27T09:18:09Z</time>
      </trkpt>
      <trkpt lat="46.26720973290503" lon="9.194126101210713">
        <ele>951.84000000000003</ele>
        <time>2013-10-27T09:18:15Z</time>
      </trkpt>
      <trkpt lat="46.267087021842599" lon="9.19421436265111">
        <ele>950.39999999999998</ele>
        <time>2013-10-27T09:18:33Z</time>
      </trkpt>
      <trkpt lat="46.266951654106379" lon="9.194313688203692">
        <ele>951.36000000000001</ele>
        <time>2013-10-27T09:18:52Z</time>
      </trkpt>
      <trkpt lat="46.2668452039361" lon="9.194363644346595">
        <ele>954.25</ele>
        <time>2013-10-27T09:19:09Z</time>
      </trkpt>
      <trkpt lat="46.266786782070994" lon="9.194511249661446">
        <ele>955.21000000000004</ele>
        <time>2013-10-27T09:19:29Z</time>
      </trkpt>
      <trkpt lat="46.266635991632938" lon="9.194557685405016">
        <ele>957.13</ele>
        <time>2013-10-27T09:19:47Z</time>
      </trkpt>
      <trkpt lat="46.266572708263993" lon="9.194639995694161">
        <ele>960.00999999999999</ele>
        <time>2013-10-27T09:20:06Z</time>
      </trkpt>
      <trkpt lat="46.266538091003895" lon="9.194755582138896">
        <ele>961.94000000000005</ele>
        <time>2013-10-27T09:20:24Z</time>
      </trkpt>
      <trkpt lat="46.266520321369171" lon="9.194821966812015">
        <ele>964.34000000000003</ele>
        <time>2013-10-27T09:20:40Z</time>
      </trkpt>
      <trkpt lat="46.266426527872682" lon="9.194874772801995">
        <ele>965.29999999999995</ele>
        <time>2013-10-27T09:20:54Z</time>
      </trkpt>
      <trkpt lat="46.266319993883371" lon="9.195029502734542">
        <ele>966.25999999999999</ele>
        <time>2013-10-27T09:21:13Z</time>
      </trkpt>
      <trkpt lat="46.266393000259995" lon="9.195167049765587">
        <ele>968.66999999999996</ele>
        <time>2013-10-27T09:21:29Z</time>
      </trkpt>
      <trkpt lat="46.266393084079027" lon="9.195282971486449">
        <ele>970.59000000000003</ele>
        <time>2013-10-27T09:21:47Z</time>
      </trkpt>
      <trkpt lat="46.266376404091716" lon="9.195418925955892">
        <ele>971.07000000000005</ele>
        <time>2013-10-27T09:22:04Z</time>
      </trkpt>
      <trkpt lat="46.266409428790212" lon="9.195602489635348">
        <ele>972.02999999999997</ele>
        <time>2013-10-27T09:22:21Z</time>
      </trkpt>
      <trkpt lat="46.266371374949813" lon="9.195815641433001">
        <ele>972.50999999999999</ele>
        <time>2013-10-27T09:22:42Z</time>
      </trkpt>
      <trkpt lat="46.266336087137461" lon="9.196036923676729">
        <ele>972.50999999999999</ele>
        <time>2013-10-27T09:23:03Z</time>
      </trkpt>
      <trkpt lat="46.266292920336127" lon="9.196218391880393">
        <ele>973.47000000000003</ele>
        <time>2013-10-27T09:23:22Z</time>
      </trkpt>
      <trkpt lat="46.266285292804241" lon="9.196453420445323">
        <ele>974.90999999999997</ele>
        <time>2013-10-27T09:23:44Z</time>
      </trkpt>
      <trkpt lat="46.266431137919426" lon="9.196700099855661">
        <ele>977.79999999999995</ele>
        <time>2013-10-27T09:24:06Z</time>
      </trkpt>
      <trkpt lat="46.266411188989878" lon="9.196699261665344">
        <ele>980.20000000000005</ele>
        <time>2013-10-27T09:24:23Z</time>
      </trkpt>
      <trkpt lat="46.266462737694383" lon="9.196715690195561">
        <ele>981.15999999999997</ele>
        <time>2013-10-27T09:24:38Z</time>
      </trkpt>
      <trkpt lat="46.266490314155817" lon="9.196788864210248">
        <ele>984.04999999999995</ele>
        <time>2013-10-27T09:24:53Z</time>
      </trkpt>
      <trkpt lat="46.266532139852643" lon="9.196952395141125">
        <ele>986.45000000000005</ele>
        <time>2013-10-27T09:25:10Z</time>
      </trkpt>
      <trkpt lat="46.266610343009233" lon="9.197110310196877">
        <ele>988.85000000000002</ele>
        <time>2013-10-27T09:25:29Z</time>
      </trkpt>
      <trkpt lat="46.266686702147126" lon="9.19727711006999">
        <ele>991.74000000000001</ele>
        <time>2013-10-27T09:25:45Z</time>
      </trkpt>
      <trkpt lat="46.266626855358481" lon="9.197435276582837">
        <ele>993.17999999999995</ele>
        <time>2013-10-27T09:26:04Z</time>
      </trkpt>
      <trkpt lat="46.266589472070336" lon="9.197602244094014">
        <ele>995.10000000000002</ele>
        <time>2013-10-27T09:26:25Z</time>
      </trkpt>
      <trkpt lat="46.266692485660315" lon="9.197801565751433">
        <ele>996.05999999999995</ele>
        <time>2013-10-27T09:26:46Z</time>
      </trkpt>
      <trkpt lat="46.266710590571165" lon="9.197993846610189">
        <ele>998.95000000000005</ele>
        <time>2013-10-27T09:27:06Z</time>
      </trkpt>
      <trkpt lat="46.266740933060646" lon="9.198126699775457">
        <ele>999.90999999999997</ele>
        <time>2013-10-27T09:27:24Z</time>
      </trkpt>
      <trkpt lat="46.266714362427592" lon="9.198199538514018">
        <ele>998.47000000000003</ele>
        <time>2013-10-27T09:27:36Z</time>
      </trkpt>
      <trkpt lat="46.266715619713068" lon="9.198388885706663">
        <ele>997.50999999999999</ele>
        <time>2013-10-27T09:27:55Z</time>
      </trkpt>
      <trkpt lat="46.266668932512403" lon="9.198556188493967">
        <ele>994.13999999999999</ele>
        <time>2013-10-27T09:28:14Z</time>
      </trkpt>
      <trkpt lat="46.266628615558147" lon="9.198749642819166">
        <ele>994.13999999999999</ele>
        <time>2013-10-27T09:28:32Z</time>
      </trkpt>
      <trkpt lat="46.266589723527431" lon="9.198946617543697">
        <ele>992.70000000000005</ele>
        <time>2013-10-27T09:28:51Z</time>
      </trkpt>
      <trkpt lat="46.266436837613583" lon="9.199153063818812">
        <ele>990.77999999999997</ele>
        <time>2013-10-27T09:29:13Z</time>
      </trkpt>
      <trkpt lat="46.266318904235959" lon="9.199312403798103">
        <ele>990.29999999999995</ele>
        <time>2013-10-27T09:29:32Z</time>
      </trkpt>
      <trkpt lat="46.266237599775195" lon="9.199558664113283">
        <ele>990.29999999999995</ele>
        <time>2013-10-27T09:29:52Z</time>
      </trkpt>
      <trkpt lat="46.266217986121774" lon="9.199578193947673">
        <ele>991.74000000000001</ele>
        <time>2013-10-27T09:29:54Z</time>
      </trkpt>
      <trkpt lat="46.26619091257453" lon="9.199771732091904">
        <ele>993.65999999999997</ele>
        <time>2013-10-27T09:30:11Z</time>
      </trkpt>
      <trkpt lat="46.266136933118105" lon="9.199895281344652">
        <ele>994.62</ele>
        <time>2013-10-27T09:30:26Z</time>
      </trkpt>
      <trkpt lat="46.266028638929129" lon="9.200038779526949">
        <ele>996.53999999999996</ele>
        <time>2013-10-27T09:30:45Z</time>
      </trkpt>
      <trkpt lat="46.265949010848999" lon="9.20019761659205">
        <ele>999.42999999999995</ele>
        <time>2013-10-27T09:31:06Z</time>
      </trkpt>
      <trkpt lat="46.265818336978555" lon="9.200320830568671">
        <ele>1000.87</ele>
        <time>2013-10-27T09:31:23Z</time>
      </trkpt>
      <trkpt lat="46.265877429395914" lon="9.200549237430096">
        <ele>1003.27</ele>
        <time>2013-10-27T09:31:44Z</time>
      </trkpt>
      <trkpt lat="46.265845075249672" lon="9.20071067288518">
        <ele>1004.23</ele>
        <time>2013-10-27T09:32:04Z</time>
      </trkpt>
      <trkpt lat="46.2658557202667" lon="9.20088711194694">
        <ele>1004.23</ele>
        <time>2013-10-27T09:32:21Z</time>
      </trkpt>
      <trkpt lat="46.266000559553504" lon="9.201085260137916">
        <ele>1005.6799999999999</ele>
        <time>2013-10-27T09:32:38Z</time>
      </trkpt>
      <trkpt lat="46.266116984188557" lon="9.20122959651053">
        <ele>1009.04</ele>
        <time>2013-10-27T09:32:54Z</time>
      </trkpt>
      <trkpt lat="46.266217986121774" lon="9.201478203758597">
        <ele>1011.4400000000001</ele>
        <time>2013-10-27T09:33:16Z</time>
      </trkpt>
      <trkpt lat="46.266124192625284" lon="9.201634945347905">
        <ele>1011.9299999999999</ele>
        <time>2013-10-27T09:33:34Z</time>
      </trkpt>
      <trkpt lat="46.266092425212264" lon="9.201767714694142">
        <ele>1009.04</ele>
        <time>2013-10-27T09:33:54Z</time>
      </trkpt>
      <trkpt lat="46.266038110479712" lon="9.201956391334534">
        <ele>1010.48</ele>
        <time>2013-10-27T09:34:13Z</time>
      </trkpt>
      <trkpt lat="46.266075074672699" lon="9.202134842053056">
        <ele>1011.9299999999999</ele>
        <time>2013-10-27T09:34:31Z</time>
      </trkpt>
      <trkpt lat="46.266109524294734" lon="9.202285800129175">
        <ele>1012.89</ele>
        <time>2013-10-27T09:34:50Z</time>
      </trkpt>
      <trkpt lat="46.266117738559842" lon="9.202352520078421">
        <ele>1013.37</ele>
        <time>2013-10-27T09:35:21Z</time>
      </trkpt>
      <trkpt lat="46.266250927001238" lon="9.202458383515477">
        <ele>1013.85</ele>
        <time>2013-10-27T09:35:37Z</time>
      </trkpt>
      <trkpt lat="46.266366429626942" lon="9.202494090422988">
        <ele>1015.29</ele>
        <time>2013-10-27T09:35:53Z</time>
      </trkpt>
      <trkpt lat="46.266348576173186" lon="9.202585620805621">
        <ele>1016.73</ele>
        <time>2013-10-27T09:36:02Z</time>
      </trkpt>
      <trkpt lat="46.266290908679366" lon="9.202700285241008">
        <ele>1018.65</ele>
        <time>2013-10-27T09:36:17Z</time>
      </trkpt>
      <trkpt lat="46.266141794621944" lon="9.202775973826647">
        <ele>1020.58</ele>
        <time>2013-10-27T09:36:37Z</time>
      </trkpt>
      <trkpt lat="46.26613081432879" lon="9.202753258869052">
        <ele>1022.02</ele>
        <time>2013-10-27T09:36:40Z</time>
      </trkpt>
      <trkpt lat="46.266131652519107" lon="9.202750492841005">
        <ele>1020.58</ele>
        <time>2013-10-27T09:36:41Z</time>
      </trkpt>
      <trkpt lat="46.266166940331459" lon="9.202895751222968">
        <ele>1022.5</ele>
        <time>2013-10-27T09:37:02Z</time>
      </trkpt>
      <trkpt lat="46.266157468780875" lon="9.203070262447">
        <ele>1023.9400000000001</ele>
        <time>2013-10-27T09:37:16Z</time>
      </trkpt>
      <trkpt lat="46.266083205118775" lon="9.20319783501327">
        <ele>1024.4200000000001</ele>
        <time>2013-10-27T09:37:35Z</time>
      </trkpt>
      <trkpt lat="46.266150008887053" lon="9.203291879966855">
        <ele>1024.4200000000001</ele>
        <time>2013-10-27T09:37:57Z</time>
      </trkpt>
      <trkpt lat="46.266192421317101" lon="9.203403191640973">
        <ele>1024.9000000000001</ele>
        <time>2013-10-27T09:38:12Z</time>
      </trkpt>
      <trkpt lat="46.266276156529784" lon="9.203618438914418">
        <ele>1026.8299999999999</ele>
        <time>2013-10-27T09:38:31Z</time>
      </trkpt>
      <trkpt lat="46.266307672485709" lon="9.203808791935444">
        <ele>1027.79</ele>
        <time>2013-10-27T09:38:51Z</time>
      </trkpt>
      <trkpt lat="46.266320832073689" lon="9.20396595261991">
        <ele>1029.23</ele>
        <time>2013-10-27T09:39:07Z</time>
      </trkpt>
      <trkpt lat="46.266308845952153" lon="9.204136189073324">
        <ele>1030.6700000000001</ele>
        <time>2013-10-27T09:39:27Z</time>
      </trkpt>
      <trkpt lat="46.266334913671017" lon="9.204291505739093">
        <ele>1032.1099999999999</ele>
        <time>2013-10-27T09:39:44Z</time>
      </trkpt>
      <trkpt lat="46.266321586444974" lon="9.204439781606197">
        <ele>1033.55</ele>
        <time>2013-10-27T09:39:58Z</time>
      </trkpt>
      <trkpt lat="46.266577653586864" lon="9.204589566215873">
        <ele>1034.52</ele>
        <time>2013-10-27T09:40:14Z</time>
      </trkpt>
      <trkpt lat="46.266682678833604" lon="9.204623596742749">
        <ele>1035</ele>
        <time>2013-10-27T09:40:24Z</time>
      </trkpt>
      <trkpt lat="46.266596512869" lon="9.204641953110695">
        <ele>1035.96</ele>
        <time>2013-10-27T09:40:43Z</time>
      </trkpt>
      <trkpt lat="46.266660215333104" lon="9.204666763544083">
        <ele>1035.96</ele>
        <time>2013-10-27T09:41:03Z</time>
      </trkpt>
      <trkpt lat="46.26669374294579" lon="9.204697525128722">
        <ele>1035.96</ele>
        <time>2013-10-27T09:41:21Z</time>
      </trkpt>
      <trkpt lat="46.26659793779254" lon="9.204820906743407">
        <ele>1038.3599999999999</ele>
        <time>2013-10-27T09:41:41Z</time>
      </trkpt>
      <trkpt lat="46.266671111807227" lon="9.204923333600164">
        <ele>1038.3599999999999</ele>
        <time>2013-10-27T09:41:50Z</time>
      </trkpt>
      <trkpt lat="46.266590561717749" lon="9.20496859587729">
        <ele>1041.25</ele>
        <time>2013-10-27T09:42:05Z</time>
      </trkpt>
      <trkpt lat="46.266661556437612" lon="9.205011259764433">
        <ele>1044.1300000000001</ele>
        <time>2013-10-27T09:42:20Z</time>
      </trkpt>
      <trkpt lat="46.26679876819253" lon="9.205046882852912">
        <ele>1047.49</ele>
        <time>2013-10-27T09:42:37Z</time>
      </trkpt>
      <trkpt lat="46.266917455941439" lon="9.205166324973106">
        <ele>1050.8599999999999</ele>
        <time>2013-10-27T09:42:55Z</time>
      </trkpt>
      <trkpt lat="46.267003621906042" lon="9.205365478992462">
        <ele>1052.78</ele>
        <time>2013-10-27T09:43:17Z</time>
      </trkpt>
      <trkpt lat="46.266884347423911" lon="9.20564291998744">
        <ele>1052.78</ele>
        <time>2013-10-27T09:43:39Z</time>
      </trkpt>
      <trkpt lat="46.266762809827924" lon="9.205870404839516">
        <ele>1051.8199999999999</ele>
        <time>2013-10-27T09:44:06Z</time>
      </trkpt>
      <trkpt lat="46.266713524237275" lon="9.206109205260873">
        <ele>1051.8199999999999</ele>
        <time>2013-10-27T09:44:27Z</time>
      </trkpt>
      <trkpt lat="46.266671698540449" lon="9.20619017444551">
        <ele>1051.3399999999999</ele>
        <time>2013-10-27T09:44:44Z</time>
      </trkpt>
      <trkpt lat="46.266661304980516" lon="9.206331744790077">
        <ele>1051.3399999999999</ele>
        <time>2013-10-27T09:45:01Z</time>
      </trkpt>
      <trkpt lat="46.266656024381518" lon="9.206443978473544">
        <ele>1051.3399999999999</ele>
        <time>2013-10-27T09:45:20Z</time>
      </trkpt>
      <trkpt lat="46.266629202291369" lon="9.206517320126295">
        <ele>1053.74</ele>
        <time>2013-10-27T09:45:36Z</time>
      </trkpt>
      <trkpt lat="46.26659500412643" lon="9.206688897684217">
        <ele>1054.22</ele>
        <time>2013-10-27T09:45:58Z</time>
      </trkpt>
      <trkpt lat="46.26671033911407" lon="9.206955693662167">
        <ele>1056.1500000000001</ele>
        <time>2013-10-27T09:46:10Z</time>
      </trkpt>
      <trkpt lat="46.266831206157804" lon="9.207125762477517">
        <ele>1058.0699999999999</ele>
        <time>2013-10-27T09:46:27Z</time>
      </trkpt>
      <trkpt lat="46.266888454556465" lon="9.207239840179682">
        <ele>1059.51</ele>
        <time>2013-10-27T09:46:42Z</time>
      </trkpt>
      <trkpt lat="46.266895243898034" lon="9.207421140745282">
        <ele>1061.9100000000001</ele>
        <time>2013-10-27T09:46:58Z</time>
      </trkpt>
      <trkpt lat="46.266857692971826" lon="9.207593975588679">
        <ele>1064.3199999999999</ele>
        <time>2013-10-27T09:47:15Z</time>
      </trkpt>
      <trkpt lat="46.266912175342441" lon="9.20774208381772">
        <ele>1065.76</ele>
        <time>2013-10-27T09:47:31Z</time>
      </trkpt>
      <trkpt lat="46.266866493970156" lon="9.207819700241089">
        <ele>1067.2</ele>
        <time>2013-10-27T09:47:45Z</time>
      </trkpt>
      <trkpt lat="46.266836235299706" lon="9.207909889519215">
        <ele>1069.1199999999999</ele>
        <time>2013-10-27T09:47:59Z</time>
      </trkpt>
      <trkpt lat="46.266821147873998" lon="9.207997899502516">
        <ele>1068.6400000000001</ele>
        <time>2013-10-27T09:48:12Z</time>
      </trkpt>
      <trkpt lat="46.266778651624918" lon="9.208101751282811">
        <ele>1068.6400000000001</ele>
        <time>2013-10-27T09:48:25Z</time>
      </trkpt>
      <trkpt lat="46.266679828986526" lon="9.208162436261773">
        <ele>1070.0799999999999</ele>
        <time>2013-10-27T09:48:44Z</time>
      </trkpt>
      <trkpt lat="46.266657449305058" lon="9.20834843069315">
        <ele>1071.53</ele>
        <time>2013-10-27T09:49:01Z</time>
      </trkpt>
      <trkpt lat="46.26662383787334" lon="9.208537694066763">
        <ele>1072.97</ele>
        <time>2013-10-27T09:49:19Z</time>
      </trkpt>
      <trkpt lat="46.266645044088364" lon="9.208757132291794">
        <ele>1075.3699999999999</ele>
        <time>2013-10-27T09:49:42Z</time>
      </trkpt>
      <trkpt lat="46.266607660800219" lon="9.208876490592957">
        <ele>1080.1800000000001</ele>
        <time>2013-10-27T09:49:57Z</time>
      </trkpt>
      <trkpt lat="46.266603302210569" lon="9.208885123953223">
        <ele>1080.1800000000001</ele>
        <time>2013-10-27T09:49:58Z</time>
      </trkpt>
      <trkpt lat="46.266598356887698" lon="9.208891913294792">
        <ele>1078.26</ele>
        <time>2013-10-27T09:49:59Z</time>
      </trkpt>
      <trkpt lat="46.266519902274013" lon="9.209028705954552">
        <ele>1080.1800000000001</ele>
        <time>2013-10-27T09:50:14Z</time>
      </trkpt>
      <trkpt lat="46.266478998586535" lon="9.209190392866731">
        <ele>1081.6199999999999</ele>
        <time>2013-10-27T09:50:30Z</time>
      </trkpt>
      <trkpt lat="46.266411188989878" lon="9.209326095879078">
        <ele>1083.54</ele>
        <time>2013-10-27T09:50:48Z</time>
      </trkpt>
      <trkpt lat="46.266352599486709" lon="9.20949918217957">
        <ele>1086.4300000000001</ele>
        <time>2013-10-27T09:51:09Z</time>
      </trkpt>
      <trkpt lat="46.266294764354825" lon="9.209647458046675">
        <ele>1088.8299999999999</ele>
        <time>2013-10-27T09:51:29Z</time>
      </trkpt>
      <trkpt lat="46.266151266172528" lon="9.20959984883666">
        <ele>1089.79</ele>
        <time>2013-10-27T09:51:55Z</time>
      </trkpt>
      <trkpt lat="46.266092592850327" lon="9.209681237116456">
        <ele>1089.79</ele>
        <time>2013-10-27T09:52:10Z</time>
      </trkpt>
      <trkpt lat="46.266058478504419" lon="9.209952307865024">
        <ele>1092.2</ele>
        <time>2013-10-27T09:52:37Z</time>
      </trkpt>
      <trkpt lat="46.266006594523787" lon="9.21004006639123">
        <ele>1095.0799999999999</ele>
        <time>2013-10-27T09:52:55Z</time>
      </trkpt>
      <trkpt lat="46.266024280339479" lon="9.210113659501076">
        <ele>1098.4400000000001</ele>
        <time>2013-10-27T09:53:09Z</time>
      </trkpt>
      <trkpt lat="46.266010701656342" lon="9.21013779938221">
        <ele>1101.8099999999999</ele>
        <time>2013-10-27T09:53:26Z</time>
      </trkpt>
      <trkpt lat="46.265946244820952" lon="9.210234107449651">
        <ele>1104.6900000000001</ele>
        <time>2013-10-27T09:53:45Z</time>
      </trkpt>
      <trkpt lat="46.265937862917781" lon="9.210404260084033">
        <ele>1107.0999999999999</ele>
        <time>2013-10-27T09:54:03Z</time>
      </trkpt>
      <trkpt lat="46.265935432165861" lon="9.210546752437949">
        <ele>1109.02</ele>
        <time>2013-10-27T09:54:18Z</time>
      </trkpt>
      <trkpt lat="46.265880279242992" lon="9.210748001933098">
        <ele>1109.02</ele>
        <time>2013-10-27T09:54:35Z</time>
      </trkpt>
      <trkpt lat="46.26576921902597" lon="9.21091471798718">
        <ele>1106.6099999999999</ele>
        <time>2013-10-27T09:54:53Z</time>
      </trkpt>
      <trkpt lat="46.265628235414624" lon="9.210944138467312">
        <ele>1106.6099999999999</ele>
        <time>2013-10-27T09:55:08Z</time>
      </trkpt>
      <trkpt lat="46.26549705862999" lon="9.211025107651949">
        <ele>1106.6099999999999</ele>
        <time>2013-10-27T09:55:25Z</time>
      </trkpt>
      <trkpt lat="46.265460178256035" lon="9.211155027151108">
        <ele>1108.0599999999999</ele>
        <time>2013-10-27T09:55:41Z</time>
      </trkpt>
      <trkpt lat="46.265423968434334" lon="9.211350325495005">
        <ele>1110.9400000000001</ele>
        <time>2013-10-27T09:56:01Z</time>
      </trkpt>
      <trkpt lat="46.265296479687095" lon="9.211349654942751">
        <ele>1112.8599999999999</ele>
        <time>2013-10-27T09:56:24Z</time>
      </trkpt>
      <trkpt lat="46.265142587944865" lon="9.211355103179812">
        <ele>1113.8199999999999</ele>
        <time>2013-10-27T09:56:47Z</time>
      </trkpt>
      <trkpt lat="46.265147030353546" lon="9.211285449564457">
        <ele>1113.8199999999999</ele>
        <time>2013-10-27T09:57:06Z</time>
      </trkpt>
      <trkpt lat="46.265035467222333" lon="9.211240857839584">
        <ele>1114.3099999999999</ele>
        <time>2013-10-27T09:57:23Z</time>
      </trkpt>
      <trkpt lat="46.26491074450314" lon="9.211245803162456">
        <ele>1114.79</ele>
        <time>2013-10-27T09:57:42Z</time>
      </trkpt>
      <trkpt lat="46.264762217178941" lon="9.211237337440252">
        <ele>1114.79</ele>
        <time>2013-10-27T09:58:07Z</time>
      </trkpt>
      <trkpt lat="46.264605391770601" lon="9.211253430694342">
        <ele>1114.79</ele>
        <time>2013-10-27T09:58:31Z</time>
      </trkpt>
      <trkpt lat="46.264536660164595" lon="9.211286036297679">
        <ele>1115.75</ele>
        <time>2013-10-27T09:58:57Z</time>
      </trkpt>
      <trkpt lat="46.264653671532869" lon="9.211256112903357">
        <ele>1115.75</ele>
        <time>2013-10-27T09:59:24Z</time>
      </trkpt>
      <trkpt lat="46.264814436435699" lon="9.211432216688991">
        <ele>1117.1900000000001</ele>
        <time>2013-10-27T09:59:48Z</time>
      </trkpt>
      <trkpt lat="46.264782249927521" lon="9.211628353223205">
        <ele>1120.0699999999999</ele>
        <time>2013-10-27T10:00:08Z</time>
      </trkpt>
      <trkpt lat="46.264736652374268" lon="9.211723487824202">
        <ele>1120.55</ele>
        <time>2013-10-27T10:00:27Z</time>
      </trkpt>
      <trkpt lat="46.26474067568779" lon="9.211820717900991">
        <ele>1123.4400000000001</ele>
        <time>2013-10-27T10:00:50Z</time>
      </trkpt>
      <trkpt lat="46.264679487794638" lon="9.211929347366095">
        <ele>1125.8399999999999</ele>
        <time>2013-10-27T10:01:07Z</time>
      </trkpt>
      <trkpt lat="46.264776550233364" lon="9.212122885510325">
        <ele>1128.24</ele>
        <time>2013-10-27T10:01:25Z</time>
      </trkpt>
      <trkpt lat="46.264771018177271" lon="9.212217601016164">
        <ele>1129.21</ele>
        <time>2013-10-27T10:01:39Z</time>
      </trkpt>
      <trkpt lat="46.264782920479774" lon="9.212305024266243">
        <ele>1132.0899999999999</ele>
        <time>2013-10-27T10:01:56Z</time>
      </trkpt>
      <trkpt lat="46.264686277136207" lon="9.212402170524001">
        <ele>1134.49</ele>
        <time>2013-10-27T10:02:10Z</time>
      </trkpt>
      <trkpt lat="46.264586700126529" lon="9.212370654568076">
        <ele>1134.97</ele>
        <time>2013-10-27T10:02:36Z</time>
      </trkpt>
      <trkpt lat="46.264633052051067" lon="9.212359758093953">
        <ele>1134.97</ele>
        <time>2013-10-27T10:02:56Z</time>
      </trkpt>
      <trkpt lat="46.264420319348574" lon="9.212412731721997">
        <ele>1134.97</ele>
        <time>2013-10-27T10:03:22Z</time>
      </trkpt>
      <trkpt lat="46.264466755092144" lon="9.212399739772081">
        <ele>1134.97</ele>
        <time>2013-10-27T10:03:41Z</time>
      </trkpt>
      <trkpt lat="46.264512352645397" lon="9.212429830804467">
        <ele>1134.97</ele>
        <time>2013-10-27T10:04:01Z</time>
      </trkpt>
      <trkpt lat="46.264567673206329" lon="9.212503591552377">
        <ele>1135.9400000000001</ele>
        <time>2013-10-27T10:04:21Z</time>
      </trkpt>
      <trkpt lat="46.26460824161768" lon="9.21258288435638">
        <ele>1136.9000000000001</ele>
        <time>2013-10-27T10:04:38Z</time>
      </trkpt>
      <trkpt lat="46.264615030959249" lon="9.212755635380745">
        <ele>1137.8599999999999</ele>
        <time>2013-10-27T10:04:54Z</time>
      </trkpt>
      <trkpt lat="46.264552753418684" lon="9.212901899591088">
        <ele>1137.8599999999999</ele>
        <time>2013-10-27T10:05:10Z</time>
      </trkpt>
      <trkpt lat="46.264529703184962" lon="9.213074734434485">
        <ele>1138.8199999999999</ele>
        <time>2013-10-27T10:05:24Z</time>
      </trkpt>
      <trkpt lat="46.264363070949912" lon="9.213215885683894">
        <ele>1139.78</ele>
        <time>2013-10-27T10:05:43Z</time>
      </trkpt>
      <trkpt lat="46.264268858358264" lon="9.213286628946662">
        <ele>1140.74</ele>
        <time>2013-10-27T10:06:03Z</time>
      </trkpt>
      <trkpt lat="46.264267936348915" lon="9.213464744389057">
        <ele>1141.7</ele>
        <time>2013-10-27T10:06:19Z</time>
      </trkpt>
      <trkpt lat="46.264216639101505" lon="9.213507324457169">
        <ele>1143.1400000000001</ele>
        <time>2013-10-27T10:06:29Z</time>
      </trkpt>
      <trkpt lat="46.264138435944915" lon="9.213590892031789">
        <ele>1144.1099999999999</ele>
        <time>2013-10-27T10:06:42Z</time>
      </trkpt>
      <trkpt lat="46.264081355184317" lon="9.213748890906572">
        <ele>1145.55</ele>
        <time>2013-10-27T10:06:58Z</time>
      </trkpt>
      <trkpt lat="46.264035757631063" lon="9.213897585868835">
        <ele>1147.95</ele>
        <time>2013-10-27T10:07:15Z</time>
      </trkpt>
      <trkpt lat="46.264065681025386" lon="9.214091459289193">
        <ele>1149.3900000000001</ele>
        <time>2013-10-27T10:07:28Z</time>
      </trkpt>
      <trkpt lat="46.264022262766957" lon="9.21419246122241">
        <ele>1151.8</ele>
        <time>2013-10-27T10:07:40Z</time>
      </trkpt>
      <trkpt lat="46.26399745233357" lon="9.214318692684174">
        <ele>1153.24</ele>
        <time>2013-10-27T10:07:54Z</time>
      </trkpt>
      <trkpt lat="46.263939868658781" lon="9.21445531770587">
        <ele>1155.1600000000001</ele>
        <time>2013-10-27T10:08:08Z</time>
      </trkpt>
      <trkpt lat="46.263897456228733" lon="9.214562606066465">
        <ele>1156.5999999999999</ele>
        <time>2013-10-27T10:08:20Z</time>
      </trkpt>
      <trkpt lat="46.263887565582991" lon="9.214588757604361">
        <ele>1157.5599999999999</ele>
        <time>2013-10-27T10:08:25Z</time>
      </trkpt>
      <trkpt lat="46.263910951092839" lon="9.214696297422051">
        <ele>1159.49</ele>
        <time>2013-10-27T10:08:39Z</time>
      </trkpt>
      <trkpt lat="46.263893935829401" lon="9.21482227742672">
        <ele>1160.9300000000001</ele>
        <time>2013-10-27T10:08:53Z</time>
      </trkpt>
      <trkpt lat="46.263871807605028" lon="9.214919004589319">
        <ele>1162.8499999999999</ele>
        <time>2013-10-27T10:09:05Z</time>
      </trkpt>
      <trkpt lat="46.263847080990672" lon="9.214955717325211">
        <ele>1162.8499999999999</ele>
        <time>2013-10-27T10:09:09Z</time>
      </trkpt>
      <trkpt lat="46.263850517570972" lon="9.215101646259427">
        <ele>1162.8499999999999</ele>
        <time>2013-10-27T10:09:19Z</time>
      </trkpt>
      <trkpt lat="46.263822270557284" lon="9.215188734233379">
        <ele>1164.77</ele>
        <time>2013-10-27T10:09:33Z</time>
      </trkpt>
      <trkpt lat="46.263796873390675" lon="9.215306919068098">
        <ele>1167.1800000000001</ele>
        <time>2013-10-27T10:09:48Z</time>
      </trkpt>
      <trkpt lat="46.263716826215386" lon="9.215335501357913">
        <ele>1169.5799999999999</ele>
        <time>2013-10-27T10:10:05Z</time>
      </trkpt>
      <trkpt lat="46.263717329129577" lon="9.215376321226358">
        <ele>1170.0599999999999</ele>
        <time>2013-10-27T10:10:16Z</time>
      </trkpt>
      <trkpt lat="46.263721017166972" lon="9.215424349531531">
        <ele>1172.95</ele>
        <time>2013-10-27T10:10:31Z</time>
      </trkpt>
      <trkpt lat="46.263851104304194" lon="9.215473802760243">
        <ele>1174.8699999999999</ele>
        <time>2013-10-27T10:10:47Z</time>
      </trkpt>
      <trkpt lat="46.263935510069132" lon="9.215559298172593">
        <ele>1177.75</ele>
        <time>2013-10-27T10:11:05Z</time>
      </trkpt>
      <trkpt lat="46.263976497575641" lon="9.215562818571925">
        <ele>1178.23</ele>
        <time>2013-10-27T10:11:23Z</time>
      </trkpt>
      <trkpt lat="46.264006923884153" lon="9.215459218248725">
        <ele>1177.75</ele>
        <time>2013-10-27T10:11:45Z</time>
      </trkpt>
      <trkpt lat="46.264056293293834" lon="9.215575978159905">
        <ele>1178.23</ele>
        <time>2013-10-27T10:12:08Z</time>
      </trkpt>
      <trkpt lat="46.264047492295504" lon="9.215730288997293">
        <ele>1180.1600000000001</ele>
        <time>2013-10-27T10:12:25Z</time>
      </trkpt>
      <trkpt lat="46.263994434848428" lon="9.215875379741192">
        <ele>1181.5999999999999</ele>
        <time>2013-10-27T10:12:42Z</time>
      </trkpt>
      <trkpt lat="46.263917237520218" lon="9.21606782823801">
        <ele>1182.0799999999999</ele>
        <time>2013-10-27T10:12:57Z</time>
      </trkpt>
      <trkpt lat="46.263920506462455" lon="9.216183079406619">
        <ele>1183.04</ele>
        <time>2013-10-27T10:13:13Z</time>
      </trkpt>
      <trkpt lat="46.263936851173639" lon="9.216340491548181">
        <ele>1184.48</ele>
        <time>2013-10-27T10:13:29Z</time>
      </trkpt>
      <trkpt lat="46.263962835073471" lon="9.216301515698433">
        <ele>1184.48</ele>
        <time>2013-10-27T10:13:50Z</time>
      </trkpt>
      <trkpt lat="46.263939281925559" lon="9.216481056064367">
        <ele>1184.48</ele>
        <time>2013-10-27T10:14:06Z</time>
      </trkpt>
      <trkpt lat="46.26396962441504" lon="9.216634528711438">
        <ele>1185.9200000000001</ele>
        <time>2013-10-27T10:14:22Z</time>
      </trkpt>
      <trkpt lat="46.263965601101518" lon="9.216760508716106">
        <ele>1186.8800000000001</ele>
        <time>2013-10-27T10:14:42Z</time>
      </trkpt>
      <trkpt lat="46.263948334380984" lon="9.216770566999912">
        <ele>1186.8800000000001</ele>
        <time>2013-10-27T10:14:56Z</time>
      </trkpt>
      <trkpt lat="46.263928972184658" lon="9.216804010793567">
        <ele>1187.3699999999999</ele>
        <time>2013-10-27T10:15:09Z</time>
      </trkpt>
      <trkpt lat="46.263948082923889" lon="9.216954801231623">
        <ele>1188.8099999999999</ele>
        <time>2013-10-27T10:15:25Z</time>
      </trkpt>
      <trkpt lat="46.263899048790336" lon="9.217134676873684">
        <ele>1190.25</ele>
        <time>2013-10-27T10:15:43Z</time>
      </trkpt>
      <trkpt lat="46.26392369158566" lon="9.217229560017586">
        <ele>1191.6900000000001</ele>
        <time>2013-10-27T10:16:00Z</time>
      </trkpt>
      <trkpt lat="46.264077080413699" lon="9.217373561114073">
        <ele>1193.6099999999999</ele>
        <time>2013-10-27T10:16:18Z</time>
      </trkpt>
      <trkpt lat="46.264164838939905" lon="9.217547401785851">
        <ele>1194.0899999999999</ele>
        <time>2013-10-27T10:16:34Z</time>
      </trkpt>
      <trkpt lat="46.264128042384982" lon="9.21766759827733">
        <ele>1194.5799999999999</ele>
        <time>2013-10-27T10:16:50Z</time>
      </trkpt>
      <trkpt lat="46.264108261093497" lon="9.217827524989843">
        <ele>1193.1300000000001</ele>
        <time>2013-10-27T10:17:04Z</time>
      </trkpt>
      <trkpt lat="46.264125695452094" lon="9.217935483902693">
        <ele>1193.1300000000001</ele>
        <time>2013-10-27T10:17:16Z</time>
      </trkpt>
      <trkpt lat="46.264137513935566" lon="9.218170596286655">
        <ele>1193.1300000000001</ele>
        <time>2013-10-27T10:17:30Z</time>
      </trkpt>
      <trkpt lat="46.264115888625383" lon="9.218270927667618">
        <ele>1193.1300000000001</ele>
        <time>2013-10-27T10:17:37Z</time>
      </trkpt>
      <trkpt lat="46.264129802584648" lon="9.218469578772783">
        <ele>1194.0899999999999</ele>
        <time>2013-10-27T10:17:50Z</time>
      </trkpt>
      <trkpt lat="46.264111194759607" lon="9.21859941445291">
        <ele>1194.5799999999999</ele>
        <time>2013-10-27T10:17:57Z</time>
      </trkpt>
      <trkpt lat="46.264085546135902" lon="9.218730088323355">
        <ele>1196.02</ele>
        <time>2013-10-27T10:18:08Z</time>
      </trkpt>
      <trkpt lat="46.264051431789994" lon="9.218839388340712">
        <ele>1196.98</ele>
        <time>2013-10-27T10:18:20Z</time>
      </trkpt>
      <trkpt lat="46.264078170061111" lon="9.218854643404484">
        <ele>1197.46</ele>
        <time>2013-10-27T10:18:33Z</time>
      </trkpt>
      <trkpt lat="46.264074482023716" lon="9.21888766810298">
        <ele>1197.46</ele>
        <time>2013-10-27T10:18:54Z</time>
      </trkpt>
      <trkpt lat="46.264028381556273" lon="9.218903006985784">
        <ele>1196.5</ele>
        <time>2013-10-27T10:19:13Z</time>
      </trkpt>
      <trkpt lat="46.263988651335239" lon="9.218933936208487">
        <ele>1196.02</ele>
        <time>2013-10-27T10:19:25Z</time>
      </trkpt>
      <trkpt lat="46.263947580009699" lon="9.219032423570752">
        <ele>1197.46</ele>
        <time>2013-10-27T10:19:40Z</time>
      </trkpt>
      <trkpt lat="46.263934168964624" lon="9.21903963200748">
        <ele>1197.9400000000001</ele>
        <time>2013-10-27T10:19:50Z</time>
      </trkpt>
      <trkpt lat="46.263920841738582" lon="9.219042230397463">
        <ele>1198.9000000000001</ele>
        <time>2013-10-27T10:20:06Z</time>
      </trkpt>
      <trkpt lat="46.263872142881155" lon="9.218995291739702">
        <ele>1198.9000000000001</ele>
        <time>2013-10-27T10:20:17Z</time>
      </trkpt>
      <trkpt lat="46.263786731287837" lon="9.219016749411821">
        <ele>1198.4200000000001</ele>
        <time>2013-10-27T10:20:29Z</time>
      </trkpt>
      <trkpt lat="46.263655135408044" lon="9.219178101047874">
        <ele>1200.3399999999999</ele>
        <time>2013-10-27T10:20:47Z</time>
      </trkpt>
      <trkpt lat="46.263531167060137" lon="9.219354707747698">
        <ele>1202.27</ele>
        <time>2013-10-27T10:21:07Z</time>
      </trkpt>
      <trkpt lat="46.263368055224419" lon="9.219566937536001">
        <ele>1204.1900000000001</ele>
        <time>2013-10-27T10:21:30Z</time>
      </trkpt>
      <trkpt lat="46.263304939493537" lon="9.219661150127649">
        <ele>1206.1099999999999</ele>
        <time>2013-10-27T10:21:48Z</time>
      </trkpt>
      <trkpt lat="46.263147359713912" lon="9.219768522307277">
        <ele>1209</ele>
        <time>2013-10-27T10:22:10Z</time>
      </trkpt>
      <trkpt lat="46.26305247657001" lon="9.219824178144336">
        <ele>1210.9200000000001</ele>
        <time>2013-10-27T10:22:27Z</time>
      </trkpt>
      <trkpt lat="46.262969328090549" lon="9.219938423484564">
        <ele>1213.3199999999999</ele>
        <time>2013-10-27T10:22:44Z</time>
      </trkpt>
      <trkpt lat="46.262918449938297" lon="9.220096254721284">
        <ele>1214.76</ele>
        <time>2013-10-27T10:22:59Z</time>
      </trkpt>
      <trkpt lat="46.262811664491892" lon="9.220184180885553">
        <ele>1215.72</ele>
        <time>2013-10-27T10:23:16Z</time>
      </trkpt>
      <trkpt lat="46.262750308960676" lon="9.220260791480541">
        <ele>1218.6099999999999</ele>
        <time>2013-10-27T10:23:33Z</time>
      </trkpt>
      <trkpt lat="46.26264838501811" lon="9.220294905826449">
        <ele>1220.53</ele>
        <time>2013-10-27T10:23:48Z</time>
      </trkpt>
      <trkpt lat="46.262586610391736" lon="9.220358189195395">
        <ele>1222.45</ele>
        <time>2013-10-27T10:24:03Z</time>
      </trkpt>
      <trkpt lat="46.262555010616779" lon="9.220434967428446">
        <ele>1224.8599999999999</ele>
        <time>2013-10-27T10:24:16Z</time>
      </trkpt>
      <trkpt lat="46.262539168819785" lon="9.220560695976019">
        <ele>1225.8199999999999</ele>
        <time>2013-10-27T10:24:30Z</time>
      </trkpt>
      <trkpt lat="46.262466413900256" lon="9.220658093690872">
        <ele>1226.3</ele>
        <time>2013-10-27T10:24:46Z</time>
      </trkpt>
      <trkpt lat="46.262406231835485" lon="9.220716096460819">
        <ele>1228.22</ele>
        <time>2013-10-27T10:25:01Z</time>
      </trkpt>
      <trkpt lat="46.262361723929644" lon="9.22073126770556">
        <ele>1228.22</ele>
        <time>2013-10-27T10:25:14Z</time>
      </trkpt>
      <trkpt lat="46.262200875207782" lon="9.220826905220747">
        <ele>1228.7</ele>
        <time>2013-10-27T10:25:30Z</time>
      </trkpt>
      <trkpt lat="46.262085121124983" lon="9.220889350399375">
        <ele>1229.6600000000001</ele>
        <time>2013-10-27T10:25:45Z</time>
      </trkpt>
      <trkpt lat="46.261986214667559" lon="9.220916256308556">
        <ele>1232.0699999999999</ele>
        <time>2013-10-27T10:26:03Z</time>
      </trkpt>
      <trkpt lat="46.261837854981422" lon="9.220889015123248">
        <ele>1233.51</ele>
        <time>2013-10-27T10:26:20Z</time>
      </trkpt>
      <trkpt lat="46.261667031794786" lon="9.220907958224416">
        <ele>1234.47</ele>
        <time>2013-10-27T10:26:37Z</time>
      </trkpt>
      <trkpt lat="46.261597461998463" lon="9.220993621274829">
        <ele>1235.4300000000001</ele>
        <time>2013-10-27T10:26:51Z</time>
      </trkpt>
      <trkpt lat="46.261564940214157" lon="9.221090516075492">
        <ele>1236.8699999999999</ele>
        <time>2013-10-27T10:27:05Z</time>
      </trkpt>
      <trkpt lat="46.261466620489955" lon="9.221124546602368">
        <ele>1237.8299999999999</ele>
        <time>2013-10-27T10:27:19Z</time>
      </trkpt>
      <trkpt lat="46.261421693488955" lon="9.221176011487842">
        <ele>1239.76</ele>
        <time>2013-10-27T10:27:31Z</time>
      </trkpt>
      <trkpt lat="46.261357488110662" lon="9.221231583505869">
        <ele>1241.2</ele>
        <time>2013-10-27T10:27:44Z</time>
      </trkpt>
      <trkpt lat="46.261319350451231" lon="9.221308110281825">
        <ele>1243.1199999999999</ele>
        <time>2013-10-27T10:27:58Z</time>
      </trkpt>
      <trkpt lat="46.261278362944722" lon="9.221429564058781">
        <ele>1244.0799999999999</ele>
        <time>2013-10-27T10:28:14Z</time>
      </trkpt>
      <trkpt lat="46.261205524206161" lon="9.221581527963281">
        <ele>1245.04</ele>
        <time>2013-10-27T10:28:31Z</time>
      </trkpt>
      <trkpt lat="46.261206865310669" lon="9.221711866557598">
        <ele>1246.97</ele>
        <time>2013-10-27T10:28:50Z</time>
      </trkpt>
      <trkpt lat="46.261141654103994" lon="9.221874475479126">
        <ele>1248.8900000000001</ele>
        <time>2013-10-27T10:29:06Z</time>
      </trkpt>
      <trkpt lat="46.261070156469941" lon="9.222007999196649">
        <ele>1250.8099999999999</ele>
        <time>2013-10-27T10:29:25Z</time>
      </trkpt>
      <trkpt lat="46.261012153699994" lon="9.222128698602319">
        <ele>1252.74</ele>
        <time>2013-10-27T10:29:41Z</time>
      </trkpt>
      <trkpt lat="46.260849628597498" lon="9.222198352217674">
        <ele>1254.1800000000001</ele>
        <time>2013-10-27T10:30:00Z</time>
      </trkpt>
      <trkpt lat="46.26073781400919" lon="9.22230807133019">
        <ele>1255.6199999999999</ele>
        <time>2013-10-27T10:30:19Z</time>
      </trkpt>
      <trkpt lat="46.260608565062284" lon="9.222401361912489">
        <ele>1257.0599999999999</ele>
        <time>2013-10-27T10:30:37Z</time>
      </trkpt>
      <trkpt lat="46.260468168184161" lon="9.222441175952554">
        <ele>1259.46</ele>
        <time>2013-10-27T10:30:56Z</time>
      </trkpt>
      <trkpt lat="46.260331124067307" lon="9.222460621967912">
        <ele>1259.9400000000001</ele>
        <time>2013-10-27T10:31:12Z</time>
      </trkpt>
      <trkpt lat="46.260284772142768" lon="9.222568916156888">
        <ele>1261.8699999999999</ele>
        <time>2013-10-27T10:31:27Z</time>
      </trkpt>
      <trkpt lat="46.260226517915726" lon="9.222697243094444">
        <ele>1263.79</ele>
        <time>2013-10-27T10:31:40Z</time>
      </trkpt>
      <trkpt lat="46.260192487388849" lon="9.222801933065057">
        <ele>1264.75</ele>
        <time>2013-10-27T10:31:54Z</time>
      </trkpt>
      <trkpt lat="46.260146973654628" lon="9.222840070724487">
        <ele>1266.1900000000001</ele>
        <time>2013-10-27T10:32:01Z</time>
      </trkpt>
      <trkpt lat="46.260141525417566" lon="9.222868485376239">
        <ele>1265.71</ele>
        <time>2013-10-27T10:32:16Z</time>
      </trkpt>
      <trkpt lat="46.260039852932096" lon="9.222866306081414">
        <ele>1267.1600000000001</ele>
        <time>2013-10-27T10:32:29Z</time>
      </trkpt>
      <trkpt lat="46.260005570948124" lon="9.222886674106121">
        <ele>1268.1199999999999</ele>
        <time>2013-10-27T10:32:33Z</time>
      </trkpt>
      <trkpt lat="46.25990180298686" lon="9.222995135933161">
        <ele>1270.04</ele>
        <time>2013-10-27T10:32:47Z</time>
      </trkpt>
      <trkpt lat="46.259831143543124" lon="9.223155062645674">
        <ele>1272.4400000000001</ele>
        <time>2013-10-27T10:33:00Z</time>
      </trkpt>
      <trkpt lat="46.259782193228602" lon="9.223198397085071">
        <ele>1272.9200000000001</ele>
        <time>2013-10-27T10:33:10Z</time>
      </trkpt>
      <trkpt lat="46.259735589846969" lon="9.223315073177218">
        <ele>1272.9200000000001</ele>
        <time>2013-10-27T10:33:21Z</time>
      </trkpt>
      <trkpt lat="46.259687980636954" lon="9.223430911079049">
        <ele>1275.3299999999999</ele>
        <time>2013-10-27T10:33:34Z</time>
      </trkpt>
      <trkpt lat="46.259620506316423" lon="9.22355898655951">
        <ele>1276.29</ele>
        <time>2013-10-27T10:33:47Z</time>
      </trkpt>
      <trkpt lat="46.259562419727445" lon="9.223578181117773">
        <ele>1277.25</ele>
        <time>2013-10-27T10:33:59Z</time>
      </trkpt>
      <trkpt lat="46.259558061137795" lon="9.223590418696404">
        <ele>1276.77</ele>
        <time>2013-10-27T10:34:27Z</time>
      </trkpt>
      <trkpt lat="46.259485306218266" lon="9.223660826683044">
        <ele>1278.21</ele>
        <time>2013-10-27T10:34:45Z</time>
      </trkpt>
      <trkpt lat="46.259456053376198" lon="9.223759900778532">
        <ele>1279.1700000000001</ele>
        <time>2013-10-27T10:35:03Z</time>
      </trkpt>
      <trkpt lat="46.259401654824615" lon="9.223876409232616">
        <ele>1279.6500000000001</ele>
        <time>2013-10-27T10:35:12Z</time>
      </trkpt>
      <trkpt lat="46.259352536872029" lon="9.224026026204228">
        <ele>1281.5699999999999</ele>
        <time>2013-10-27T10:35:25Z</time>
      </trkpt>
      <trkpt lat="46.259307693690062" lon="9.224102469161153">
        <ele>1282.54</ele>
        <time>2013-10-27T10:35:32Z</time>
      </trkpt>
      <trkpt lat="46.259276513010263" lon="9.224152760580182">
        <ele>1283.5</ele>
        <time>2013-10-27T10:35:36Z</time>
      </trkpt>
      <trkpt lat="46.259250361472368" lon="9.224189389497042">
        <ele>1284.46</ele>
        <time>2013-10-27T10:35:40Z</time>
      </trkpt>
      <trkpt lat="46.259224461391568" lon="9.224235573783517">
        <ele>1283.98</ele>
        <time>2013-10-27T10:35:44Z</time>
      </trkpt>
      <trkpt lat="46.259062606841326" lon="9.2243676725775">
        <ele>1283.98</ele>
        <time>2013-10-27T10:36:00Z</time>
      </trkpt>
      <trkpt lat="46.259003765881062" lon="9.224411677569151">
        <ele>1283.98</ele>
        <time>2013-10-27T10:36:05Z</time>
      </trkpt>
      <trkpt lat="46.258974093943834" lon="9.224442942067981">
        <ele>1282.54</ele>
        <time>2013-10-27T10:36:08Z</time>
      </trkpt>
      <trkpt lat="46.25883562490344" lon="9.224475547671318">
        <ele>1282.0599999999999</ele>
        <time>2013-10-27T10:36:22Z</time>
      </trkpt>
      <trkpt lat="46.258725319057703" lon="9.224519720301032">
        <ele>1281.5699999999999</ele>
        <time>2013-10-27T10:36:31Z</time>
      </trkpt>
      <trkpt lat="46.258673937991261" lon="9.224540591239929">
        <ele>1281.0899999999999</ele>
        <time>2013-10-27T10:36:35Z</time>
      </trkpt>
      <trkpt lat="46.258609481155872" lon="9.224607814103365">
        <ele>1281.0899999999999</ele>
        <time>2013-10-27T10:36:42Z</time>
      </trkpt>
      <trkpt lat="46.258586430922151" lon="9.2246129270643">
        <ele>1281.0899999999999</ele>
        <time>2013-10-27T10:36:44Z</time>
      </trkpt>
      <trkpt lat="46.258521471172571" lon="9.224626841023564">
        <ele>1280.6099999999999</ele>
        <time>2013-10-27T10:36:49Z</time>
      </trkpt>
      <trkpt lat="46.258438909426332" lon="9.224584009498358">
        <ele>1279.6500000000001</ele>
        <time>2013-10-27T10:37:04Z</time>
      </trkpt>
      <trkpt lat="46.258392557501793" lon="9.224571688100696">
        <ele>1279.1700000000001</ele>
        <time>2013-10-27T10:37:19Z</time>
      </trkpt>
      <trkpt lat="46.258248891681433" lon="9.2245611269027">
        <ele>1278.6900000000001</ele>
        <time>2013-10-27T10:37:33Z</time>
      </trkpt>
      <trkpt lat="46.258210921660066" lon="9.224534556269646">
        <ele>1277.73</ele>
        <time>2013-10-27T10:37:46Z</time>
      </trkpt>
      <trkpt lat="46.258243611082435" lon="9.224527096375823">
        <ele>1277.73</ele>
        <time>2013-10-27T10:37:50Z</time>
      </trkpt>
      <trkpt lat="46.258271774277091" lon="9.224525419995189">
        <ele>1277.73</ele>
        <time>2013-10-27T10:38:06Z</time>
      </trkpt>
      <trkpt lat="46.258244281634688" lon="9.22454696148634">
        <ele>1277.73</ele>
        <time>2013-10-27T10:38:22Z</time>
      </trkpt>
      <trkpt lat="46.258124336600304" lon="9.224519385024905">
        <ele>1276.77</ele>
        <time>2013-10-27T10:38:32Z</time>
      </trkpt>
      <trkpt lat="46.258099274709821" lon="9.22451376914978">
        <ele>1276.29</ele>
        <time>2013-10-27T10:38:34Z</time>
      </trkpt>
      <trkpt lat="46.258083181455731" lon="9.224386280402541">
        <ele>1276.29</ele>
        <time>2013-10-27T10:38:47Z</time>
      </trkpt>
      <trkpt lat="46.258094999939203" lon="9.224404469132423">
        <ele>1276.77</ele>
        <time>2013-10-27T10:39:18Z</time>
      </trkpt>
      <trkpt lat="46.25810706987977" lon="9.224491976201534">
        <ele>1276.77</ele>
        <time>2013-10-27T10:39:27Z</time>
      </trkpt>
      <trkpt lat="46.258109668269753" lon="9.224520139396191">
        <ele>1276.77</ele>
        <time>2013-10-27T10:39:29Z</time>
      </trkpt>
      <trkpt lat="46.258002044633031" lon="9.224621392786503">
        <ele>1277.25</ele>
        <time>2013-10-27T10:39:44Z</time>
      </trkpt>
      <trkpt lat="46.257893415167928" lon="9.224707558751106">
        <ele>1275.8099999999999</ele>
        <time>2013-10-27T10:39:55Z</time>
      </trkpt>
      <trkpt lat="46.257911352440715" lon="9.224720885977149">
        <ele>1274.8499999999999</ele>
        <time>2013-10-27T10:40:15Z</time>
      </trkpt>
      <trkpt lat="46.257906826213002" lon="9.224674617871642">
        <ele>1274.8499999999999</ele>
        <time>2013-10-27T10:40:45Z</time>
      </trkpt>
      <trkpt lat="46.257910178974271" lon="9.224682999774814">
        <ele>1274.8499999999999</ele>
        <time>2013-10-27T10:41:02Z</time>
      </trkpt>
      <trkpt lat="46.257943706586957" lon="9.224732117727399">
        <ele>1274.8499999999999</ele>
        <time>2013-10-27T10:41:24Z</time>
      </trkpt>
      <trkpt lat="46.257939599454403" lon="9.224865138530731">
        <ele>1274.8499999999999</ele>
        <time>2013-10-27T10:41:34Z</time>
      </trkpt>
      <trkpt lat="46.257943958044052" lon="9.224951388314366">
        <ele>1274.8499999999999</ele>
        <time>2013-10-27T10:41:49Z</time>
      </trkpt>
      <trkpt lat="46.257988968864083" lon="9.224954238161445">
        <ele>1274.8499999999999</ele>
        <time>2013-10-27T10:42:09Z</time>
      </trkpt>
      <trkpt lat="46.258013527840376" lon="9.224959351122379">
        <ele>1274.8499999999999</ele>
        <time>2013-10-27T10:42:23Z</time>
      </trkpt>
      <trkpt lat="46.257989052683115" lon="9.225026657804847">
        <ele>1274.3599999999999</ele>
        <time>2013-10-27T10:42:34Z</time>
      </trkpt>
      <trkpt lat="46.257964326068759" lon="9.225103855133057">
        <ele>1274.3599999999999</ele>
        <time>2013-10-27T10:42:47Z</time>
      </trkpt>
      <trkpt lat="46.257938928902149" lon="9.225126905366778">
        <ele>1274.3599999999999</ele>
        <time>2013-10-27T10:43:04Z</time>
      </trkpt>
      <trkpt lat="46.257911352440715" lon="9.225102346390486">
        <ele>1274.3599999999999</ele>
        <time>2013-10-27T10:43:29Z</time>
      </trkpt>
      <trkpt lat="46.257916213944554" lon="9.225062699988484">
        <ele>1274.3599999999999</ele>
        <time>2013-10-27T10:43:46Z</time>
      </trkpt>
      <trkpt lat="46.257924009114504" lon="9.225077452138066">
        <ele>1274.3599999999999</ele>
        <time>2013-10-27T10:43:48Z</time>
      </trkpt>
      <trkpt lat="46.257958794012666" lon="9.225225308910012">
        <ele>1274.3599999999999</ele>
        <time>2013-10-27T10:44:00Z</time>
      </trkpt>
      <trkpt lat="46.257946221157908" lon="9.225282305851579">
        <ele>1275.3299999999999</ele>
        <time>2013-10-27T10:44:10Z</time>
      </trkpt>
      <trkpt lat="46.257827868685126" lon="9.225369226187468">
        <ele>1276.29</ele>
        <time>2013-10-27T10:44:26Z</time>
      </trkpt>
      <trkpt lat="46.257789647206664" lon="9.225435862317681">
        <ele>1276.29</ele>
        <time>2013-10-27T10:44:33Z</time>
      </trkpt>
      <trkpt lat="46.257646651938558" lon="9.225616073235869">
        <ele>1277.25</ele>
        <time>2013-10-27T10:44:46Z</time>
      </trkpt>
      <trkpt lat="46.257547326385975" lon="9.225710704922676">
        <ele>1277.73</ele>
        <time>2013-10-27T10:44:59Z</time>
      </trkpt>
      <trkpt lat="46.257582949474454" lon="9.225709699094296">
        <ele>1277.73</ele>
        <time>2013-10-27T10:45:12Z</time>
      </trkpt>
      <trkpt lat="46.257545063272119" lon="9.22571137547493">
        <ele>1277.73</ele>
        <time>2013-10-27T10:45:26Z</time>
      </trkpt>
      <trkpt lat="46.257484126836061" lon="9.225762085989118">
        <ele>1277.73</ele>
        <time>2013-10-27T10:45:34Z</time>
      </trkpt>
      <trkpt lat="46.257383627817035" lon="9.225865518674254">
        <ele>1276.29</ele>
        <time>2013-10-27T10:45:47Z</time>
      </trkpt>
      <trkpt lat="46.257355464622378" lon="9.225865351036191">
        <ele>1276.29</ele>
        <time>2013-10-27T10:46:04Z</time>
      </trkpt>
      <trkpt lat="46.257347417995334" lon="9.225897789001465">
        <ele>1276.29</ele>
        <time>2013-10-27T10:46:21Z</time>
      </trkpt>
      <trkpt lat="46.257301149889827" lon="9.226070120930672">
        <ele>1275.3299999999999</ele>
        <time>2013-10-27T10:46:39Z</time>
      </trkpt>
      <trkpt lat="46.257291007786989" lon="9.22612770460546">
        <ele>1275.3299999999999</ele>
        <time>2013-10-27T10:47:03Z</time>
      </trkpt>
      <trkpt lat="46.257194448262453" lon="9.226229544728994">
        <ele>1274.8499999999999</ele>
        <time>2013-10-27T10:47:20Z</time>
      </trkpt>
      <trkpt lat="46.257071066647768" lon="9.226329457014799">
        <ele>1274.3599999999999</ele>
        <time>2013-10-27T10:47:37Z</time>
      </trkpt>
      <trkpt lat="46.256893370300531" lon="9.226568676531315">
        <ele>1274.3599999999999</ele>
        <time>2013-10-27T10:47:55Z</time>
      </trkpt>
      <trkpt lat="46.256889598444104" lon="9.226553337648511">
        <ele>1273.8800000000001</ele>
        <time>2013-10-27T10:48:10Z</time>
      </trkpt>
      <trkpt lat="46.25689915381372" lon="9.226419059559703">
        <ele>1273.8800000000001</ele>
        <time>2013-10-27T10:48:33Z</time>
      </trkpt>
      <trkpt lat="46.256781304255128" lon="9.226627349853516">
        <ele>1273.8800000000001</ele>
        <time>2013-10-27T10:48:50Z</time>
      </trkpt>
      <trkpt lat="46.256712405011058" lon="9.226755928248167">
        <ele>1273.8800000000001</ele>
        <time>2013-10-27T10:49:02Z</time>
      </trkpt>
      <trkpt lat="46.25668709166348" lon="9.22689045779407">
        <ele>1273.8800000000001</ele>
        <time>2013-10-27T10:49:16Z</time>
      </trkpt>
      <trkpt lat="46.25666169449687" lon="9.226903533563018">
        <ele>1273.8800000000001</ele>
        <time>2013-10-27T10:49:18Z</time>
      </trkpt>
      <trkpt lat="46.256613917648792" lon="9.226964889094234">
        <ele>1273.8800000000001</ele>
        <time>2013-10-27T10:49:24Z</time>
      </trkpt>
      <trkpt lat="46.256578546017408" lon="9.226989364251494">
        <ele>1273.8800000000001</ele>
        <time>2013-10-27T10:49:39Z</time>
      </trkpt>
      <trkpt lat="46.256557423621416" lon="9.226994393393397">
        <ele>1273.8800000000001</ele>
        <time>2013-10-27T10:49:57Z</time>
      </trkpt>
      <trkpt lat="46.256543174386024" lon="9.226987855508924">
        <ele>1273.8800000000001</ele>
        <time>2013-10-27T10:50:22Z</time>
      </trkpt>
      <trkpt lat="46.256537223234773" lon="9.226995399221778">
        <ele>1273.8800000000001</ele>
        <time>2013-10-27T10:50:23Z</time>
      </trkpt>
      <trkpt lat="46.256498834118247" lon="9.226991711184382">
        <ele>1273.8800000000001</ele>
        <time>2013-10-27T10:50:42Z</time>
      </trkpt>
      <trkpt lat="46.256501264870167" lon="9.226969666779041">
        <ele>1273.4000000000001</ele>
        <time>2013-10-27T10:51:10Z</time>
      </trkpt>
      <trkpt lat="46.256507551297545" lon="9.226956171914935">
        <ele>1274.3599999999999</ele>
        <time>2013-10-27T10:51:31Z</time>
      </trkpt>
      <trkpt lat="46.256634201854467" lon="9.226987101137638">
        <ele>1275.3299999999999</ele>
        <time>2013-10-27T10:51:50Z</time>
      </trkpt>
      <trkpt lat="46.256619784981012" lon="9.227000763639808">
        <ele>1275.3299999999999</ele>
        <time>2013-10-27T10:52:05Z</time>
      </trkpt>
      <trkpt lat="46.256679212674499" lon="9.226919878274202">
        <ele>1276.29</ele>
        <time>2013-10-27T10:52:15Z</time>
      </trkpt>
      <trkpt lat="46.256756410002708" lon="9.226794987916946">
        <ele>1276.29</ele>
        <time>2013-10-27T10:52:27Z</time>
      </trkpt>
      <trkpt lat="46.256794799119234" lon="9.226644868031144">
        <ele>1276.29</ele>
        <time>2013-10-27T10:52:42Z</time>
      </trkpt>
      <trkpt lat="46.25683318823576" lon="9.226584015414119">
        <ele>1276.29</ele>
        <time>2013-10-27T10:52:50Z</time>
      </trkpt>
      <trkpt lat="46.256877947598696" lon="9.226538920775056">
        <ele>1276.29</ele>
        <time>2013-10-27T10:52:53Z</time>
      </trkpt>
      <trkpt lat="46.25682438723743" lon="9.226387375965715">
        <ele>1276.29</ele>
        <time>2013-10-27T10:53:08Z</time>
      </trkpt>
      <trkpt lat="46.25684542581439" lon="9.226325433701277">
        <ele>1276.29</ele>
        <time>2013-10-27T10:53:29Z</time>
      </trkpt>
      <trkpt lat="46.256858166307211" lon="9.226271035149694">
        <ele>1276.29</ele>
        <time>2013-10-27T10:53:42Z</time>
      </trkpt>
      <trkpt lat="46.25689378939569" lon="9.226232646033168">
        <ele>1276.29</ele>
        <time>2013-10-27T10:53:52Z</time>
      </trkpt>
      <trkpt lat="46.256982637569308" lon="9.226141534745693">
        <ele>1276.77</ele>
        <time>2013-10-27T10:54:06Z</time>
      </trkpt>
      <trkpt lat="46.256978195160627" lon="9.226217223331332">
        <ele>1277.25</ele>
        <time>2013-10-27T10:54:27Z</time>
      </trkpt>
      <trkpt lat="46.256956988945603" lon="9.226402631029487">
        <ele>1277.73</ele>
        <time>2013-10-27T10:54:44Z</time>
      </trkpt>
      <trkpt lat="46.256938045844436" lon="9.226261479780078">
        <ele>1277.73</ele>
        <time>2013-10-27T10:55:02Z</time>
      </trkpt>
      <trkpt lat="46.256993534043431" lon="9.226063247770071">
        <ele>1277.73</ele>
        <time>2013-10-27T10:55:14Z</time>
      </trkpt>
      <trkpt lat="46.257071066647768" lon="9.225907931104302">
        <ele>1276.77</ele>
        <time>2013-10-27T10:55:29Z</time>
      </trkpt>
      <trkpt lat="46.257113479077816" lon="9.225759236142039">
        <ele>1276.77</ele>
        <time>2013-10-27T10:55:40Z</time>
      </trkpt>
      <trkpt lat="46.257200315594673" lon="9.225581539794803">
        <ele>1276.77</ele>
        <time>2013-10-27T10:55:56Z</time>
      </trkpt>
      <trkpt lat="46.257310705259442" lon="9.225510964170098">
        <ele>1278.6900000000001</ele>
        <time>2013-10-27T10:56:11Z</time>
      </trkpt>
      <trkpt lat="46.257440205663443" lon="9.225416164845228">
        <ele>1278.21</ele>
        <time>2013-10-27T10:56:27Z</time>
      </trkpt>
      <trkpt lat="46.257383711636066" lon="9.225309127941728">
        <ele>1278.21</ele>
        <time>2013-10-27T10:56:36Z</time>
      </trkpt>
      <trkpt lat="46.257349764928222" lon="9.225279204547405">
        <ele>1277.25</ele>
        <time>2013-10-27T10:56:48Z</time>
      </trkpt>
      <trkpt lat="46.257436014711857" lon="9.225205443799496">
        <ele>1277.25</ele>
        <time>2013-10-27T10:57:00Z</time>
      </trkpt>
      <trkpt lat="46.257382286712527" lon="9.225082732737064">
        <ele>1276.77</ele>
        <time>2013-10-27T10:57:19Z</time>
      </trkpt>
      <trkpt lat="46.257372060790658" lon="9.225100334733725">
        <ele>1275.8099999999999</ele>
        <time>2013-10-27T10:57:32Z</time>
      </trkpt>
      <trkpt lat="46.257484713569283" lon="9.225124893710017">
        <ele>1275.8099999999999</ele>
        <time>2013-10-27T10:57:48Z</time>
      </trkpt>
      <trkpt lat="46.257599964737892" lon="9.225179292261601">
        <ele>1276.77</ele>
        <time>2013-10-27T10:58:02Z</time>
      </trkpt>
      <trkpt lat="46.257677497342229" lon="9.225103100761771">
        <ele>1277.25</ele>
        <time>2013-10-27T10:58:14Z</time>
      </trkpt>
      <trkpt lat="46.25771027058363" lon="9.225064124912024">
        <ele>1277.25</ele>
        <time>2013-10-27T10:58:19Z</time>
      </trkpt>
      <trkpt lat="46.257741199806333" lon="9.224997237324715">
        <ele>1277.25</ele>
        <time>2013-10-27T10:58:33Z</time>
      </trkpt>
      <trkpt lat="46.257726531475782" lon="9.225060604512692">
        <ele>1276.77</ele>
        <time>2013-10-27T10:58:48Z</time>
      </trkpt>
      <trkpt lat="46.257695099338889" lon="9.225110812112689">
        <ele>1276.77</ele>
        <time>2013-10-27T10:58:59Z</time>
      </trkpt>
      <trkpt lat="46.257734410464764" lon="9.22524131834507">
        <ele>1277.73</ele>
        <time>2013-10-27T10:59:14Z</time>
      </trkpt>
      <trkpt lat="46.257765339687467" lon="9.22515288926661">
        <ele>1278.21</ele>
        <time>2013-10-27T10:59:29Z</time>
      </trkpt>
      <trkpt lat="46.257744887843728" lon="9.225117349997163">
        <ele>1278.21</ele>
        <time>2013-10-27T10:59:45Z</time>
      </trkpt>
      <trkpt lat="46.257743965834379" lon="9.225107543170452">
        <ele>1276.77</ele>
        <time>2013-10-27T10:59:47Z</time>
      </trkpt>
      <trkpt lat="46.257770536467433" lon="9.225112488493323">
        <ele>1275.8099999999999</ele>
        <time>2013-10-27T10:59:59Z</time>
      </trkpt>
      <trkpt lat="46.257762825116515" lon="9.22515045851469">
        <ele>1275.8099999999999</ele>
        <time>2013-10-27T11:00:20Z</time>
      </trkpt>
      <trkpt lat="46.25778503715992" lon="9.225120702758431">
        <ele>1275.3299999999999</ele>
        <time>2013-10-27T11:00:52Z</time>
      </trkpt>
      <trkpt lat="46.257735835388303" lon="9.225146351382136">
        <ele>1275.3299999999999</ele>
        <time>2013-10-27T11:01:26Z</time>
      </trkpt>
      <trkpt lat="46.257695769891143" lon="9.225115505978465">
        <ele>1275.3299999999999</ele>
        <time>2013-10-27T11:02:02Z</time>
      </trkpt>
      <trkpt lat="46.257732314988971" lon="9.22514702193439">
        <ele>1275.3299999999999</ele>
        <time>2013-10-27T11:02:35Z</time>
      </trkpt>
      <trkpt lat="46.257797190919518" lon="9.225183231756091">
        <ele>1275.3299999999999</ele>
        <time>2013-10-27T11:03:16Z</time>
      </trkpt>
      <trkpt lat="46.257781935855746" lon="9.225185327231884">
        <ele>1275.3299999999999</ele>
        <time>2013-10-27T11:03:52Z</time>
      </trkpt>
      <trkpt lat="46.257817978039384" lon="9.225143333896995">
        <ele>1275.3299999999999</ele>
        <time>2013-10-27T11:04:25Z</time>
      </trkpt>
      <trkpt lat="46.257819989696145" lon="9.225170910358429">
        <ele>1275.3299999999999</ele>
        <time>2013-10-27T11:04:58Z</time>
      </trkpt>
      <trkpt lat="46.257786881178617" lon="9.225133107975125">
        <ele>1275.3299999999999</ele>
        <time>2013-10-27T11:05:36Z</time>
      </trkpt>
      <trkpt lat="46.257781684398651" lon="9.225186668336391">
        <ele>1275.3299999999999</ele>
        <time>2013-10-27T11:06:12Z</time>
      </trkpt>
      <trkpt lat="46.257766345515847" lon="9.22517049126327">
        <ele>1274.8499999999999</ele>
        <time>2013-10-27T11:06:46Z</time>
      </trkpt>
      <trkpt lat="46.257847230881453" lon="9.225197061896324">
        <ele>1275.8099999999999</ele>
        <time>2013-10-27T11:07:26Z</time>
      </trkpt>
      <trkpt lat="46.257817894220352" lon="9.225189602002502">
        <ele>1276.29</ele>
        <time>2013-10-27T11:08:04Z</time>
      </trkpt>
      <trkpt lat="46.257698200643063" lon="9.22512598335743">
        <ele>1275.8099999999999</ele>
        <time>2013-10-27T11:08:33Z</time>
      </trkpt>
      <trkpt lat="46.257707169279456" lon="9.225132102146745">
        <ele>1275.8099999999999</ele>
        <time>2013-10-27T11:08:57Z</time>
      </trkpt>
      <trkpt lat="46.257752683013678" lon="9.225150877609849">
        <ele>1275.8099999999999</ele>
        <time>2013-10-27T11:09:24Z</time>
      </trkpt>
      <trkpt lat="46.257770620286465" lon="9.225116847082973">
        <ele>1275.8099999999999</ele>
        <time>2013-10-27T11:09:56Z</time>
      </trkpt>
      <trkpt lat="46.257834741845727" lon="9.225119194015861">
        <ele>1275.8099999999999</ele>
        <time>2013-10-27T11:10:24Z</time>
      </trkpt>
      <trkpt lat="46.257887631654739" lon="9.225128246471286">
        <ele>1275.8099999999999</ele>
        <time>2013-10-27T11:11:03Z</time>
      </trkpt>
      <trkpt lat="46.257777409628034" lon="9.225061945617199">
        <ele>1275.8099999999999</ele>
        <time>2013-10-27T11:11:38Z</time>
      </trkpt>
      <trkpt lat="46.2577567063272" lon="9.225067142397165">
        <ele>1274.8499999999999</ele>
        <time>2013-10-27T11:12:06Z</time>
      </trkpt>
      <trkpt lat="46.257783360779285" lon="9.22496379353106">
        <ele>1275.3299999999999</ele>
        <time>2013-10-27T11:12:38Z</time>
      </trkpt>
      <trkpt lat="46.257730890065432" lon="9.225025232881308">
        <ele>1275.3299999999999</ele>
        <time>2013-10-27T11:13:06Z</time>
      </trkpt>
      <trkpt lat="46.257681772112846" lon="9.225054150447249">
        <ele>1275.8099999999999</ele>
        <time>2013-10-27T11:13:33Z</time>
      </trkpt>
      <trkpt lat="46.257726028561592" lon="9.225105699151754">
        <ele>1275.8099999999999</ele>
        <time>2013-10-27T11:13:59Z</time>
      </trkpt>
      <trkpt lat="46.257754527032375" lon="9.225056245923042">
        <ele>1275.8099999999999</ele>
        <time>2013-10-27T11:14:26Z</time>
      </trkpt>
      <trkpt lat="46.25775134190917" lon="9.225057503208518">
        <ele>1275.8099999999999</ele>
        <time>2013-10-27T11:14:57Z</time>
      </trkpt>
      <trkpt lat="46.257745893672109" lon="9.225071417167783">
        <ele>1275.8099999999999</ele>
        <time>2013-10-27T11:15:23Z</time>
      </trkpt>
      <trkpt lat="46.257750168442726" lon="9.22506638802588">
        <ele>1275.8099999999999</ele>
        <time>2013-10-27T11:15:49Z</time>
      </trkpt>
      <trkpt lat="46.257800711318851" lon="9.225109135732055">
        <ele>1277.25</ele>
        <time>2013-10-27T11:16:23Z</time>
      </trkpt>
      <trkpt lat="46.257740193977952" lon="9.225128833204508">
        <ele>1277.25</ele>
        <time>2013-10-27T11:16:54Z</time>
      </trkpt>
      <trkpt lat="46.257702056318521" lon="9.225165965035558">
        <ele>1277.25</ele>
        <time>2013-10-27T11:17:22Z</time>
      </trkpt>
      <trkpt lat="46.2577117793262" lon="9.225260429084301">
        <ele>1277.25</ele>
        <time>2013-10-27T11:17:48Z</time>
      </trkpt>
      <trkpt lat="46.257736757397652" lon="9.225160516798496">
        <ele>1277.25</ele>
        <time>2013-10-27T11:18:19Z</time>
      </trkpt>
      <trkpt lat="46.257730387151241" lon="9.225198235362768">
        <ele>1277.25</ele>
        <time>2013-10-27T11:18:53Z</time>
      </trkpt>
      <trkpt lat="46.257697613909841" lon="9.225072674453259">
        <ele>1277.25</ele>
        <time>2013-10-27T11:19:27Z</time>
      </trkpt>
      <trkpt lat="46.257735416293144" lon="9.225080469623208">
        <ele>1277.73</ele>
        <time>2013-10-27T11:20:01Z</time>
      </trkpt>
      <trkpt lat="46.257805824279785" lon="9.225145848467946">
        <ele>1278.21</ele>
        <time>2013-10-27T11:20:37Z</time>
      </trkpt>
      <trkpt lat="46.257773134857416" lon="9.225163115188479">
        <ele>1278.21</ele>
        <time>2013-10-27T11:21:09Z</time>
      </trkpt>
      <trkpt lat="46.257829964160919" lon="9.225159762427211">
        <ele>1278.21</ele>
        <time>2013-10-27T11:21:39Z</time>
      </trkpt>
      <trkpt lat="46.257802052423358" lon="9.22511525452137">
        <ele>1278.6900000000001</ele>
        <time>2013-10-27T11:22:14Z</time>
      </trkpt>
      <trkpt lat="46.257760059088469" lon="9.225016934797168">
        <ele>1278.6900000000001</ele>
        <time>2013-10-27T11:22:43Z</time>
      </trkpt>
      <trkpt lat="46.257707001641393" lon="9.225117098540068">
        <ele>1278.6900000000001</ele>
        <time>2013-10-27T11:23:21Z</time>
      </trkpt>
      <trkpt lat="46.25769124366343" lon="9.225141322240233">
        <ele>1278.6900000000001</ele>
        <time>2013-10-27T11:23:52Z</time>
      </trkpt>
      <trkpt lat="46.25771957449615" lon="9.225123971700668">
        <ele>1278.6900000000001</ele>
        <time>2013-10-27T11:24:28Z</time>
      </trkpt>
      <trkpt lat="46.257739942520857" lon="9.225117182359099">
        <ele>1278.6900000000001</ele>
        <time>2013-10-27T11:25:00Z</time>
      </trkpt>
      <trkpt lat="46.257734075188637" lon="9.225020287558436">
        <ele>1278.6900000000001</ele>
        <time>2013-10-27T11:25:31Z</time>
      </trkpt>
      <trkpt lat="46.257799118757248" lon="9.225121792405844">
        <ele>1278.6900000000001</ele>
        <time>2013-10-27T11:26:04Z</time>
      </trkpt>
      <trkpt lat="46.2578050699085" lon="9.225175185129046">
        <ele>1278.6900000000001</ele>
        <time>2013-10-27T11:26:32Z</time>
      </trkpt>
      <trkpt lat="46.257781181484461" lon="9.225120786577463">
        <ele>1278.6900000000001</ele>
        <time>2013-10-27T11:27:05Z</time>
      </trkpt>
      <trkpt lat="46.257712114602327" lon="9.225148027762771">
        <ele>1279.1700000000001</ele>
        <time>2013-10-27T11:27:35Z</time>
      </trkpt>
      <trkpt lat="46.257643550634384" lon="9.225117433816195">
        <ele>1279.6500000000001</ele>
        <time>2013-10-27T11:28:10Z</time>
      </trkpt>
      <trkpt lat="46.257671881467104" lon="9.225097568705678">
        <ele>1279.6500000000001</ele>
        <time>2013-10-27T11:28:41Z</time>
      </trkpt>
      <trkpt lat="46.257746648043394" lon="9.225130341947079">
        <ele>1279.6500000000001</ele>
        <time>2013-10-27T11:29:17Z</time>
      </trkpt>
      <trkpt lat="46.257740864530206" lon="9.225108213722706">
        <ele>1280.1300000000001</ele>
        <time>2013-10-27T11:29:49Z</time>
      </trkpt>
      <trkpt lat="46.257740529254079" lon="9.225133527070284">
        <ele>1280.1300000000001</ele>
        <time>2013-10-27T11:30:20Z</time>
      </trkpt>
      <trkpt lat="46.257725693285465" lon="9.225201671943069">
        <ele>1280.1300000000001</ele>
        <time>2013-10-27T11:30:49Z</time>
      </trkpt>
      <trkpt lat="46.25775720924139" lon="9.22517484985292">
        <ele>1280.1300000000001</ele>
        <time>2013-10-27T11:31:20Z</time>
      </trkpt>
      <trkpt lat="46.257767518982291" lon="9.225096730515361">
        <ele>1279.6500000000001</ele>
        <time>2013-10-27T11:31:52Z</time>
      </trkpt>
      <trkpt lat="46.257819151505828" lon="9.225144004449248">
        <ele>1279.6500000000001</ele>
        <time>2013-10-27T11:32:25Z</time>
      </trkpt>
      <trkpt lat="46.257770955562592" lon="9.225114416331053">
        <ele>1279.6500000000001</ele>
        <time>2013-10-27T11:32:52Z</time>
      </trkpt>
      <trkpt lat="46.257753605023026" lon="9.225041577592492">
        <ele>1279.1700000000001</ele>
        <time>2013-10-27T11:33:15Z</time>
      </trkpt>
      <trkpt lat="46.25777087174356" lon="9.225040236487985">
        <ele>1279.1700000000001</ele>
        <time>2013-10-27T11:33:33Z</time>
      </trkpt>
      <trkpt lat="46.257803225889802" lon="9.22504392452538">
        <ele>1278.6900000000001</ele>
        <time>2013-10-27T11:33:54Z</time>
      </trkpt>
      <trkpt lat="46.257858462631702" lon="9.224878968670964">
        <ele>1278.6900000000001</ele>
        <time>2013-10-27T11:34:07Z</time>
      </trkpt>
      <trkpt lat="46.257876567542553" lon="9.22498675994575">
        <ele>1278.21</ele>
        <time>2013-10-27T11:34:34Z</time>
      </trkpt>
      <trkpt lat="46.257866928353906" lon="9.224934121593833">
        <ele>1278.21</ele>
        <time>2013-10-27T11:34:53Z</time>
      </trkpt>
      <trkpt lat="46.257888972759247" lon="9.224980557337403">
        <ele>1277.73</ele>
        <time>2013-10-27T11:35:19Z</time>
      </trkpt>
      <trkpt lat="46.257866257801652" lon="9.22493102028966">
        <ele>1277.25</ele>
        <time>2013-10-27T11:35:39Z</time>
      </trkpt>
      <trkpt lat="46.257876567542553" lon="9.224938731640577">
        <ele>1277.25</ele>
        <time>2013-10-27T11:35:55Z</time>
      </trkpt>
      <trkpt lat="46.257916884496808" lon="9.224933786317706">
        <ele>1277.25</ele>
        <time>2013-10-27T11:36:19Z</time>
      </trkpt>
      <trkpt lat="46.257936749607325" lon="9.224839741364121">
        <ele>1277.25</ele>
        <time>2013-10-27T11:36:31Z</time>
      </trkpt>
      <trkpt lat="46.257955357432365" lon="9.224747121334076">
        <ele>1277.73</ele>
        <time>2013-10-27T11:36:42Z</time>
      </trkpt>
      <trkpt lat="46.258045881986618" lon="9.22468232922256">
        <ele>1278.6900000000001</ele>
        <time>2013-10-27T11:36:55Z</time>
      </trkpt>
      <trkpt lat="46.258090892806649" lon="9.224630948156118">
        <ele>1278.6900000000001</ele>
        <time>2013-10-27T11:37:09Z</time>
      </trkpt>
      <trkpt lat="46.258173454552889" lon="9.224589876830578">
        <ele>1279.1700000000001</ele>
        <time>2013-10-27T11:37:25Z</time>
      </trkpt>
      <trkpt lat="46.258201114833355" lon="9.224517289549112">
        <ele>1279.1700000000001</ele>
        <time>2013-10-27T11:37:39Z</time>
      </trkpt>
      <trkpt lat="46.25818183645606" lon="9.224525839090347">
        <ele>1278.6900000000001</ele>
        <time>2013-10-27T11:37:57Z</time>
      </trkpt>
      <trkpt lat="46.258210837841034" lon="9.224539836868644">
        <ele>1278.6900000000001</ele>
        <time>2013-10-27T11:38:15Z</time>
      </trkpt>
      <trkpt lat="46.258284095674753" lon="9.224528018385172">
        <ele>1278.6900000000001</ele>
        <time>2013-10-27T11:38:26Z</time>
      </trkpt>
      <trkpt lat="46.258321227505803" lon="9.224521145224571">
        <ele>1278.6900000000001</ele>
        <time>2013-10-27T11:38:39Z</time>
      </trkpt>
      <trkpt lat="46.258420385420322" lon="9.224546877667308">
        <ele>1279.1700000000001</ele>
        <time>2013-10-27T11:38:53Z</time>
      </trkpt>
      <trkpt lat="46.258473610505462" lon="9.224555091932416">
        <ele>1279.1700000000001</ele>
        <time>2013-10-27T11:39:08Z</time>
      </trkpt>
      <trkpt lat="46.25853655859828" lon="9.224526844918728">
        <ele>1280.1300000000001</ele>
        <time>2013-10-27T11:39:21Z</time>
      </trkpt>
      <trkpt lat="46.258644014596939" lon="9.224479990079999">
        <ele>1281.0899999999999</ele>
        <time>2013-10-27T11:39:37Z</time>
      </trkpt>
      <trkpt lat="46.2587461899966" lon="9.224408492445946">
        <ele>1281.0899999999999</ele>
        <time>2013-10-27T11:39:51Z</time>
      </trkpt>
      <trkpt lat="46.25883805565536" lon="9.224381921812892">
        <ele>1282.0599999999999</ele>
        <time>2013-10-27T11:40:08Z</time>
      </trkpt>
      <trkpt lat="46.258907038718462" lon="9.224371947348118">
        <ele>1282.0599999999999</ele>
        <time>2013-10-27T11:40:25Z</time>
      </trkpt>
      <trkpt lat="46.259002424776554" lon="9.224345209077001">
        <ele>1282.0599999999999</ele>
        <time>2013-10-27T11:40:38Z</time>
      </trkpt>
      <trkpt lat="46.259088087826967" lon="9.224297348409891">
        <ele>1282.54</ele>
        <time>2013-10-27T11:40:51Z</time>
      </trkpt>
      <trkpt lat="46.259166626259685" lon="9.224242530763149">
        <ele>1282.54</ele>
        <time>2013-10-27T11:41:02Z</time>
      </trkpt>
      <trkpt lat="46.259218510240316" lon="9.224140103906393">
        <ele>1282.54</ele>
        <time>2013-10-27T11:41:14Z</time>
      </trkpt>
      <trkpt lat="46.259261425584555" lon="9.224051088094711">
        <ele>1281.0899999999999</ele>
        <time>2013-10-27T11:41:25Z</time>
      </trkpt>
      <trkpt lat="46.259334180504084" lon="9.223978836089373">
        <ele>1280.6099999999999</ele>
        <time>2013-10-27T11:41:38Z</time>
      </trkpt>
      <trkpt lat="46.259351363405585" lon="9.223926281556487">
        <ele>1279.6500000000001</ele>
        <time>2013-10-27T11:41:43Z</time>
      </trkpt>
      <trkpt lat="46.259367037564516" lon="9.223890155553818">
        <ele>1279.1700000000001</ele>
        <time>2013-10-27T11:41:46Z</time>
      </trkpt>
      <trkpt lat="46.259415820240974" lon="9.223700473085046">
        <ele>1277.25</ele>
        <time>2013-10-27T11:42:02Z</time>
      </trkpt>
      <trkpt lat="46.259444318711758" lon="9.223655126988888">
        <ele>1276.77</ele>
        <time>2013-10-27T11:42:07Z</time>
      </trkpt>
      <trkpt lat="46.259521348401904" lon="9.223552281036973">
        <ele>1274.8499999999999</ele>
        <time>2013-10-27T11:42:21Z</time>
      </trkpt>
      <trkpt lat="46.259608017280698" lon="9.223506851121783">
        <ele>1273.8800000000001</ele>
        <time>2013-10-27T11:42:35Z</time>
      </trkpt>
      <trkpt lat="46.25961547717452" lon="9.223467539995909">
        <ele>1273.8800000000001</ele>
        <time>2013-10-27T11:42:39Z</time>
      </trkpt>
      <trkpt lat="46.259660990908742" lon="9.223399478942156">
        <ele>1272.4400000000001</ele>
        <time>2013-10-27T11:42:54Z</time>
      </trkpt>
      <trkpt lat="46.259699128568172" lon="9.223323119804263">
        <ele>1271</ele>
        <time>2013-10-27T11:43:06Z</time>
      </trkpt>
      <trkpt lat="46.25974053516984" lon="9.223248101770878">
        <ele>1269.0799999999999</ele>
        <time>2013-10-27T11:43:18Z</time>
      </trkpt>
      <trkpt lat="46.259821755811572" lon="9.223147267475724">
        <ele>1269.0799999999999</ele>
        <time>2013-10-27T11:43:35Z</time>
      </trkpt>
      <trkpt lat="46.259874561801553" lon="9.223031178116798">
        <ele>1268.1199999999999</ele>
        <time>2013-10-27T11:43:49Z</time>
      </trkpt>
      <trkpt lat="46.259905491024256" lon="9.222907042130828">
        <ele>1265.71</ele>
        <time>2013-10-27T11:44:01Z</time>
      </trkpt>
      <trkpt lat="46.25992669723928" lon="9.222876951098442">
        <ele>1265.23</ele>
        <time>2013-10-27T11:44:05Z</time>
      </trkpt>
      <trkpt lat="46.260033398866653" lon="9.2228152602911">
        <ele>1263.79</ele>
        <time>2013-10-27T11:44:18Z</time>
      </trkpt>
      <trkpt lat="46.260135741904378" lon="9.222744349390268">
        <ele>1262.3499999999999</ele>
        <time>2013-10-27T11:44:32Z</time>
      </trkpt>
      <trkpt lat="46.260221656411886" lon="9.222671594470739">
        <ele>1261.8699999999999</ele>
        <time>2013-10-27T11:44:46Z</time>
      </trkpt>
      <trkpt lat="46.26023062504828" lon="9.222577130421996">
        <ele>1259.46</ele>
        <time>2013-10-27T11:44:58Z</time>
      </trkpt>
      <trkpt lat="46.260240599513054" lon="9.222464058548212">
        <ele>1258.02</ele>
        <time>2013-10-27T11:45:06Z</time>
      </trkpt>
      <trkpt lat="46.260245628654957" lon="9.222424831241369">
        <ele>1257.0599999999999</ele>
        <time>2013-10-27T11:45:10Z</time>
      </trkpt>
      <trkpt lat="46.260286113247275" lon="9.222302539274097">
        <ele>1255.1400000000001</ele>
        <time>2013-10-27T11:45:22Z</time>
      </trkpt>
      <trkpt lat="46.26038309186697" lon="9.222237495705485">
        <ele>1254.6600000000001</ele>
        <time>2013-10-27T11:45:35Z</time>
      </trkpt>
      <trkpt lat="46.260538408532739" lon="9.222276723012328">
        <ele>1253.22</ele>
        <time>2013-10-27T11:45:50Z</time>
      </trkpt>
      <trkpt lat="46.26068064942956" lon="9.222303796559572">
        <ele>1252.25</ele>
        <time>2013-10-27T11:46:07Z</time>
      </trkpt>
      <trkpt lat="46.260769078508019" lon="9.222236657515168">
        <ele>1250.3299999999999</ele>
        <time>2013-10-27T11:46:23Z</time>
      </trkpt>
      <trkpt lat="46.260863458737731" lon="9.222150994464755">
        <ele>1248.8900000000001</ele>
        <time>2013-10-27T11:46:40Z</time>
      </trkpt>
      <trkpt lat="46.26093571074307" lon="9.22207698225975">
        <ele>1246.49</ele>
        <time>2013-10-27T11:46:58Z</time>
      </trkpt>
      <trkpt lat="46.261019026860595" lon="9.221930298954248">
        <ele>1244.0799999999999</ele>
        <time>2013-10-27T11:47:15Z</time>
      </trkpt>
      <trkpt lat="46.261077951639891" lon="9.221804821863771">
        <ele>1242.1600000000001</ele>
        <time>2013-10-27T11:47:30Z</time>
      </trkpt>
      <trkpt lat="46.261094715446234" lon="9.221701472997665">
        <ele>1240.24</ele>
        <time>2013-10-27T11:47:42Z</time>
      </trkpt>
      <trkpt lat="46.261105695739388" lon="9.221551101654768">
        <ele>1237.3499999999999</ele>
        <time>2013-10-27T11:47:53Z</time>
      </trkpt>
      <trkpt lat="46.261167638003826" lon="9.221439957618713">
        <ele>1235.4300000000001</ele>
        <time>2013-10-27T11:48:07Z</time>
      </trkpt>
      <trkpt lat="46.261223712936044" lon="9.221322108060122">
        <ele>1233.51</ele>
        <time>2013-10-27T11:48:19Z</time>
      </trkpt>
      <trkpt lat="46.261283224448562" lon="9.221213227137923">
        <ele>1231.5899999999999</ele>
        <time>2013-10-27T11:48:31Z</time>
      </trkpt>
      <trkpt lat="46.261374754831195" lon="9.221142483875155">
        <ele>1228.7</ele>
        <time>2013-10-27T11:48:42Z</time>
      </trkpt>
      <trkpt lat="46.261462429538369" lon="9.221092695370317">
        <ele>1226.78</ele>
        <time>2013-10-27T11:48:54Z</time>
      </trkpt>
      <trkpt lat="46.261571645736694" lon="9.221106022596359">
        <ele>1224.3800000000001</ele>
        <time>2013-10-27T11:49:05Z</time>
      </trkpt>
      <trkpt lat="46.261666277423501" lon="9.2210503667593">
        <ele>1223.4200000000001</ele>
        <time>2013-10-27T11:49:18Z</time>
      </trkpt>
      <trkpt lat="46.261732159182429" lon="9.221027232706547">
        <ele>1221.49</ele>
        <time>2013-10-27T11:49:31Z</time>
      </trkpt>
      <trkpt lat="46.261769877746701" lon="9.220967972651124">
        <ele>1220.53</ele>
        <time>2013-10-27T11:49:44Z</time>
      </trkpt>
      <trkpt lat="46.261879345402122" lon="9.220955483615398">
        <ele>1219.0899999999999</ele>
        <time>2013-10-27T11:49:55Z</time>
      </trkpt>
      <trkpt lat="46.261962661519647" lon="9.220901001244783">
        <ele>1217.6500000000001</ele>
        <time>2013-10-27T11:50:07Z</time>
      </trkpt>
      <trkpt lat="46.26204002648592" lon="9.220839645713568">
        <ele>1216.21</ele>
        <time>2013-10-27T11:50:20Z</time>
      </trkpt>
      <trkpt lat="46.262126360088587" lon="9.220854984596372">
        <ele>1215.72</ele>
        <time>2013-10-27T11:50:41Z</time>
      </trkpt>
      <trkpt lat="46.262141028419137" lon="9.22080016694963">
        <ele>1214.76</ele>
        <time>2013-10-27T11:50:45Z</time>
      </trkpt>
      <trkpt lat="46.262211771681905" lon="9.220740990713239">
        <ele>1214.28</ele>
        <time>2013-10-27T11:51:02Z</time>
      </trkpt>
      <trkpt lat="46.262313779443502" lon="9.220642587170005">
        <ele>1214.28</ele>
        <time>2013-10-27T11:51:16Z</time>
      </trkpt>
      <trkpt lat="46.262389048933983" lon="9.220679551362991">
        <ele>1213.8</ele>
        <time>2013-10-27T11:51:31Z</time>
      </trkpt>
      <trkpt lat="46.262505641207099" lon="9.220612999051809">
        <ele>1212.3599999999999</ele>
        <time>2013-10-27T11:51:44Z</time>
      </trkpt>
      <trkpt lat="46.262505808845162" lon="9.220495903864503">
        <ele>1211.8800000000001</ele>
        <time>2013-10-27T11:51:59Z</time>
      </trkpt>
      <trkpt lat="46.262510418891907" lon="9.220406636595726">
        <ele>1211.4000000000001</ele>
        <time>2013-10-27T11:52:12Z</time>
      </trkpt>
      <trkpt lat="46.262538833543658" lon="9.220321895554662">
        <ele>1209.48</ele>
        <time>2013-10-27T11:52:31Z</time>
      </trkpt>
      <trkpt lat="46.262573031708598" lon="9.22023631632328">
        <ele>1207.55</ele>
        <time>2013-10-27T11:52:45Z</time>
      </trkpt>
      <trkpt lat="46.262676045298576" lon="9.220148557797074">
        <ele>1205.1500000000001</ele>
        <time>2013-10-27T11:53:01Z</time>
      </trkpt>
      <trkpt lat="46.262787105515599" lon="9.220057697966695">
        <ele>1202.75</ele>
        <time>2013-10-27T11:53:18Z</time>
      </trkpt>
      <trkpt lat="46.262871846556664" lon="9.220049818977714">
        <ele>1200.8199999999999</ele>
        <time>2013-10-27T11:53:34Z</time>
      </trkpt>
      <trkpt lat="46.262984499335289" lon="9.219998773187399">
        <ele>1199.3800000000001</ele>
        <time>2013-10-27T11:53:49Z</time>
      </trkpt>
      <trkpt lat="46.263060355558991" lon="9.2199123557657">
        <ele>1196.98</ele>
        <time>2013-10-27T11:54:02Z</time>
      </trkpt>
      <trkpt lat="46.263120705261827" lon="9.21987421810627">
        <ele>1196.5</ele>
        <time>2013-10-27T11:54:12Z</time>
      </trkpt>
      <trkpt lat="46.263192370533943" lon="9.219814874231815">
        <ele>1194.5799999999999</ele>
        <time>2013-10-27T11:54:24Z</time>
      </trkpt>
      <trkpt lat="46.26325917430222" lon="9.219726109877229">
        <ele>1191.6900000000001</ele>
        <time>2013-10-27T11:54:38Z</time>
      </trkpt>
      <trkpt lat="46.263324469327927" lon="9.219698701053858">
        <ele>1192.6500000000001</ele>
        <time>2013-10-27T11:54:42Z</time>
      </trkpt>
      <trkpt lat="46.263347938656807" lon="9.219579929485917">
        <ele>1191.21</ele>
        <time>2013-10-27T11:54:53Z</time>
      </trkpt>
      <trkpt lat="46.26343896612525" lon="9.219448920339346">
        <ele>1189.77</ele>
        <time>2013-10-27T11:55:07Z</time>
      </trkpt>
      <trkpt lat="46.263492861762643" lon="9.219361077994108">
        <ele>1189.29</ele>
        <time>2013-10-27T11:55:21Z</time>
      </trkpt>
      <trkpt lat="46.263554804027081" lon="9.219267116859555">
        <ele>1187.3699999999999</ele>
        <time>2013-10-27T11:55:36Z</time>
      </trkpt>
      <trkpt lat="46.263655638322234" lon="9.219210119917989">
        <ele>1185.9200000000001</ele>
        <time>2013-10-27T11:55:50Z</time>
      </trkpt>
      <trkpt lat="46.2637057621032" lon="9.219148680567741">
        <ele>1184.96</ele>
        <time>2013-10-27T11:56:02Z</time>
      </trkpt>
      <trkpt lat="46.263768626376987" lon="9.219130072742701">
        <ele>1184.48</ele>
        <time>2013-10-27T11:56:07Z</time>
      </trkpt>
      <trkpt lat="46.263851271942258" lon="9.219110710546374">
        <ele>1184</ele>
        <time>2013-10-27T11:56:12Z</time>
      </trkpt>
      <trkpt lat="46.263920590281487" lon="9.219048516824842">
        <ele>1182.0799999999999</ele>
        <time>2013-10-27T11:56:19Z</time>
      </trkpt>
      <trkpt lat="46.263994267210364" lon="9.218933014199138">
        <ele>1181.1199999999999</ele>
        <time>2013-10-27T11:56:31Z</time>
      </trkpt>
      <trkpt lat="46.264037517830729" lon="9.218861432746053">
        <ele>1180.6400000000001</ele>
        <time>2013-10-27T11:56:37Z</time>
      </trkpt>
      <trkpt lat="46.264080516993999" lon="9.218738386407495">
        <ele>1179.1900000000001</ele>
        <time>2013-10-27T11:56:51Z</time>
      </trkpt>
      <trkpt lat="46.264095855876803" lon="9.218591619282961">
        <ele>1178.23</ele>
        <time>2013-10-27T11:57:05Z</time>
      </trkpt>
      <trkpt lat="46.264101807028055" lon="9.218441331759095">
        <ele>1176.79</ele>
        <time>2013-10-27T11:57:16Z</time>
      </trkpt>
      <trkpt lat="46.264120666310191" lon="9.21833848580718">
        <ele>1176.3099999999999</ele>
        <time>2013-10-27T11:57:28Z</time>
      </trkpt>
      <trkpt lat="46.264137178659439" lon="9.218273609876633">
        <ele>1176.3099999999999</ele>
        <time>2013-10-27T11:57:40Z</time>
      </trkpt>
      <trkpt lat="46.264145141467452" lon="9.218158191069961">
        <ele>1176.3099999999999</ele>
        <time>2013-10-27T11:57:53Z</time>
      </trkpt>
      <trkpt lat="46.264107087627053" lon="9.218097422271967">
        <ele>1175.8299999999999</ele>
        <time>2013-10-27T11:58:01Z</time>
      </trkpt>
      <trkpt lat="46.264093844220042" lon="9.218063391745091">
        <ele>1175.8299999999999</ele>
        <time>2013-10-27T11:58:03Z</time>
      </trkpt>
      <trkpt lat="46.264104573056102" lon="9.217875888571143">
        <ele>1175.8299999999999</ele>
        <time>2013-10-27T11:58:16Z</time>
      </trkpt>
      <trkpt lat="46.26419979147613" lon="9.217751249670982">
        <ele>1177.27</ele>
        <time>2013-10-27T11:58:31Z</time>
      </trkpt>
      <trkpt lat="46.264249412342906" lon="9.217636752873659">
        <ele>1177.27</ele>
        <time>2013-10-27T11:58:46Z</time>
      </trkpt>
      <trkpt lat="46.264191325753927" lon="9.21753122471273">
        <ele>1175.8299999999999</ele>
        <time>2013-10-27T11:58:59Z</time>
      </trkpt>
      <trkpt lat="46.264151344075799" lon="9.217478334903717">
        <ele>1174.3900000000001</ele>
        <time>2013-10-27T11:59:11Z</time>
      </trkpt>
      <trkpt lat="46.264142710715532" lon="9.217353276908398">
        <ele>1171.98</ele>
        <time>2013-10-27T11:59:27Z</time>
      </trkpt>
      <trkpt lat="46.26389779150486" lon="9.217097796499729">
        <ele>1171.5</ele>
        <time>2013-10-27T11:59:41Z</time>
      </trkpt>
      <trkpt lat="46.263832999393344" lon="9.217004338279367">
        <ele>1170.54</ele>
        <time>2013-10-27T11:59:53Z</time>
      </trkpt>
      <trkpt lat="46.263910280540586" lon="9.216896295547485">
        <ele>1168.6199999999999</ele>
        <time>2013-10-27T12:00:06Z</time>
      </trkpt>
      <trkpt lat="46.263992758467793" lon="9.216755647212267">
        <ele>1167.6600000000001</ele>
        <time>2013-10-27T12:00:18Z</time>
      </trkpt>
      <trkpt lat="46.263944394886494" lon="9.216642240062356">
        <ele>1166.22</ele>
        <time>2013-10-27T12:00:32Z</time>
      </trkpt>
      <trkpt lat="46.263896534219384" lon="9.216517182067037">
        <ele>1165.74</ele>
        <time>2013-10-27T12:00:44Z</time>
      </trkpt>
      <trkpt lat="46.263880943879485" lon="9.216325152665377">
        <ele>1163.8099999999999</ele>
        <time>2013-10-27T12:00:58Z</time>
      </trkpt>
      <trkpt lat="46.263830903917551" lon="9.216191042214632">
        <ele>1162.3699999999999</ele>
        <time>2013-10-27T12:01:12Z</time>
      </trkpt>
      <trkpt lat="46.263862922787666" lon="9.215971184894443">
        <ele>1161.4100000000001</ele>
        <time>2013-10-27T12:01:27Z</time>
      </trkpt>
      <trkpt lat="46.263886978849769" lon="9.215918546542525">
        <ele>1161.4100000000001</ele>
        <time>2013-10-27T12:01:32Z</time>
      </trkpt>
      <trkpt lat="46.263905754312873" lon="9.215831039473414">
        <ele>1159.97</ele>
        <time>2013-10-27T12:01:45Z</time>
      </trkpt>
      <trkpt lat="46.263846326619387" lon="9.215855514630675">
        <ele>1159.97</ele>
        <time>2013-10-27T12:02:12Z</time>
      </trkpt>
      <trkpt lat="46.263737110421062" lon="9.215763816609979">
        <ele>1159.97</ele>
        <time>2013-10-27T12:02:37Z</time>
      </trkpt>
      <trkpt lat="46.263765776529908" lon="9.215849479660392">
        <ele>1159.97</ele>
        <time>2013-10-27T12:03:03Z</time>
      </trkpt>
      <trkpt lat="46.263863174244761" lon="9.21576582826674">
        <ele>1159.97</ele>
        <time>2013-10-27T12:03:31Z</time>
      </trkpt>
      <trkpt lat="46.263887817040086" lon="9.215711513534188">
        <ele>1159.97</ele>
        <time>2013-10-27T12:03:43Z</time>
      </trkpt>
      <trkpt lat="46.263882787898183" lon="9.215550580993295">
        <ele>1157.5599999999999</ele>
        <time>2013-10-27T12:04:00Z</time>
      </trkpt>
      <trkpt lat="46.263881279155612" lon="9.215485285967588">
        <ele>1156.1199999999999</ele>
        <time>2013-10-27T12:04:13Z</time>
      </trkpt>
      <trkpt lat="46.263895696029067" lon="9.2154536023736">
        <ele>1155.1600000000001</ele>
        <time>2013-10-27T12:04:20Z</time>
      </trkpt>
      <trkpt lat="46.263885051012039" lon="9.215366765856743">
        <ele>1152.28</ele>
        <time>2013-10-27T12:04:33Z</time>
      </trkpt>
      <trkpt lat="46.263891840353608" lon="9.215271212160587">
        <ele>1148.9100000000001</ele>
        <time>2013-10-27T12:04:44Z</time>
      </trkpt>
      <trkpt lat="46.263931067660451" lon="9.215215975418687">
        <ele>1146.99</ele>
        <time>2013-10-27T12:04:53Z</time>
      </trkpt>
      <trkpt lat="46.263939030468464" lon="9.215131485834718">
        <ele>1144.5899999999999</ele>
        <time>2013-10-27T12:05:04Z</time>
      </trkpt>
      <trkpt lat="46.263947831466794" lon="9.215113129466772">
        <ele>1143.1400000000001</ele>
        <time>2013-10-27T12:05:11Z</time>
      </trkpt>
      <trkpt lat="46.263962164521217" lon="9.215123103931546">
        <ele>1142.6600000000001</ele>
        <time>2013-10-27T12:05:14Z</time>
      </trkpt>
      <trkpt lat="46.264012791216373" lon="9.215011289343238">
        <ele>1140.26</ele>
        <time>2013-10-27T12:05:25Z</time>
      </trkpt>
      <trkpt lat="46.264152936637402" lon="9.21492101624608">
        <ele>1139.3</ele>
        <time>2013-10-27T12:05:34Z</time>
      </trkpt>
      <trkpt lat="46.264212196692824" lon="9.214847758412361">
        <ele>1139.3</ele>
        <time>2013-10-27T12:05:39Z</time>
      </trkpt>
      <trkpt lat="46.264225440099835" lon="9.214813308790326">
        <ele>1139.3</ele>
        <time>2013-10-27T12:05:42Z</time>
      </trkpt>
      <trkpt lat="46.264188392087817" lon="9.214676264673472">
        <ele>1136.9000000000001</ele>
        <time>2013-10-27T12:05:55Z</time>
      </trkpt>
      <trkpt lat="46.264135837554932" lon="9.2145452555269">
        <ele>1135.45</ele>
        <time>2013-10-27T12:06:06Z</time>
      </trkpt>
      <trkpt lat="46.264076996594667" lon="9.214411564171314">
        <ele>1133.05</ele>
        <time>2013-10-27T12:06:16Z</time>
      </trkpt>
      <trkpt lat="46.264068195596337" lon="9.214357752352953">
        <ele>1132.5699999999999</ele>
        <time>2013-10-27T12:06:19Z</time>
      </trkpt>
      <trkpt lat="46.264070123434067" lon="9.214295977726579">
        <ele>1131.6099999999999</ele>
        <time>2013-10-27T12:06:23Z</time>
      </trkpt>
      <trkpt lat="46.264136591926217" lon="9.214133787900209">
        <ele>1129.21</ele>
        <time>2013-10-27T12:06:36Z</time>
      </trkpt>
      <trkpt lat="46.264176238328218" lon="9.214052651077509">
        <ele>1127.28</ele>
        <time>2013-10-27T12:06:45Z</time>
      </trkpt>
      <trkpt lat="46.264190236106515" lon="9.213929772377014">
        <ele>1124.8800000000001</ele>
        <time>2013-10-27T12:06:57Z</time>
      </trkpt>
      <trkpt lat="46.264228709042072" lon="9.213780155405402">
        <ele>1122.96</ele>
        <time>2013-10-27T12:07:09Z</time>
      </trkpt>
      <trkpt lat="46.264255279675126" lon="9.213602961972356">
        <ele>1121.03</ele>
        <time>2013-10-27T12:07:24Z</time>
      </trkpt>
      <trkpt lat="46.264323927462101" lon="9.213444963097572">
        <ele>1119.5899999999999</ele>
        <time>2013-10-27T12:07:36Z</time>
      </trkpt>
      <trkpt lat="46.264367429539561" lon="9.213312780484557">
        <ele>1118.1500000000001</ele>
        <time>2013-10-27T12:07:49Z</time>
      </trkpt>
      <trkpt lat="46.264379415661097" lon="9.213299956172705">
        <ele>1118.1500000000001</ele>
        <time>2013-10-27T12:07:52Z</time>
      </trkpt>
      <trkpt lat="46.264430042356253" lon="9.213233571499586">
        <ele>1116.71</ele>
        <time>2013-10-27T12:08:05Z</time>
      </trkpt>
      <trkpt lat="46.264442866668105" lon="9.213199373334646">
        <ele>1116.23</ele>
        <time>2013-10-27T12:08:08Z</time>
      </trkpt>
      <trkpt lat="46.264598267152905" lon="9.21308470889926">
        <ele>1115.27</ele>
        <time>2013-10-27T12:08:23Z</time>
      </trkpt>
      <trkpt lat="46.26464830711484" lon="9.213033746927977">
        <ele>1113.8199999999999</ele>
        <time>2013-10-27T12:08:31Z</time>
      </trkpt>
      <trkpt lat="46.264666076749563" lon="9.213013714179397">
        <ele>1113.8199999999999</ele>
        <time>2013-10-27T12:08:33Z</time>
      </trkpt>
      <trkpt lat="46.264663897454739" lon="9.212844064459205">
        <ele>1112.8599999999999</ele>
        <time>2013-10-27T12:08:48Z</time>
      </trkpt>
      <trkpt lat="46.264681834727526" lon="9.212683802470565">
        <ele>1112.3800000000001</ele>
        <time>2013-10-27T12:09:00Z</time>
      </trkpt>
      <trkpt lat="46.264721229672432" lon="9.21250132843852">
        <ele>1111.9000000000001</ele>
        <time>2013-10-27T12:09:16Z</time>
      </trkpt>
      <trkpt lat="46.264762803912163" lon="9.212368475273252">
        <ele>1110.9400000000001</ele>
        <time>2013-10-27T12:09:29Z</time>
      </trkpt>
      <trkpt lat="46.264807563275099" lon="9.212269065901637">
        <ele>1109.5</ele>
        <time>2013-10-27T12:09:41Z</time>
      </trkpt>
      <trkpt lat="46.264816448092461" lon="9.212196562439203">
        <ele>1108.54</ele>
        <time>2013-10-27T12:09:54Z</time>
      </trkpt>
      <trkpt lat="46.26487847417593" lon="9.212128920480609">
        <ele>1107.0999999999999</ele>
        <time>2013-10-27T12:10:03Z</time>
      </trkpt>
      <trkpt lat="46.264912756159902" lon="9.212041245773435">
        <ele>1105.6500000000001</ele>
        <time>2013-10-27T12:10:17Z</time>
      </trkpt>
      <trkpt lat="46.26480177976191" lon="9.21180889941752">
        <ele>1103.73</ele>
        <time>2013-10-27T12:10:32Z</time>
      </trkpt>
      <trkpt lat="46.264734892174602" lon="9.211734384298325">
        <ele>1101.8099999999999</ele>
        <time>2013-10-27T12:10:45Z</time>
      </trkpt>
      <trkpt lat="46.264719301834702" lon="9.211654337123036">
        <ele>1101.3299999999999</ele>
        <time>2013-10-27T12:10:50Z</time>
      </trkpt>
      <trkpt lat="46.264757523313165" lon="9.211591640487313">
        <ele>1100.3699999999999</ele>
        <time>2013-10-27T12:11:00Z</time>
      </trkpt>
      <trkpt lat="46.264838241040707" lon="9.211538080126047">
        <ele>1097.96</ele>
        <time>2013-10-27T12:11:11Z</time>
      </trkpt>
      <trkpt lat="46.264889789745212" lon="9.211484184488654">
        <ele>1097</ele>
        <time>2013-10-27T12:11:23Z</time>
      </trkpt>
      <trkpt lat="46.264921892434359" lon="9.21139650978148">
        <ele>1095.0799999999999</ele>
        <time>2013-10-27T12:11:36Z</time>
      </trkpt>
      <trkpt lat="46.264969082549214" lon="9.211332639679313">
        <ele>1092.6800000000001</ele>
        <time>2013-10-27T12:11:50Z</time>
      </trkpt>
      <trkpt lat="46.265002526342869" lon="9.211202468723059">
        <ele>1092.6800000000001</ele>
        <time>2013-10-27T12:12:01Z</time>
      </trkpt>
      <trkpt lat="46.265005124732852" lon="9.211146645247936">
        <ele>1092.6800000000001</ele>
        <time>2013-10-27T12:12:06Z</time>
      </trkpt>
      <trkpt lat="46.265045357868075" lon="9.211099790409207">
        <ele>1090.75</ele>
        <time>2013-10-27T12:12:20Z</time>
      </trkpt>
      <trkpt lat="46.265118280425668" lon="9.211140610277653">
        <ele>1088.8299999999999</ele>
        <time>2013-10-27T12:12:37Z</time>
      </trkpt>
      <trkpt lat="46.265229759737849" lon="9.211179753765464">
        <ele>1088.3499999999999</ele>
        <time>2013-10-27T12:12:49Z</time>
      </trkpt>
      <trkpt lat="46.265278458595276" lon="9.211120577529073">
        <ele>1086.4300000000001</ele>
        <time>2013-10-27T12:13:02Z</time>
      </trkpt>
      <trkpt lat="46.265239315107465" lon="9.210977330803871">
        <ele>1085.47</ele>
        <time>2013-10-27T12:13:17Z</time>
      </trkpt>
      <trkpt lat="46.265225568786263" lon="9.210856379941106">
        <ele>1083.54</ele>
        <time>2013-10-27T12:13:28Z</time>
      </trkpt>
      <trkpt lat="46.265325732529163" lon="9.21075445599854">
        <ele>1083.0599999999999</ele>
        <time>2013-10-27T12:13:40Z</time>
      </trkpt>
      <trkpt lat="46.265456574037671" lon="9.210679018869996">
        <ele>1082.0999999999999</ele>
        <time>2013-10-27T12:13:54Z</time>
      </trkpt>
      <trkpt lat="46.265571992844343" lon="9.210681449621916">
        <ele>1082.0999999999999</ele>
        <time>2013-10-27T12:14:07Z</time>
      </trkpt>
      <trkpt lat="46.265590013936162" lon="9.210688071325421">
        <ele>1082.0999999999999</ele>
        <time>2013-10-27T12:14:09Z</time>
      </trkpt>
      <trkpt lat="46.265723956748843" lon="9.21068362891674">
        <ele>1082.0999999999999</ele>
        <time>2013-10-27T12:14:24Z</time>
      </trkpt>
      <trkpt lat="46.265749353915453" lon="9.210610203444958">
        <ele>1083.54</ele>
        <time>2013-10-27T12:14:31Z</time>
      </trkpt>
      <trkpt lat="46.265763603150845" lon="9.210456060245633">
        <ele>1084.02</ele>
        <time>2013-10-27T12:14:44Z</time>
      </trkpt>
      <trkpt lat="46.265825126320124" lon="9.210238633677363">
        <ele>1083.54</ele>
        <time>2013-10-27T12:15:00Z</time>
      </trkpt>
      <trkpt lat="46.265835855156183" lon="9.210127657279372">
        <ele>1082.0999999999999</ele>
        <time>2013-10-27T12:15:15Z</time>
      </trkpt>
      <trkpt lat="46.265852618962526" lon="9.210059344768524">
        <ele>1081.6199999999999</ele>
        <time>2013-10-27T12:15:28Z</time>
      </trkpt>
      <trkpt lat="46.265853876248002" lon="9.210031935945153">
        <ele>1080.6600000000001</ele>
        <time>2013-10-27T12:15:31Z</time>
      </trkpt>
      <trkpt lat="46.265925960615277" lon="9.209958761930466">
        <ele>1078.74</ele>
        <time>2013-10-27T12:15:43Z</time>
      </trkpt>
      <trkpt lat="46.265964852645993" lon="9.209916600957513">
        <ele>1077.78</ele>
        <time>2013-10-27T12:16:00Z</time>
      </trkpt>
      <trkpt lat="46.265956806018949" lon="9.209947194904089">
        <ele>1076.3299999999999</ele>
        <time>2013-10-27T12:16:21Z</time>
      </trkpt>
      <trkpt lat="46.265928475186229" lon="9.209954151883721">
        <ele>1073.45</ele>
        <time>2013-10-27T12:16:36Z</time>
      </trkpt>
      <trkpt lat="46.265846835449338" lon="9.209646955132484">
        <ele>1071.05</ele>
        <time>2013-10-27T12:16:55Z</time>
      </trkpt>
      <trkpt lat="46.265836358070374" lon="9.209546959027648">
        <ele>1068.1600000000001</ele>
        <time>2013-10-27T12:17:15Z</time>
      </trkpt>
      <trkpt lat="46.265806099399924" lon="9.209353504702449">
        <ele>1065.76</ele>
        <time>2013-10-27T12:17:31Z</time>
      </trkpt>
      <trkpt lat="46.265861252322793" lon="9.209222327917814">
        <ele>1065.76</ele>
        <time>2013-10-27T12:17:48Z</time>
      </trkpt>
      <trkpt lat="46.265880111604929" lon="9.209138844162226">
        <ele>1063.8399999999999</ele>
        <time>2013-10-27T12:18:03Z</time>
      </trkpt>
      <trkpt lat="46.266005504876375" lon="9.209042033180594">
        <ele>1060.95</ele>
        <time>2013-10-27T12:18:15Z</time>
      </trkpt>
      <trkpt lat="46.266055544838309" lon="9.208950838074088">
        <ele>1059.51</ele>
        <time>2013-10-27T12:18:23Z</time>
      </trkpt>
      <trkpt lat="46.26601648516953" lon="9.208763167262077">
        <ele>1058.55</ele>
        <time>2013-10-27T12:18:35Z</time>
      </trkpt>
      <trkpt lat="46.266062166541815" lon="9.208667613565922">
        <ele>1057.5899999999999</ele>
        <time>2013-10-27T12:18:46Z</time>
      </trkpt>
      <trkpt lat="46.266055544838309" lon="9.208517661318183">
        <ele>1055.6700000000001</ele>
        <time>2013-10-27T12:19:00Z</time>
      </trkpt>
      <trkpt lat="46.266090832650661" lon="9.208437446504831">
        <ele>1052.78</ele>
        <time>2013-10-27T12:19:14Z</time>
      </trkpt>
      <trkpt lat="46.266100388020277" lon="9.208376929163933">
        <ele>1052.78</ele>
        <time>2013-10-27T12:19:17Z</time>
      </trkpt>
      <trkpt lat="46.266122600063682" lon="9.208231503143907">
        <ele>1050.3800000000001</ele>
        <time>2013-10-27T12:19:30Z</time>
      </trkpt>
      <trkpt lat="46.266133831813931" lon="9.20809730887413">
        <ele>1049.4200000000001</ele>
        <time>2013-10-27T12:19:41Z</time>
      </trkpt>
      <trkpt lat="46.266179261729121" lon="9.207984739914537">
        <ele>1047.97</ele>
        <time>2013-10-27T12:19:53Z</time>
      </trkpt>
      <trkpt lat="46.266217567026615" lon="9.207904106006026">
        <ele>1046.53</ele>
        <time>2013-10-27T12:20:06Z</time>
      </trkpt>
      <trkpt lat="46.266225529834628" lon="9.207833278924227">
        <ele>1045.5699999999999</ele>
        <time>2013-10-27T12:20:18Z</time>
      </trkpt>
      <trkpt lat="46.266308845952153" lon="9.207782400771976">
        <ele>1044.6099999999999</ele>
        <time>2013-10-27T12:20:33Z</time>
      </trkpt>
      <trkpt lat="46.266343547031283" lon="9.207727499306202">
        <ele>1044.6099999999999</ele>
        <time>2013-10-27T12:20:47Z</time>
      </trkpt>
      <trkpt lat="46.266335332766175" lon="9.207650134339929">
        <ele>1045.5699999999999</ele>
        <time>2013-10-27T12:20:59Z</time>
      </trkpt>
      <trkpt lat="46.266405154019594" lon="9.207565477117896">
        <ele>1044.1300000000001</ele>
        <time>2013-10-27T12:21:12Z</time>
      </trkpt>
      <trkpt lat="46.266440525650978" lon="9.207436395809054">
        <ele>1041.73</ele>
        <time>2013-10-27T12:21:24Z</time>
      </trkpt>
      <trkpt lat="46.266373218968511" lon="9.207298597320914">
        <ele>1039.8</ele>
        <time>2013-10-27T12:21:36Z</time>
      </trkpt>
      <trkpt lat="46.266412865370512" lon="9.207188878208399">
        <ele>1037.4000000000001</ele>
        <time>2013-10-27T12:21:50Z</time>
      </trkpt>
      <trkpt lat="46.266389060765505" lon="9.207081254571676">
        <ele>1035.48</ele>
        <time>2013-10-27T12:22:02Z</time>
      </trkpt>
      <trkpt lat="46.266386462375522" lon="9.206920489668846">
        <ele>1033.55</ele>
        <time>2013-10-27T12:22:16Z</time>
      </trkpt>
      <trkpt lat="46.266330890357494" lon="9.206864163279533">
        <ele>1032.5899999999999</ele>
        <time>2013-10-27T12:22:29Z</time>
      </trkpt>
      <trkpt lat="46.266253525391221" lon="9.206661824136972">
        <ele>1029.71</ele>
        <time>2013-10-27T12:22:46Z</time>
      </trkpt>
      <trkpt lat="46.266172472387552" lon="9.20649996958673">
        <ele>1028.27</ele>
        <time>2013-10-27T12:23:01Z</time>
      </trkpt>
      <trkpt lat="46.26609711907804" lon="9.206337193027139">
        <ele>1026.8299999999999</ele>
        <time>2013-10-27T12:23:16Z</time>
      </trkpt>
      <trkpt lat="46.266117822378874" lon="9.206226635724306">
        <ele>1026.8299999999999</ele>
        <time>2013-10-27T12:23:28Z</time>
      </trkpt>
      <trkpt lat="46.266110697761178" lon="9.206077521666884">
        <ele>1025.3800000000001</ele>
        <time>2013-10-27T12:23:40Z</time>
      </trkpt>
      <trkpt lat="46.266117906197906" lon="9.205944752320647">
        <ele>1024.4200000000001</ele>
        <time>2013-10-27T12:23:55Z</time>
      </trkpt>
      <trkpt lat="46.266173478215933" lon="9.205826902762055">
        <ele>1024.4200000000001</ele>
        <time>2013-10-27T12:24:08Z</time>
      </trkpt>
      <trkpt lat="46.266127796843648" lon="9.205677201971412">
        <ele>1024.4200000000001</ele>
        <time>2013-10-27T12:24:22Z</time>
      </trkpt>
      <trkpt lat="46.266055461019278" lon="9.205509396269918">
        <ele>1023.9400000000001</ele>
        <time>2013-10-27T12:24:35Z</time>
      </trkpt>
      <trkpt lat="46.266053449362516" lon="9.205294819548726">
        <ele>1023.9400000000001</ele>
        <time>2013-10-27T12:24:50Z</time>
      </trkpt>
      <trkpt lat="46.266049928963184" lon="9.205265399068594">
        <ele>1023.9400000000001</ele>
        <time>2013-10-27T12:24:52Z</time>
      </trkpt>
      <trkpt lat="46.266014976426959" lon="9.205148806795478">
        <ele>1023.9400000000001</ele>
        <time>2013-10-27T12:24:58Z</time>
      </trkpt>
      <trkpt lat="46.266058059409261" lon="9.204941187053919">
        <ele>1024.9000000000001</ele>
        <time>2013-10-27T12:25:14Z</time>
      </trkpt>
      <trkpt lat="46.266023525968194" lon="9.204898523166776">
        <ele>1023.9400000000001</ele>
        <time>2013-10-27T12:25:19Z</time>
      </trkpt>
      <trkpt lat="46.266007097437978" lon="9.204754689708352">
        <ele>1022.5</ele>
        <time>2013-10-27T12:25:33Z</time>
      </trkpt>
      <trkpt lat="46.266033416613936" lon="9.204663494601846">
        <ele>1020.1</ele>
        <time>2013-10-27T12:25:46Z</time>
      </trkpt>
      <trkpt lat="46.266042720526457" lon="9.204703643918037">
        <ele>1017.6900000000001</ele>
        <time>2013-10-27T12:26:00Z</time>
      </trkpt>
      <trkpt lat="46.26600181683898" lon="9.204653687775135">
        <ele>1016.25</ele>
        <time>2013-10-27T12:26:12Z</time>
      </trkpt>
      <trkpt lat="46.265952698886395" lon="9.204615131020546">
        <ele>1014.33</ele>
        <time>2013-10-27T12:26:27Z</time>
      </trkpt>
      <trkpt lat="46.265892684459686" lon="9.204672211781144">
        <ele>1011.9299999999999</ele>
        <time>2013-10-27T12:26:38Z</time>
      </trkpt>
      <trkpt lat="46.265848595649004" lon="9.204644719138742">
        <ele>1010</ele>
        <time>2013-10-27T12:26:51Z</time>
      </trkpt>
      <trkpt lat="46.265829904004931" lon="9.204476913437247">
        <ele>1010</ele>
        <time>2013-10-27T12:27:03Z</time>
      </trkpt>
      <trkpt lat="46.265774415805936" lon="9.204337187111378">
        <ele>1008.5599999999999</ele>
        <time>2013-10-27T12:27:17Z</time>
      </trkpt>
      <trkpt lat="46.265722783282399" lon="9.204224282875657">
        <ele>1007.12</ele>
        <time>2013-10-27T12:27:30Z</time>
      </trkpt>
      <trkpt lat="46.26571549102664" lon="9.204158317297697">
        <ele>1006.16</ele>
        <time>2013-10-27T12:27:42Z</time>
      </trkpt>
      <trkpt lat="46.265644580125809" lon="9.204064188525081">
        <ele>1005.2</ele>
        <time>2013-10-27T12:27:56Z</time>
      </trkpt>
      <trkpt lat="46.265649273991585" lon="9.203931502997875">
        <ele>1003.27</ele>
        <time>2013-10-27T12:28:11Z</time>
      </trkpt>
      <trkpt lat="46.265605939552188" lon="9.203820191323757">
        <ele>1002.3099999999999</ele>
        <time>2013-10-27T12:28:25Z</time>
      </trkpt>
      <trkpt lat="46.265637958422303" lon="9.203680045902729">
        <ele>1000.87</ele>
        <time>2013-10-27T12:28:40Z</time>
      </trkpt>
      <trkpt lat="46.265635276213288" lon="9.20353252440691">
        <ele>999.42999999999995</ele>
        <time>2013-10-27T12:28:54Z</time>
      </trkpt>
      <trkpt lat="46.265611220151186" lon="9.203416435047984">
        <ele>998.95000000000005</ele>
        <time>2013-10-27T12:29:05Z</time>
      </trkpt>
      <trkpt lat="46.265657907351851" lon="9.203342758119106">
        <ele>998.47000000000003</ele>
        <time>2013-10-27T12:29:12Z</time>
      </trkpt>
      <trkpt lat="46.265654470771551" lon="9.203174952417612">
        <ele>997.01999999999998</ele>
        <time>2013-10-27T12:29:26Z</time>
      </trkpt>
      <trkpt lat="46.265648687258363" lon="9.203146873041987">
        <ele>997.01999999999998</ele>
        <time>2013-10-27T12:29:27Z</time>
      </trkpt>
      <trkpt lat="46.265674000605941" lon="9.202946294099093">
        <ele>996.05999999999995</ele>
        <time>2013-10-27T12:29:39Z</time>
      </trkpt>
      <trkpt lat="46.265719262883067" lon="9.202773459255695">
        <ele>994.62</ele>
        <time>2013-10-27T12:29:52Z</time>
      </trkpt>
      <trkpt lat="46.265740636736155" lon="9.202655777335167">
        <ele>994.13999999999999</ele>
        <time>2013-10-27T12:30:06Z</time>
      </trkpt>
      <trkpt lat="46.265751114115119" lon="9.202569276094437">
        <ele>993.17999999999995</ele>
        <time>2013-10-27T12:30:18Z</time>
      </trkpt>
      <trkpt lat="46.265759663656354" lon="9.202481349930167">
        <ele>992.22000000000003</ele>
        <time>2013-10-27T12:30:32Z</time>
      </trkpt>
      <trkpt lat="46.265745330601931" lon="9.202412618324161">
        <ele>991.74000000000001</ele>
        <time>2013-10-27T12:30:37Z</time>
      </trkpt>
      <trkpt lat="46.265734769403934" lon="9.202346736565232">
        <ele>989.80999999999995</ele>
        <time>2013-10-27T12:30:43Z</time>
      </trkpt>
      <trkpt lat="46.265733763575554" lon="9.202248165383935">
        <ele>987.88999999999999</ele>
        <time>2013-10-27T12:30:56Z</time>
      </trkpt>
      <trkpt lat="46.265716077759862" lon="9.202147414907813">
        <ele>986.92999999999995</ele>
        <time>2013-10-27T12:31:10Z</time>
      </trkpt>
      <trkpt lat="46.265651537105441" lon="9.20214531943202">
        <ele>985.00999999999999</ele>
        <time>2013-10-27T12:31:26Z</time>
      </trkpt>
      <trkpt lat="46.265633683651686" lon="9.201980279758573">
        <ele>984.52999999999997</ele>
        <time>2013-10-27T12:31:41Z</time>
      </trkpt>
      <trkpt lat="46.265609627589583" lon="9.201890006661415">
        <ele>983.57000000000005</ele>
        <time>2013-10-27T12:31:53Z</time>
      </trkpt>
      <trkpt lat="46.265615578740835" lon="9.201622037217021">
        <ele>981.63999999999999</ele>
        <time>2013-10-27T12:32:14Z</time>
      </trkpt>
      <trkpt lat="46.265634773299098" lon="9.201517514884472">
        <ele>980.67999999999995</ele>
        <time>2013-10-27T12:32:33Z</time>
      </trkpt>
      <trkpt lat="46.265660254284739" lon="9.201456410810351">
        <ele>982.12</ele>
        <time>2013-10-27T12:32:44Z</time>
      </trkpt>
      <trkpt lat="46.265700738877058" lon="9.201256250962615">
        <ele>983.09000000000003</ele>
        <time>2013-10-27T12:33:05Z</time>
      </trkpt>
      <trkpt lat="46.265809871256351" lon="9.201010577380657">
        <ele>982.60000000000002</ele>
        <time>2013-10-27T12:33:26Z</time>
      </trkpt>
      <trkpt lat="46.265751114115119" lon="9.200880657881498">
        <ele>979.24000000000001</ele>
        <time>2013-10-27T12:33:41Z</time>
      </trkpt>
      <trkpt lat="46.265696967020631" lon="9.200698686763644">
        <ele>977.32000000000005</ele>
        <time>2013-10-27T12:33:55Z</time>
      </trkpt>
      <trkpt lat="46.265667546540499" lon="9.200556194409728">
        <ele>975.88</ele>
        <time>2013-10-27T12:34:07Z</time>
      </trkpt>
      <trkpt lat="46.265632761642337" lon="9.200365506112576">
        <ele>975.88</ele>
        <time>2013-10-27T12:34:24Z</time>
      </trkpt>
      <trkpt lat="46.265595713630319" lon="9.200162999331951">
        <ele>974.90999999999997</ele>
        <time>2013-10-27T12:34:37Z</time>
      </trkpt>
      <trkpt lat="46.265679365023971" lon="9.199964515864849">
        <ele>972.50999999999999</ele>
        <time>2013-10-27T12:34:54Z</time>
      </trkpt>
      <trkpt lat="46.265732171013951" lon="9.199886061251164">
        <ele>971.07000000000005</ele>
        <time>2013-10-27T12:35:07Z</time>
      </trkpt>
      <trkpt lat="46.265767626464367" lon="9.199788244441152">
        <ele>968.66999999999996</ele>
        <time>2013-10-27T12:35:21Z</time>
      </trkpt>
      <trkpt lat="46.26578732393682" lon="9.199686571955681">
        <ele>967.22000000000003</ele>
        <time>2013-10-27T12:35:33Z</time>
      </trkpt>
      <trkpt lat="46.2658557202667" lon="9.19959126971662">
        <ele>964.82000000000005</ele>
        <time>2013-10-27T12:35:46Z</time>
      </trkpt>
      <trkpt lat="46.265912549570203" lon="9.199363449588418">
        <ele>963.38</ele>
        <time>2013-10-27T12:36:04Z</time>
      </trkpt>
      <trkpt lat="46.265954291447997" lon="9.199291449040175">
        <ele>962.89999999999998</ele>
        <time>2013-10-27T12:36:11Z</time>
      </trkpt>
      <trkpt lat="46.265922356396914" lon="9.199206121265888">
        <ele>962.41999999999996</ele>
        <time>2013-10-27T12:36:15Z</time>
      </trkpt>
      <trkpt lat="46.266005421057343" lon="9.199096318334341">
        <ele>961.94000000000005</ele>
        <time>2013-10-27T12:36:25Z</time>
      </trkpt>
      <trkpt lat="46.266074068844318" lon="9.199034795165062">
        <ele>961.94000000000005</ele>
        <time>2013-10-27T12:36:31Z</time>
      </trkpt>
      <trkpt lat="46.266120001673698" lon="9.198863217607141">
        <ele>961.46000000000004</ele>
        <time>2013-10-27T12:36:44Z</time>
      </trkpt>
      <trkpt lat="46.266120923683047" lon="9.198662806302309">
        <ele>963.86000000000001</ele>
        <time>2013-10-27T12:37:01Z</time>
      </trkpt>
      <trkpt lat="46.266120923683047" lon="9.198530707508326">
        <ele>963.86000000000001</ele>
        <time>2013-10-27T12:37:21Z</time>
      </trkpt>
      <trkpt lat="46.266120253130794" lon="9.1983628179878">
        <ele>963.86000000000001</ele>
        <time>2013-10-27T12:37:35Z</time>
      </trkpt>
      <trkpt lat="46.266178004443645" lon="9.198230719193816">
        <ele>964.34000000000003</ele>
        <time>2013-10-27T12:37:48Z</time>
      </trkpt>
      <trkpt lat="46.266265511512756" lon="9.198139188811183">
        <ele>965.77999999999997</ele>
        <time>2013-10-27T12:38:03Z</time>
      </trkpt>
      <trkpt lat="46.26632041297853" lon="9.197951434180141">
        <ele>968.17999999999995</ele>
        <time>2013-10-27T12:38:21Z</time>
      </trkpt>
      <trkpt lat="46.266384031623602" lon="9.197813635692">
        <ele>968.66999999999996</ele>
        <time>2013-10-27T12:38:35Z</time>
      </trkpt>
      <trkpt lat="46.266445554792881" lon="9.197744317352772">
        <ele>969.63</ele>
        <time>2013-10-27T12:38:47Z</time>
      </trkpt>
      <trkpt lat="46.266519231721759" lon="9.197705509141088">
        <ele>970.11000000000001</ele>
        <time>2013-10-27T12:38:59Z</time>
      </trkpt>
      <trkpt lat="46.266555190086365" lon="9.197681955993176">
        <ele>968.66999999999996</ele>
        <time>2013-10-27T12:39:13Z</time>
      </trkpt>
      <trkpt lat="46.266490146517754" lon="9.197531081736088">
        <ele>967.22000000000003</ele>
        <time>2013-10-27T12:39:27Z</time>
      </trkpt>
      <trkpt lat="46.266452930867672" lon="9.197461428120732">
        <ele>965.77999999999997</ele>
        <time>2013-10-27T12:39:41Z</time>
      </trkpt>
      <trkpt lat="46.266445051878691" lon="9.197329580783844">
        <ele>964.82000000000005</ele>
        <time>2013-10-27T12:39:52Z</time>
      </trkpt>
      <trkpt lat="46.266465587541461" lon="9.19719404540956">
        <ele>963.86000000000001</ele>
        <time>2013-10-27T12:40:05Z</time>
      </trkpt>
      <trkpt lat="46.266482518985868" lon="9.197066472843289">
        <ele>963.86000000000001</ele>
        <time>2013-10-27T12:40:19Z</time>
      </trkpt>
      <trkpt lat="46.266446895897388" lon="9.197020120918751">
        <ele>962.89999999999998</ele>
        <time>2013-10-27T12:40:22Z</time>
      </trkpt>
      <trkpt lat="46.266434155404568" lon="9.196944767609239">
        <ele>961.46000000000004</ele>
        <time>2013-10-27T12:40:35Z</time>
      </trkpt>
      <trkpt lat="46.266376320272684" lon="9.196857009083033">
        <ele>959.52999999999997</ele>
        <time>2013-10-27T12:40:48Z</time>
      </trkpt>
      <trkpt lat="46.266408758237958" lon="9.196744775399566">
        <ele>957.61000000000001</ele>
        <time>2013-10-27T12:41:02Z</time>
      </trkpt>
      <trkpt lat="46.26643474213779" lon="9.196696579456329">
        <ele>956.16999999999996</ele>
        <time>2013-10-27T12:41:14Z</time>
      </trkpt>
      <trkpt lat="46.266457205638289" lon="9.196634721010923">
        <ele>953.76999999999998</ele>
        <time>2013-10-27T12:41:29Z</time>
      </trkpt>
      <trkpt lat="46.266408674418926" lon="9.19655785895884">
        <ele>952.79999999999995</ele>
        <time>2013-10-27T12:41:47Z</time>
      </trkpt>
      <trkpt lat="46.266378164291382" lon="9.196555092930794">
        <ele>950.88</ele>
        <time>2013-10-27T12:42:01Z</time>
      </trkpt>
      <trkpt lat="46.266373135149479" lon="9.196530450135469">
        <ele>948.48000000000002</ele>
        <time>2013-10-27T12:42:12Z</time>
      </trkpt>
      <trkpt lat="46.266329884529114" lon="9.196425760164857">
        <ele>945.59000000000003</ele>
        <time>2013-10-27T12:42:26Z</time>
      </trkpt>
      <trkpt lat="46.266286801546812" lon="9.196354262530804">
        <ele>945.11000000000001</ele>
        <time>2013-10-27T12:42:31Z</time>
      </trkpt>
      <trkpt lat="46.26629451289773" lon="9.196210848167539">
        <ele>944.14999999999998</ele>
        <time>2013-10-27T12:42:45Z</time>
      </trkpt>
      <trkpt lat="46.266304738819599" lon="9.196032816544175">
        <ele>942.71000000000004</ele>
        <time>2013-10-27T12:43:01Z</time>
      </trkpt>
      <trkpt lat="46.266301386058331" lon="9.195895520970225">
        <ele>942.23000000000002</ele>
        <time>2013-10-27T12:43:14Z</time>
      </trkpt>
      <trkpt lat="46.266320161521435" lon="9.195717656984925">
        <ele>942.23000000000002</ele>
        <time>2013-10-27T12:43:29Z</time>
      </trkpt>
      <trkpt lat="46.266327705234289" lon="9.195539206266403">
        <ele>942.23000000000002</ele>
        <time>2013-10-27T12:43:42Z</time>
      </trkpt>
      <trkpt lat="46.266364753246307" lon="9.195407191291452">
        <ele>941.26999999999998</ele>
        <time>2013-10-27T12:43:56Z</time>
      </trkpt>
      <trkpt lat="46.266319993883371" lon="9.19518624432385">
        <ele>939.83000000000004</ele>
        <time>2013-10-27T12:44:10Z</time>
      </trkpt>
      <trkpt lat="46.266300128772855" lon="9.195039896294475">
        <ele>938.38</ele>
        <time>2013-10-27T12:44:24Z</time>
      </trkpt>
      <trkpt lat="46.266310103237629" lon="9.194991365075111">
        <ele>936.94000000000005</ele>
        <time>2013-10-27T12:44:38Z</time>
      </trkpt>
      <trkpt lat="46.266293926164508" lon="9.194917771965265">
        <ele>935.5</ele>
        <time>2013-10-27T12:44:49Z</time>
      </trkpt>
      <trkpt lat="46.266337512061" lon="9.194841329008341">
        <ele>934.53999999999996</ele>
        <time>2013-10-27T12:44:59Z</time>
      </trkpt>
      <trkpt lat="46.266467766836286" lon="9.194761952385306">
        <ele>932.13999999999999</ele>
        <time>2013-10-27T12:45:14Z</time>
      </trkpt>
      <trkpt lat="46.266474053263664" lon="9.194678300991654">
        <ele>930.21000000000004</ele>
        <time>2013-10-27T12:45:27Z</time>
      </trkpt>
      <trkpt lat="46.266531217843294" lon="9.194604121148586">
        <ele>929.25</ele>
        <time>2013-10-27T12:45:39Z</time>
      </trkpt>
      <trkpt lat="46.266560386866331" lon="9.194464394822717">
        <ele>926.85000000000002</ele>
        <time>2013-10-27T12:45:54Z</time>
      </trkpt>
      <trkpt lat="46.26662727445364" lon="9.194356435909867">
        <ele>924.92999999999995</ele>
        <time>2013-10-27T12:46:07Z</time>
      </trkpt>
      <trkpt lat="46.266717379912734" lon="9.194318968802691">
        <ele>923.48000000000002</ele>
        <time>2013-10-27T12:46:19Z</time>
      </trkpt>
      <trkpt lat="46.26677286811173" lon="9.194245291873813">
        <ele>923</ele>
        <time>2013-10-27T12:46:32Z</time>
      </trkpt>
      <trkpt lat="46.266797930002213" lon="9.194169770926237">
        <ele>921.08000000000004</ele>
        <time>2013-10-27T12:46:47Z</time>
      </trkpt>
      <trkpt lat="46.266815699636936" lon="9.194036917760968">
        <ele>918.20000000000005</ele>
        <time>2013-10-27T12:47:03Z</time>
      </trkpt>
      <trkpt lat="46.266947882249951" lon="9.193939184769988">
        <ele>918.20000000000005</ele>
        <time>2013-10-27T12:47:20Z</time>
      </trkpt>
      <trkpt lat="46.267010243609548" lon="9.193778419867158">
        <ele>920.12</ele>
        <time>2013-10-27T12:47:35Z</time>
      </trkpt>
      <trkpt lat="46.267081489786506" lon="9.193675490096211">
        <ele>921.55999999999995</ele>
        <time>2013-10-27T12:47:48Z</time>
      </trkpt>
      <trkpt lat="46.267098756507039" lon="9.193644560873509">
        <ele>920.12</ele>
        <time>2013-10-27T12:47:53Z</time>
      </trkpt>
      <trkpt lat="46.267186431214213" lon="9.193559736013413">
        <ele>918.67999999999995</ele>
        <time>2013-10-27T12:48:06Z</time>
      </trkpt>
      <trkpt lat="46.267234124243259" lon="9.193470804020762">
        <ele>917.72000000000003</ele>
        <time>2013-10-27T12:48:17Z</time>
      </trkpt>
      <trkpt lat="46.267220126464963" lon="9.193265531212091">
        <ele>916.75</ele>
        <time>2013-10-27T12:48:29Z</time>
      </trkpt>
      <trkpt lat="46.267260694876313" lon="9.193139467388392">
        <ele>915.78999999999996</ele>
        <time>2013-10-27T12:48:42Z</time>
      </trkpt>
      <trkpt lat="46.267284080386162" lon="9.193023042753339">
        <ele>913.87</ele>
        <time>2013-10-27T12:48:54Z</time>
      </trkpt>
      <trkpt lat="46.267297826707363" lon="9.192881556227803">
        <ele>912.42999999999995</ele>
        <time>2013-10-27T12:49:07Z</time>
      </trkpt>
      <trkpt lat="46.267288774251938" lon="9.192664884030819">
        <ele>911.47000000000003</ele>
        <time>2013-10-27T12:49:22Z</time>
      </trkpt>
      <trkpt lat="46.267285840585828" lon="9.192522810772061">
        <ele>909.53999999999996</ele>
        <time>2013-10-27T12:49:35Z</time>
      </trkpt>
      <trkpt lat="46.267275949940085" lon="9.192337235435844">
        <ele>908.10000000000002</ele>
        <time>2013-10-27T12:49:51Z</time>
      </trkpt>
      <trkpt lat="46.267244014889002" lon="9.192181248217821">
        <ele>906.17999999999995</ele>
        <time>2013-10-27T12:50:05Z</time>
      </trkpt>
      <trkpt lat="46.267228592187166" lon="9.192135483026505">
        <ele>905.70000000000005</ele>
        <time>2013-10-27T12:50:22Z</time>
      </trkpt>
      <trkpt lat="46.267186095938087" lon="9.192094327881932">
        <ele>905.22000000000003</ele>
        <time>2013-10-27T12:50:40Z</time>
      </trkpt>
      <trkpt lat="46.267147287726402" lon="9.191959295421839">
        <ele>904.74000000000001</ele>
        <time>2013-10-27T12:50:53Z</time>
      </trkpt>
      <trkpt lat="46.267152400687337" lon="9.191830046474934">
        <ele>902.82000000000005</ele>
        <time>2013-10-27T12:51:05Z</time>
      </trkpt>
      <trkpt lat="46.267144270241261" lon="9.191694092005491">
        <ele>901.37</ele>
        <time>2013-10-27T12:51:18Z</time>
      </trkpt>
      <trkpt lat="46.26710370182991" lon="9.191493429243565">
        <ele>899.45000000000005</ele>
        <time>2013-10-27T12:51:32Z</time>
      </trkpt>
      <trkpt lat="46.267091715708375" lon="9.191270973533392">
        <ele>898.49000000000001</ele>
        <time>2013-10-27T12:51:47Z</time>
      </trkpt>
      <trkpt lat="46.267076209187508" lon="9.191129822283983">
        <ele>895.12</ele>
        <time>2013-10-27T12:52:02Z</time>
      </trkpt>
      <trkpt lat="46.267052991315722" lon="9.190895715728402">
        <ele>893.67999999999995</ele>
        <time>2013-10-27T12:52:16Z</time>
      </trkpt>
      <trkpt lat="46.267020218074322" lon="9.190831426531076">
        <ele>893.20000000000005</ele>
        <time>2013-10-27T12:52:27Z</time>
      </trkpt>
      <trkpt lat="46.266997754573822" lon="9.190709302201867">
        <ele>892.72000000000003</ele>
        <time>2013-10-27T12:52:40Z</time>
      </trkpt>
      <trkpt lat="46.26698249951005" lon="9.190593296661973">
        <ele>890.32000000000005</ele>
        <time>2013-10-27T12:52:53Z</time>
      </trkpt>
      <trkpt lat="46.2669160310179" lon="9.19039523229003">
        <ele>889.36000000000001</ele>
        <time>2013-10-27T12:53:05Z</time>
      </trkpt>
      <trkpt lat="46.266886526718736" lon="9.190276628360152">
        <ele>887.90999999999997</ele>
        <time>2013-10-27T12:53:18Z</time>
      </trkpt>
      <trkpt lat="46.266860626637936" lon="9.190175207331777">
        <ele>886.47000000000003</ele>
        <time>2013-10-27T12:53:29Z</time>
      </trkpt>
      <trkpt lat="46.266771191731095" lon="9.190100692212582">
        <ele>883.11000000000001</ele>
        <time>2013-10-27T12:53:44Z</time>
      </trkpt>
      <trkpt lat="46.266723666340113" lon="9.190024919807911">
        <ele>882.14999999999998</ele>
        <time>2013-10-27T12:53:56Z</time>
      </trkpt>
      <trkpt lat="46.266691982746124" lon="9.189828783273697">
        <ele>880.71000000000004</ele>
        <time>2013-10-27T12:54:08Z</time>
      </trkpt>
      <trkpt lat="46.266643367707729" lon="9.189681764692068">
        <ele>879.25999999999999</ele>
        <time>2013-10-27T12:54:22Z</time>
      </trkpt>
      <trkpt lat="46.266617719084024" lon="9.189494429156184">
        <ele>877.82000000000005</ele>
        <time>2013-10-27T12:54:34Z</time>
      </trkpt>
      <trkpt lat="46.2665671762079" lon="9.189230985939503">
        <ele>875.89999999999998</ele>
        <time>2013-10-27T12:54:52Z</time>
      </trkpt>
      <trkpt lat="46.266514202579856" lon="9.189025210216641">
        <ele>873.98000000000002</ele>
        <time>2013-10-27T12:55:09Z</time>
      </trkpt>
      <trkpt lat="46.266433736309409" lon="9.188866624608636">
        <ele>872.52999999999997</ele>
        <time>2013-10-27T12:55:25Z</time>
      </trkpt>
      <trkpt lat="46.266400795429945" lon="9.188710385933518">
        <ele>871.09000000000003</ele>
        <time>2013-10-27T12:55:38Z</time>
      </trkpt>
      <trkpt lat="46.266383780166507" lon="9.188579209148884">
        <ele>870.13</ele>
        <time>2013-10-27T12:55:50Z</time>
      </trkpt>
      <trkpt lat="46.266316892579198" lon="9.188357340171933">
        <ele>868.21000000000004</ele>
        <time>2013-10-27T12:56:08Z</time>
      </trkpt>
      <trkpt lat="46.266211867332458" lon="9.188096914440393">
        <ele>865.79999999999995</ele>
        <time>2013-10-27T12:56:28Z</time>
      </trkpt>
      <trkpt lat="46.266105249524117" lon="9.187815031036735">
        <ele>863.88</ele>
        <time>2013-10-27T12:56:47Z</time>
      </trkpt>
      <trkpt lat="46.2660370208323" lon="9.187590312212706">
        <ele>861</ele>
        <time>2013-10-27T12:57:08Z</time>
      </trkpt>
      <trkpt lat="46.26589092426002" lon="9.187489310279489">
        <ele>858.11000000000001</ele>
        <time>2013-10-27T12:57:29Z</time>
      </trkpt>
      <trkpt lat="46.265865694731474" lon="9.187277080491185">
        <ele>856.19000000000005</ele>
        <time>2013-10-27T12:57:41Z</time>
      </trkpt>
      <trkpt lat="46.265834094956517" lon="9.187172641977668">
        <ele>855.23000000000002</ele>
        <time>2013-10-27T12:57:54Z</time>
      </trkpt>
      <trkpt lat="46.265805177390575" lon="9.187109861522913">
        <ele>853.78999999999996</ele>
        <time>2013-10-27T12:58:00Z</time>
      </trkpt>
      <trkpt lat="46.265750108286738" lon="9.186960076913238">
        <ele>852.35000000000002</ele>
        <time>2013-10-27T12:58:11Z</time>
      </trkpt>
      <trkpt lat="46.265749521553516" lon="9.186882963404059">
        <ele>850.89999999999998</ele>
        <time>2013-10-27T12:58:27Z</time>
      </trkpt>
      <trkpt lat="46.265727309510112" lon="9.186764024198055">
        <ele>848.98000000000002</ele>
        <time>2013-10-27T12:58:39Z</time>
      </trkpt>
      <trkpt lat="46.265672240406275" lon="9.186597559601069">
        <ele>847.05999999999995</ele>
        <time>2013-10-27T12:58:52Z</time>
      </trkpt>
      <trkpt lat="46.265609208494425" lon="9.186463952064514">
        <ele>844.65999999999997</ele>
        <time>2013-10-27T12:59:03Z</time>
      </trkpt>
      <trkpt lat="46.265551373362541" lon="9.186333110556006">
        <ele>841.76999999999998</ele>
        <time>2013-10-27T12:59:18Z</time>
      </trkpt>
      <trkpt lat="46.265490185469389" lon="9.186175111681223">
        <ele>838.88999999999999</ele>
        <time>2013-10-27T12:59:31Z</time>
      </trkpt>
      <trkpt lat="46.26545213162899" lon="9.18599565513432">
        <ele>836</ele>
        <time>2013-10-27T12:59:46Z</time>
      </trkpt>
      <trkpt lat="46.265439307317138" lon="9.185931365936995">
        <ele>835.03999999999996</ele>
        <time>2013-10-27T12:59:51Z</time>
      </trkpt>
      <trkpt lat="46.265353644266725" lon="9.185683848336339">
        <ele>832.15999999999997</ele>
        <time>2013-10-27T13:00:07Z</time>
      </trkpt>
      <trkpt lat="46.265323469415307" lon="9.185524675995112">
        <ele>829.75999999999999</ele>
        <time>2013-10-27T13:00:20Z</time>
      </trkpt>
      <trkpt lat="46.26537443138659" lon="9.185397103428841">
        <ele>827.35000000000002</ele>
        <time>2013-10-27T13:00:34Z</time>
      </trkpt>
      <trkpt lat="46.265392955392599" lon="9.185293167829514">
        <ele>824.95000000000005</ele>
        <time>2013-10-27T13:00:47Z</time>
      </trkpt>
      <trkpt lat="46.265359008684754" lon="9.185152854770422">
        <ele>823.99000000000001</ele>
        <time>2013-10-27T13:00:57Z</time>
      </trkpt>
      <trkpt lat="46.265363451093435" lon="9.185063755139709">
        <ele>821.58000000000004</ele>
        <time>2013-10-27T13:01:08Z</time>
      </trkpt>
      <trkpt lat="46.265395469963551" lon="9.185030981898308">
        <ele>821.10000000000002</ele>
        <time>2013-10-27T13:01:21Z</time>
      </trkpt>
      <trkpt lat="46.265410641208291" lon="9.185037016868591">
        <ele>820.62</ele>
        <time>2013-10-27T13:01:48Z</time>
      </trkpt>
      <trkpt lat="46.265375437214971" lon="9.184993430972099">
        <ele>820.13999999999999</ele>
        <time>2013-10-27T13:02:08Z</time>
      </trkpt>
      <trkpt lat="46.265384238213301" lon="9.18502670712769">
        <ele>819.65999999999997</ele>
        <time>2013-10-27T13:02:39Z</time>
      </trkpt>
      <trkpt lat="46.265375353395939" lon="9.185055289417505">
        <ele>819.17999999999995</ele>
        <time>2013-10-27T13:02:56Z</time>
      </trkpt>
      <trkpt lat="46.265307543799281" lon="9.185021510347724">
        <ele>819.17999999999995</ele>
        <time>2013-10-27T13:03:17Z</time>
      </trkpt>
      <trkpt lat="46.265247780829668" lon="9.185025198385119">
        <ele>818.70000000000005</ele>
        <time>2013-10-27T13:03:37Z</time>
      </trkpt>
      <trkpt lat="46.265312237665057" lon="9.184844316914678">
        <ele>816.77999999999997</ele>
        <time>2013-10-27T13:03:55Z</time>
      </trkpt>
      <trkpt lat="46.265416173264384" lon="9.184859739616513">
        <ele>815.82000000000005</ele>
        <time>2013-10-27T13:04:10Z</time>
      </trkpt>
      <trkpt lat="46.265424806624651" lon="9.184765107929707">
        <ele>814.85000000000002</ele>
        <time>2013-10-27T13:04:24Z</time>
      </trkpt>
      <trkpt lat="46.265385746955872" lon="9.18477600440383">
        <ele>814.37</ele>
        <time>2013-10-27T13:04:42Z</time>
      </trkpt>
      <trkpt lat="46.265351716428995" lon="9.184778099879623">
        <ele>814.37</ele>
        <time>2013-10-27T13:05:04Z</time>
      </trkpt>
      <trkpt lat="46.265385830774903" lon="9.184667710214853">
        <ele>812.45000000000005</ele>
        <time>2013-10-27T13:05:20Z</time>
      </trkpt>
      <trkpt lat="46.265412736684084" lon="9.184508034959436">
        <ele>811.00999999999999</ele>
        <time>2013-10-27T13:05:36Z</time>
      </trkpt>
      <trkpt lat="46.265423968434334" lon="9.184376103803515">
        <ele>808.61000000000001</ele>
        <time>2013-10-27T13:05:49Z</time>
      </trkpt>
      <trkpt lat="46.265397649258375" lon="9.184294464066625">
        <ele>806.67999999999995</ele>
        <time>2013-10-27T13:06:00Z</time>
      </trkpt>
      <trkpt lat="46.265390273183584" lon="9.184160772711039">
        <ele>804.27999999999997</ele>
        <time>2013-10-27T13:06:14Z</time>
      </trkpt>
      <trkpt lat="46.265430590137839" lon="9.184017358347774">
        <ele>801.88</ele>
        <time>2013-10-27T13:06:30Z</time>
      </trkpt>
      <trkpt lat="46.265498315915465" lon="9.183834129944444">
        <ele>799.47000000000003</ele>
        <time>2013-10-27T13:06:51Z</time>
      </trkpt>
      <trkpt lat="46.265507955104113" lon="9.183676298707724">
        <ele>797.07000000000005</ele>
        <time>2013-10-27T13:07:05Z</time>
      </trkpt>
      <trkpt lat="46.265499237924814" lon="9.183540511876345">
        <ele>793.71000000000004</ele>
        <time>2013-10-27T13:07:18Z</time>
      </trkpt>
      <trkpt lat="46.265497310087085" lon="9.183417214080691">
        <ele>790.82000000000005</ele>
        <time>2013-10-27T13:07:32Z</time>
      </trkpt>
      <trkpt lat="46.265501836314797" lon="9.183215880766511">
        <ele>787.94000000000005</ele>
        <time>2013-10-27T13:07:48Z</time>
      </trkpt>
      <trkpt lat="46.265543662011623" lon="9.183141114190221">
        <ele>786.01999999999998</ele>
        <time>2013-10-27T13:08:02Z</time>
      </trkpt>
      <trkpt lat="46.265592444688082" lon="9.183017984032631">
        <ele>783.61000000000001</ele>
        <time>2013-10-27T13:08:14Z</time>
      </trkpt>
      <trkpt lat="46.265609711408615" lon="9.182894770056009">
        <ele>780.73000000000002</ele>
        <time>2013-10-27T13:08:27Z</time>
      </trkpt>
      <trkpt lat="46.265677018091083" lon="9.182801814749837">
        <ele>778.32000000000005</ele>
        <time>2013-10-27T13:08:40Z</time>
      </trkpt>
      <trkpt lat="46.265755388885736" lon="9.182773400098085">
        <ele>776.39999999999998</ele>
        <time>2013-10-27T13:08:55Z</time>
      </trkpt>
      <trkpt lat="46.26584155485034" lon="9.182658735662699">
        <ele>774</ele>
        <time>2013-10-27T13:09:08Z</time>
      </trkpt>
      <trkpt lat="46.265911962836981" lon="9.182627722620964">
        <ele>771.60000000000002</ele>
        <time>2013-10-27T13:09:19Z</time>
      </trkpt>
      <trkpt lat="46.265966445207596" lon="9.182574162259698">
        <ele>770.14999999999998</ele>
        <time>2013-10-27T13:09:35Z</time>
      </trkpt>
      <trkpt lat="46.266003912314773" lon="9.182477267459035">
        <ele>767.75</ele>
        <time>2013-10-27T13:09:48Z</time>
      </trkpt>
      <trkpt lat="46.266064262017608" lon="9.182372158393264">
        <ele>765.83000000000004</ele>
        <time>2013-10-27T13:10:02Z</time>
      </trkpt>
      <trkpt lat="46.266152355819941" lon="9.182332679629326">
        <ele>763.89999999999998</ele>
        <time>2013-10-27T13:10:16Z</time>
      </trkpt>
      <trkpt lat="46.266230056062341" lon="9.182323878630996">
        <ele>760.53999999999996</ele>
        <time>2013-10-27T13:10:30Z</time>
      </trkpt>
      <trkpt lat="46.266333321109414" lon="9.182286746799946">
        <ele>759.10000000000002</ele>
        <time>2013-10-27T13:10:44Z</time>
      </trkpt>
      <trkpt lat="46.266301134601235" lon="9.18217116035521">
        <ele>757.17999999999995</ele>
        <time>2013-10-27T13:10:57Z</time>
      </trkpt>
      <trkpt lat="46.266273222863674" lon="9.182119276374579">
        <ele>754.28999999999996</ele>
        <time>2013-10-27T13:11:10Z</time>
      </trkpt>
      <trkpt lat="46.266265176236629" lon="9.182072170078754">
        <ele>750.45000000000005</ele>
        <time>2013-10-27T13:11:21Z</time>
      </trkpt>
      <trkpt lat="46.266262996941805" lon="9.182026321068406">
        <ele>750.45000000000005</ele>
        <time>2013-10-27T13:11:26Z</time>
      </trkpt>
      <trkpt lat="46.266229720786214" lon="9.181805877014995">
        <ele>749</ele>
        <time>2013-10-27T13:11:42Z</time>
      </trkpt>
      <trkpt lat="46.266239946708083" lon="9.181676376610994">
        <ele>747.08000000000004</ele>
        <time>2013-10-27T13:11:52Z</time>
      </trkpt>
      <trkpt lat="46.266289902850986" lon="9.181552408263087">
        <ele>745.63999999999999</ele>
        <time>2013-10-27T13:12:04Z</time>
      </trkpt>
      <trkpt lat="46.266339523717761" lon="9.181464985013008">
        <ele>742.75999999999999</ele>
        <time>2013-10-27T13:12:17Z</time>
      </trkpt>
      <trkpt lat="46.266297362744808" lon="9.181427182629705">
        <ele>739.38999999999999</ele>
        <time>2013-10-27T13:12:31Z</time>
      </trkpt>
      <trkpt lat="46.26625687815249" lon="9.181381668895483">
        <ele>736.99000000000001</ele>
        <time>2013-10-27T13:12:43Z</time>
      </trkpt>
      <trkpt lat="46.266221338883042" lon="9.181308830156922">
        <ele>734.58000000000004</ele>
        <time>2013-10-27T13:12:55Z</time>
      </trkpt>
      <trkpt lat="46.266219327226281" lon="9.181182850152254">
        <ele>731.22000000000003</ele>
        <time>2013-10-27T13:13:06Z</time>
      </trkpt>
      <trkpt lat="46.266256710514426" lon="9.181118980050087">
        <ele>729.77999999999997</ele>
        <time>2013-10-27T13:13:19Z</time>
      </trkpt>
      <trkpt lat="46.266280431300402" lon="9.181056283414364">
        <ele>727.37</ele>
        <time>2013-10-27T13:13:26Z</time>
      </trkpt>
      <trkpt lat="46.266191331669688" lon="9.181012362241745">
        <ele>724.00999999999999</ele>
        <time>2013-10-27T13:13:38Z</time>
      </trkpt>
      <trkpt lat="46.266088737174869" lon="9.18092368170619">
        <ele>721.13</ele>
        <time>2013-10-27T13:13:53Z</time>
      </trkpt>
      <trkpt lat="46.266050599515438" lon="9.180836426094174">
        <ele>718.24000000000001</ele>
        <time>2013-10-27T13:14:06Z</time>
      </trkpt>
      <trkpt lat="46.266088904812932" lon="9.180828128010035">
        <ele>717.75999999999999</ele>
        <time>2013-10-27T13:14:09Z</time>
      </trkpt>
      <trkpt lat="46.266180770471692" lon="9.18075654655695">
        <ele>715.36000000000001</ele>
        <time>2013-10-27T13:14:21Z</time>
      </trkpt>
      <trkpt lat="46.266236091032624" lon="9.180713044479489">
        <ele>713.44000000000005</ele>
        <time>2013-10-27T13:14:35Z</time>
      </trkpt>
      <trkpt lat="46.266295770183206" lon="9.180601397529244">
        <ele>711.02999999999997</ele>
        <time>2013-10-27T13:14:46Z</time>
      </trkpt>
      <trkpt lat="46.266412446275353" lon="9.180575329810381">
        <ele>709.11000000000001</ele>
        <time>2013-10-27T13:15:01Z</time>
      </trkpt>
      <trkpt lat="46.266461228951812" lon="9.180512046441436">
        <ele>706.71000000000004</ele>
        <time>2013-10-27T13:15:17Z</time>
      </trkpt>
      <trkpt lat="46.266563991084695" lon="9.18051422573626">
        <ele>703.82000000000005</ele>
        <time>2013-10-27T13:15:28Z</time>
      </trkpt>
      <trkpt lat="46.266646049916744" lon="9.180530067533255">
        <ele>701.41999999999996</ele>
        <time>2013-10-27T13:15:39Z</time>
      </trkpt>
      <trkpt lat="46.266713440418243" lon="9.180494612082839">
        <ele>699.5</ele>
        <time>2013-10-27T13:15:50Z</time>
      </trkpt>
      <trkpt lat="46.266795750707388" lon="9.180490085855126">
        <ele>697.57000000000005</ele>
        <time>2013-10-27T13:16:02Z</time>
      </trkpt>
      <trkpt lat="46.266875630244613" lon="9.180480446666479">
        <ele>696.13</ele>
        <time>2013-10-27T13:16:16Z</time>
      </trkpt>
      <trkpt lat="46.266916869208217" lon="9.180545406416059">
        <ele>695.16999999999996</ele>
        <time>2013-10-27T13:16:33Z</time>
      </trkpt>
      <trkpt lat="46.266998760402203" lon="9.180473824962974">
        <ele>692.28999999999996</ele>
        <time>2013-10-27T13:16:43Z</time>
      </trkpt>
      <trkpt lat="46.267076041549444" lon="9.18034172616899">
        <ele>688.91999999999996</ele>
        <time>2013-10-27T13:16:57Z</time>
      </trkpt>
      <trkpt lat="46.267115771770477" lon="9.180347928777337">
        <ele>685.55999999999995</ele>
        <time>2013-10-27T13:17:09Z</time>
      </trkpt>
      <trkpt lat="46.267260191962123" lon="9.180401153862476">
        <ele>683.14999999999998</ele>
        <time>2013-10-27T13:17:21Z</time>
      </trkpt>
      <trkpt lat="46.267303777858615" lon="9.1804189234972">
        <ele>681.71000000000004</ele>
        <time>2013-10-27T13:17:27Z</time>
      </trkpt>
      <trkpt lat="46.267403438687325" lon="9.180341977626085">
        <ele>679.30999999999995</ele>
        <time>2013-10-27T13:17:41Z</time>
      </trkpt>
      <trkpt lat="46.267546936869621" lon="9.180352287366986">
        <ele>677.38999999999999</ele>
        <time>2013-10-27T13:17:54Z</time>
      </trkpt>
      <trkpt lat="46.2676758505404" lon="9.180348347872496">
        <ele>674.98000000000002</ele>
        <time>2013-10-27T13:18:07Z</time>
      </trkpt>
      <trkpt lat="46.267802752554417" lon="9.180353879928589">
        <ele>672.58000000000004</ele>
        <time>2013-10-27T13:18:21Z</time>
      </trkpt>
      <trkpt lat="46.267893696203828" lon="9.180347342044115">
        <ele>671.13999999999999</ele>
        <time>2013-10-27T13:18:32Z</time>
      </trkpt>
      <trkpt lat="46.26794851385057" lon="9.180296463891864">
        <ele>669.22000000000003</ele>
        <time>2013-10-27T13:18:46Z</time>
      </trkpt>
      <trkpt lat="46.26811757683754" lon="9.180399058386684">
        <ele>666.33000000000004</ele>
        <time>2013-10-27T13:19:01Z</time>
      </trkpt>
      <trkpt lat="46.268255626782775" lon="9.180440297350287">
        <ele>663.45000000000005</ele>
        <time>2013-10-27T13:19:15Z</time>
      </trkpt>
      <trkpt lat="46.268338356167078" lon="9.180472148582339">
        <ele>662.00999999999999</ele>
        <time>2013-10-27T13:19:26Z</time>
      </trkpt>
      <trkpt lat="46.268350426107645" lon="9.180443901568651">
        <ele>660.55999999999995</ele>
        <time>2013-10-27T13:19:35Z</time>
      </trkpt>
      <trkpt lat="46.268395436927676" lon="9.180414397269487">
        <ele>659.60000000000002</ele>
        <time>2013-10-27T13:19:46Z</time>
      </trkpt>
      <trkpt lat="46.268462827429175" lon="9.180439542979002">
        <ele>659.60000000000002</ele>
        <time>2013-10-27T13:19:49Z</time>
      </trkpt>
      <trkpt lat="46.268647816032171" lon="9.18039545416832">
        <ele>657.20000000000005</ele>
        <time>2013-10-27T13:20:00Z</time>
      </trkpt>
      <trkpt lat="46.268722247332335" lon="9.180325549095869">
        <ele>654.79999999999995</ele>
        <time>2013-10-27T13:20:13Z</time>
      </trkpt>
      <trkpt lat="46.268823249265552" lon="9.18031632900238">
        <ele>652.87</ele>
        <time>2013-10-27T13:20:25Z</time>
      </trkpt>
      <trkpt lat="46.268912348896265" lon="9.180262684822083">
        <ele>650.95000000000005</ele>
        <time>2013-10-27T13:20:37Z</time>
      </trkpt>
      <trkpt lat="46.269085267558694" lon="9.180396376177669">
        <ele>649.50999999999999</ele>
        <time>2013-10-27T13:20:51Z</time>
      </trkpt>
      <trkpt lat="46.269209571182728" lon="9.180505005642772">
        <ele>647.10000000000002</ele>
        <time>2013-10-27T13:21:05Z</time>
      </trkpt>
      <trkpt lat="46.269298838451505" lon="9.180585388094187">
        <ele>644.22000000000003</ele>
        <time>2013-10-27T13:21:17Z</time>
      </trkpt>
      <trkpt lat="46.269372012466192" lon="9.180611204355955">
        <ele>641.82000000000005</ele>
        <time>2013-10-27T13:21:28Z</time>
      </trkpt>
      <trkpt lat="46.269398666918278" lon="9.180526966229081">
        <ele>639.88999999999999</ele>
        <time>2013-10-27T13:21:39Z</time>
      </trkpt>
      <trkpt lat="46.26939338631928" lon="9.180427137762308">
        <ele>637.00999999999999</ele>
        <time>2013-10-27T13:21:49Z</time>
      </trkpt>
      <trkpt lat="46.26942808739841" lon="9.180356729775667">
        <ele>634.61000000000001</ele>
        <time>2013-10-27T13:22:00Z</time>
      </trkpt>
      <trkpt lat="46.269490113481879" lon="9.180344743654132">
        <ele>631.72000000000003</ele>
        <time>2013-10-27T13:22:11Z</time>
      </trkpt>
      <trkpt lat="46.269483910873532" lon="9.180319765582681">
        <ele>629.79999999999995</ele>
        <time>2013-10-27T13:22:22Z</time>
      </trkpt>
      <trkpt lat="46.269459435716271" lon="9.180308450013399">
        <ele>628.36000000000001</ele>
        <time>2013-10-27T13:22:25Z</time>
      </trkpt>
      <trkpt lat="46.269375113770366" lon="9.18022739700973">
        <ele>625.47000000000003</ele>
        <time>2013-10-27T13:22:39Z</time>
      </trkpt>
      <trkpt lat="46.269389782100916" lon="9.18014332652092">
        <ele>622.11000000000001</ele>
        <time>2013-10-27T13:22:49Z</time>
      </trkpt>
      <trkpt lat="46.269515678286552" lon="9.180081551894546">
        <ele>620.19000000000005</ele>
        <time>2013-10-27T13:23:02Z</time>
      </trkpt>
      <trkpt lat="46.269667474552989" lon="9.180123880505562">
        <ele>617.29999999999995</ele>
        <time>2013-10-27T13:23:14Z</time>
      </trkpt>
      <trkpt lat="46.269785994663835" lon="9.180046264082193">
        <ele>615.38</ele>
        <time>2013-10-27T13:23:26Z</time>
      </trkpt>
      <trkpt lat="46.269818600267172" lon="9.179969821125269">
        <ele>613.46000000000004</ele>
        <time>2013-10-27T13:23:37Z</time>
      </trkpt>
      <trkpt lat="46.269854055717587" lon="9.179947441443801">
        <ele>611.53999999999996</ele>
        <time>2013-10-27T13:23:47Z</time>
      </trkpt>
      <trkpt lat="46.269861431792378" lon="9.179922714829445">
        <ele>611.05999999999995</ele>
        <time>2013-10-27T13:23:51Z</time>
      </trkpt>
      <trkpt lat="46.269922032952309" lon="9.179856665432453">
        <ele>608.16999999999996</ele>
        <time>2013-10-27T13:23:59Z</time>
      </trkpt>
      <trkpt lat="46.26985271461308" lon="9.179898072034121">
        <ele>605.76999999999998</ele>
        <time>2013-10-27T13:24:13Z</time>
      </trkpt>
      <trkpt lat="46.269870903342962" lon="9.179865885525942">
        <ele>602.88</ele>
        <time>2013-10-27T13:24:24Z</time>
      </trkpt>
      <trkpt lat="46.269937790930271" lon="9.179788436740637">
        <ele>601.44000000000005</ele>
        <time>2013-10-27T13:24:38Z</time>
      </trkpt>
      <trkpt lat="46.269878949970007" lon="9.179849959909916">
        <ele>600.48000000000002</ele>
        <time>2013-10-27T13:24:56Z</time>
      </trkpt>
      <trkpt lat="46.269874675199389" lon="9.17967620305717">
        <ele>598.08000000000004</ele>
        <time>2013-10-27T13:25:09Z</time>
      </trkpt>
      <trkpt lat="46.269958075135946" lon="9.179686848074198">
        <ele>596.63999999999999</ele>
        <time>2013-10-27T13:25:25Z</time>
      </trkpt>
      <trkpt lat="46.27000518143177" lon="9.179681818932295">
        <ele>593.75</ele>
        <time>2013-10-27T13:25:39Z</time>
      </trkpt>
      <trkpt lat="46.269961344078183" lon="9.179627085104585">
        <ele>590.87</ele>
        <time>2013-10-27T13:25:52Z</time>
      </trkpt>
      <trkpt lat="46.269875932484865" lon="9.179609231650829">
        <ele>588.95000000000005</ele>
        <time>2013-10-27T13:26:05Z</time>
      </trkpt>
      <trkpt lat="46.269818432629108" lon="9.179609986022115">
        <ele>587.5</ele>
        <time>2013-10-27T13:26:16Z</time>
      </trkpt>
      <trkpt lat="46.269741905853152" lon="9.179597413167357">
        <ele>584.13999999999999</ele>
        <time>2013-10-27T13:26:28Z</time>
      </trkpt>
      <trkpt lat="46.269674682989717" lon="9.179590540006757">
        <ele>581.25</ele>
        <time>2013-10-27T13:26:39Z</time>
      </trkpt>
      <trkpt lat="46.269673425704241" lon="9.179580146446824">
        <ele>578.85000000000002</ele>
        <time>2013-10-27T13:26:54Z</time>
      </trkpt>
      <trkpt lat="46.269668815657496" lon="9.179573692381382">
        <ele>578.37</ele>
        <time>2013-10-27T13:26:55Z</time>
      </trkpt>
      <trkpt lat="46.269663199782372" lon="9.179483838379383">
        <ele>575.00999999999999</ele>
        <time>2013-10-27T13:27:05Z</time>
      </trkpt>
      <trkpt lat="46.269622044637799" lon="9.179394654929638">
        <ele>572.12</ele>
        <time>2013-10-27T13:27:18Z</time>
      </trkpt>
      <trkpt lat="46.269636210054159" lon="9.179383926093578">
        <ele>570.20000000000005</ele>
        <time>2013-10-27T13:27:22Z</time>
      </trkpt>
      <trkpt lat="46.269660266116261" lon="9.179393565282226">
        <ele>568.27999999999997</ele>
        <time>2013-10-27T13:27:35Z</time>
      </trkpt>
      <trkpt lat="46.269637970253825" lon="9.179294994100928">
        <ele>567.79999999999995</ele>
        <time>2013-10-27T13:27:53Z</time>
      </trkpt>
      <trkpt lat="46.269596479833126" lon="9.179224669933319">
        <ele>567.79999999999995</ele>
        <time>2013-10-27T13:28:14Z</time>
      </trkpt>
      <trkpt lat="46.269555073231459" lon="9.179246630519629">
        <ele>567.32000000000005</ele>
        <time>2013-10-27T13:28:34Z</time>
      </trkpt>
      <trkpt lat="46.269511822611094" lon="9.179132636636496">
        <ele>564.42999999999995</ele>
        <time>2013-10-27T13:28:51Z</time>
      </trkpt>
      <trkpt lat="46.269523808732629" lon="9.179080752655864">
        <ele>561.07000000000005</ele>
        <time>2013-10-27T13:29:04Z</time>
      </trkpt>
      <trkpt lat="46.269474774599075" lon="9.179004225879908">
        <ele>557.70000000000005</ele>
        <time>2013-10-27T13:29:19Z</time>
      </trkpt>
      <trkpt lat="46.269513918086886" lon="9.178949575871229">
        <ele>555.77999999999997</ele>
        <time>2013-10-27T13:29:31Z</time>
      </trkpt>
      <trkpt lat="46.269556833431125" lon="9.178994921967387">
        <ele>555.77999999999997</ele>
        <time>2013-10-27T13:29:58Z</time>
      </trkpt>
      <trkpt lat="46.269608465954661" lon="9.178941948339343">
        <ele>554.34000000000003</ele>
        <time>2013-10-27T13:30:17Z</time>
      </trkpt>
      <trkpt lat="46.269622966647148" lon="9.17890808545053">
        <ele>553.38</ele>
        <time>2013-10-27T13:30:20Z</time>
      </trkpt>
      <trkpt lat="46.269645765423775" lon="9.178792331367731">
        <ele>550.97000000000003</ele>
        <time>2013-10-27T13:30:33Z</time>
      </trkpt>
      <trkpt lat="46.269558258354664" lon="9.178755199536681">
        <ele>548.57000000000005</ele>
        <time>2013-10-27T13:30:46Z</time>
      </trkpt>
      <trkpt lat="46.269594132900238" lon="9.178680935874581">
        <ele>545.20000000000005</ele>
        <time>2013-10-27T13:30:57Z</time>
      </trkpt>
      <trkpt lat="46.269650207832456" lon="9.178601810708642">
        <ele>542.32000000000005</ele>
        <time>2013-10-27T13:31:10Z</time>
      </trkpt>
      <trkpt lat="46.269781719893217" lon="9.178781267255545">
        <ele>541.36000000000001</ele>
        <time>2013-10-27T13:31:32Z</time>
      </trkpt>
      <trkpt lat="46.269779708236456" lon="9.178737178444862">
        <ele>540.39999999999998</ele>
        <time>2013-10-27T13:31:50Z</time>
      </trkpt>
      <trkpt lat="46.269775433465838" lon="9.178691664710641">
        <ele>539.44000000000005</ele>
        <time>2013-10-27T13:32:09Z</time>
      </trkpt>
      <trkpt lat="46.269722878932953" lon="9.178563924506307">
        <ele>538.96000000000004</ele>
        <time>2013-10-27T13:32:24Z</time>
      </trkpt>
      <trkpt lat="46.269723130390048" lon="9.178563337773085">
        <ele>540.39999999999998</ele>
        <time>2013-10-27T13:32:27Z</time>
      </trkpt>
      <trkpt lat="46.269738636910915" lon="9.178579598665237">
        <ele>540.39999999999998</ele>
        <time>2013-10-27T13:32:47Z</time>
      </trkpt>
      <trkpt lat="46.26983754336834" lon="9.178695268929005">
        <ele>540.39999999999998</ele>
        <time>2013-10-27T13:33:19Z</time>
      </trkpt>
      <trkpt lat="46.26985221169889" lon="9.178704572841525">
        <ele>538.96000000000004</ele>
        <time>2013-10-27T13:33:23Z</time>
      </trkpt>
      <trkpt lat="46.26987274736166" lon="9.178724186494947">
        <ele>535.59000000000003</ele>
        <time>2013-10-27T13:33:36Z</time>
      </trkpt>
      <trkpt lat="46.269874256104231" lon="9.178713960573077">
        <ele>535.59000000000003</ele>
        <time>2013-10-27T13:33:37Z</time>
      </trkpt>
      <trkpt lat="46.269856905564666" lon="9.178679510951042">
        <ele>534.63</ele>
        <time>2013-10-27T13:33:41Z</time>
      </trkpt>
      <trkpt lat="46.269849948585033" lon="9.178627207875252">
        <ele>533.19000000000005</ele>
        <time>2013-10-27T13:33:49Z</time>
      </trkpt>
      <trkpt lat="46.269995709881186" lon="9.178652772679925">
        <ele>529.82000000000005</ele>
        <time>2013-10-27T13:34:03Z</time>
      </trkpt>
      <trkpt lat="46.270015994086862" lon="9.178582616150379">
        <ele>527.41999999999996</ele>
        <time>2013-10-27T13:34:14Z</time>
      </trkpt>
      <trkpt lat="46.270047258585691" lon="9.178522182628512">
        <ele>524.05999999999995</ele>
        <time>2013-10-27T13:34:27Z</time>
      </trkpt>
      <trkpt lat="46.270043905824423" lon="9.178518494591117">
        <ele>522.13</ele>
        <time>2013-10-27T13:34:42Z</time>
      </trkpt>
      <trkpt lat="46.27009310759604" lon="9.178500389680266">
        <ele>520.21000000000004</ele>
        <time>2013-10-27T13:34:54Z</time>
      </trkpt>
      <trkpt lat="46.270213052630424" lon="9.178525619208813">
        <ele>517.80999999999995</ele>
        <time>2013-10-27T13:35:07Z</time>
      </trkpt>
      <trkpt lat="46.270188577473164" lon="9.178488152101636">
        <ele>514.91999999999996</ele>
        <time>2013-10-27T13:35:21Z</time>
      </trkpt>
      <trkpt lat="46.27023090608418" lon="9.178431238979101">
        <ele>512.51999999999998</ele>
        <time>2013-10-27T13:35:32Z</time>
      </trkpt>
      <trkpt lat="46.270328219980001" lon="9.178318586200476">
        <ele>510.12</ele>
        <time>2013-10-27T13:35:48Z</time>
      </trkpt>
      <trkpt lat="46.27044296823442" lon="9.178407769650221">
        <ele>507.70999999999998</ele>
        <time>2013-10-27T13:36:00Z</time>
      </trkpt>
      <trkpt lat="46.270493008196354" lon="9.178469460457563">
        <ele>505.79000000000002</ele>
        <time>2013-10-27T13:36:13Z</time>
      </trkpt>
      <trkpt lat="46.27057883888483" lon="9.178523859009147">
        <ele>503.38999999999999</ele>
        <time>2013-10-27T13:36:26Z</time>
      </trkpt>
      <trkpt lat="46.270639607682824" lon="9.1785728931427">
        <ele>502.91000000000003</ele>
        <time>2013-10-27T13:36:40Z</time>
      </trkpt>
      <trkpt lat="46.270635668188334" lon="9.178513465449214">
        <ele>501.94999999999999</ele>
        <time>2013-10-27T13:36:57Z</time>
      </trkpt>
      <trkpt lat="46.270627118647099" lon="9.178462084382772">
        <ele>500.5</ele>
        <time>2013-10-27T13:37:01Z</time>
      </trkpt>
      <trkpt lat="46.270624017342925" lon="9.178428389132023">
        <ele>498.10000000000002</ele>
        <time>2013-10-27T13:37:13Z</time>
      </trkpt>
      <trkpt lat="46.270592920482159" lon="9.178393771871924">
        <ele>497.13999999999999</ele>
        <time>2013-10-27T13:37:19Z</time>
      </trkpt>
      <trkpt lat="46.270510694012046" lon="9.178357729688287">
        <ele>495.69999999999999</ele>
        <time>2013-10-27T13:37:33Z</time>
      </trkpt>
      <trkpt lat="46.27048647031188" lon="9.178249519318342">
        <ele>493.29000000000002</ele>
        <time>2013-10-27T13:37:45Z</time>
      </trkpt>
      <trkpt lat="46.270489152520895" lon="9.17820299975574">
        <ele>492.32999999999998</ele>
        <time>2013-10-27T13:37:49Z</time>
      </trkpt>
      <trkpt lat="46.270424108952284" lon="9.178041983395815">
        <ele>489.44999999999999</ele>
        <time>2013-10-27T13:38:02Z</time>
      </trkpt>
      <trkpt lat="46.27049820497632" lon="9.17807643301785">
        <ele>486.07999999999998</ele>
        <time>2013-10-27T13:38:12Z</time>
      </trkpt>
      <trkpt lat="46.270585544407368" lon="9.178082132712007">
        <ele>483.19999999999999</ele>
        <time>2013-10-27T13:38:24Z</time>
      </trkpt>
      <trkpt lat="46.270538941025734" lon="9.177992111071944">
        <ele>480.31999999999999</ele>
        <time>2013-10-27T13:38:36Z</time>
      </trkpt>
      <trkpt lat="46.270561991259456" lon="9.177910638973117">
        <ele>477.91000000000003</ele>
        <time>2013-10-27T13:38:48Z</time>
      </trkpt>
      <trkpt lat="46.270560063421726" lon="9.17785364203155">
        <ele>475.02999999999997</ele>
        <time>2013-10-27T13:39:00Z</time>
      </trkpt>
      <trkpt lat="46.270665172487497" lon="9.177857665345073">
        <ele>472.13999999999999</ele>
        <time>2013-10-27T13:39:13Z</time>
      </trkpt>
      <trkpt lat="46.270667519420385" lon="9.177884487435222">
        <ele>470.22000000000003</ele>
        <time>2013-10-27T13:39:24Z</time>
      </trkpt>
      <trkpt lat="46.270703310146928" lon="9.177836207672954">
        <ele>468.30000000000001</ele>
        <time>2013-10-27T13:39:38Z</time>
      </trkpt>
      <trkpt lat="46.270779250189662" lon="9.177767811343074">
        <ele>467.33999999999997</ele>
        <time>2013-10-27T13:39:51Z</time>
      </trkpt>
      <trkpt lat="46.270797355100513" lon="9.177732523530722">
        <ele>466.86000000000001</ele>
        <time>2013-10-27T13:40:03Z</time>
      </trkpt>
      <trkpt lat="46.270822500810027" lon="9.177640825510025">
        <ele>464.93000000000001</ele>
        <time>2013-10-27T13:40:14Z</time>
      </trkpt>
      <trkpt lat="46.270873714238405" lon="9.177533034235239">
        <ele>462.05000000000001</ele>
        <time>2013-10-27T13:40:28Z</time>
      </trkpt>
      <trkpt lat="46.270871534943581" lon="9.177417699247599">
        <ele>459.64999999999998</ele>
        <time>2013-10-27T13:40:41Z</time>
      </trkpt>
      <trkpt lat="46.27090422436595" lon="9.177275961264968">
        <ele>457.24000000000001</ele>
        <time>2013-10-27T13:40:55Z</time>
      </trkpt>
      <trkpt lat="46.270935488864779" lon="9.177134307101369">
        <ele>454.83999999999997</ele>
        <time>2013-10-27T13:41:08Z</time>
      </trkpt>
      <trkpt lat="46.27093356102705" lon="9.177000783383846">
        <ele>451.48000000000002</ele>
        <time>2013-10-27T13:41:22Z</time>
      </trkpt>
      <trkpt lat="46.270946217700839" lon="9.176885616034269">
        <ele>450.51999999999998</ele>
        <time>2013-10-27T13:41:31Z</time>
      </trkpt>
      <trkpt lat="46.270987624302506" lon="9.176733149215579">
        <ele>447.14999999999998</ele>
        <time>2013-10-27T13:41:45Z</time>
      </trkpt>
      <trkpt lat="46.271019643172622" lon="9.176644720137119">
        <ele>445.23000000000002</ele>
        <time>2013-10-27T13:41:56Z</time>
      </trkpt>
      <trkpt lat="46.271050404757261" lon="9.176583783701062">
        <ele>444.26999999999998</ele>
        <time>2013-10-27T13:42:03Z</time>
      </trkpt>
      <trkpt lat="46.271088123321533" lon="9.176421090960503">
        <ele>441.86000000000001</ele>
        <time>2013-10-27T13:42:16Z</time>
      </trkpt>
      <trkpt lat="46.271169511601329" lon="9.17630223557353">
        <ele>439.94</ele>
        <time>2013-10-27T13:42:28Z</time>
      </trkpt>
      <trkpt lat="46.271197507157922" lon="9.176258649677038">
        <ele>438.5</ele>
        <time>2013-10-27T13:42:32Z</time>
      </trkpt>
      <trkpt lat="46.27123748883605" lon="9.176224367693067">
        <ele>438.01999999999998</ele>
        <time>2013-10-27T13:42:36Z</time>
      </trkpt>
      <trkpt lat="46.271309908479452" lon="9.176185810938478">
        <ele>437.06</ele>
        <time>2013-10-27T13:42:49Z</time>
      </trkpt>
      <trkpt lat="46.271298257634044" lon="9.176189163699746">
        <ele>436.57999999999998</ele>
        <time>2013-10-27T13:43:17Z</time>
      </trkpt>
      <trkpt lat="46.271251318976283" lon="9.176157228648663">
        <ele>436.10000000000002</ele>
        <time>2013-10-27T13:43:23Z</time>
      </trkpt>
      <trkpt lat="46.271196752786636" lon="9.176119761541486">
        <ele>435.61000000000001</ele>
        <time>2013-10-27T13:43:34Z</time>
      </trkpt>
      <trkpt lat="46.271196501329541" lon="9.176118588075042">
        <ele>435.13</ele>
        <time>2013-10-27T13:44:09Z</time>
      </trkpt>
      <trkpt lat="46.271179402247071" lon="9.1760931070894">
        <ele>434.64999999999998</ele>
        <time>2013-10-27T13:44:35Z</time>
      </trkpt>
      <trkpt lat="46.271187700331211" lon="9.176045078784227">
        <ele>434.64999999999998</ele>
        <time>2013-10-27T13:44:54Z</time>
      </trkpt>
      <trkpt lat="46.271194322034717" lon="9.176067039370537">
        <ele>434.17000000000002</ele>
        <time>2013-10-27T13:45:20Z</time>
      </trkpt>
      <trkpt lat="46.271206391975284" lon="9.176109451800585">
        <ele>434.17000000000002</ele>
        <time>2013-10-27T13:45:36Z</time>
      </trkpt>
      <trkpt lat="46.271204799413681" lon="9.176139626652002">
        <ele>434.17000000000002</ele>
        <time>2013-10-27T13:45:48Z</time>
      </trkpt>
      <trkpt lat="46.271176217123866" lon="9.176052287220955">
        <ele>434.17000000000002</ele>
        <time>2013-10-27T13:46:02Z</time>
      </trkpt>
      <trkpt lat="46.271189711987972" lon="9.176103668287396">
        <ele>433.69</ele>
        <time>2013-10-27T13:46:19Z</time>
      </trkpt>
      <trkpt lat="46.271121986210346" lon="9.17605890892446">
        <ele>433.20999999999998</ele>
        <time>2013-10-27T13:46:27Z</time>
      </trkpt>
      <trkpt lat="46.27104302868247" lon="9.176015071570873">
        <ele>430.32999999999998</ele>
        <time>2013-10-27T13:46:39Z</time>
      </trkpt>
      <trkpt lat="46.270992569625378" lon="9.176009874790907">
        <ele>428.88999999999999</ele>
        <time>2013-10-27T13:46:46Z</time>
      </trkpt>
      <trkpt lat="46.270970441401005" lon="9.175998559221625">
        <ele>427.92000000000002</ele>
        <time>2013-10-27T13:46:48Z</time>
      </trkpt>
      <trkpt lat="46.270910762250423" lon="9.176047844812274">
        <ele>426</ele>
        <time>2013-10-27T13:46:59Z</time>
      </trkpt>
      <trkpt lat="46.270845467224717" lon="9.176072319969535">
        <ele>423.60000000000002</ele>
        <time>2013-10-27T13:47:11Z</time>
      </trkpt>
      <trkpt lat="46.270791571587324" lon="9.176141805946827">
        <ele>421.19</ele>
        <time>2013-10-27T13:47:22Z</time>
      </trkpt>
      <trkpt lat="46.270781680941582" lon="9.176160078495741">
        <ele>421.19</ele>
        <time>2013-10-27T13:47:24Z</time>
      </trkpt>
      <trkpt lat="46.27070976421237" lon="9.176292596384883">
        <ele>418.79000000000002</ele>
        <time>2013-10-27T13:47:39Z</time>
      </trkpt>
      <trkpt lat="46.270622508600354" lon="9.176385551691055">
        <ele>416.87</ele>
        <time>2013-10-27T13:47:52Z</time>
      </trkpt>
      <trkpt lat="46.270600212737918" lon="9.176492253318429">
        <ele>414.94999999999999</ele>
        <time>2013-10-27T13:48:04Z</time>
      </trkpt>
      <trkpt lat="46.270547909662127" lon="9.176580682396889">
        <ele>412.06</ele>
        <time>2013-10-27T13:48:15Z</time>
      </trkpt>
      <trkpt lat="46.270506922155619" lon="9.176653521135449">
        <ele>408.69999999999999</ele>
        <time>2013-10-27T13:48:24Z</time>
      </trkpt>
      <trkpt lat="46.270407680422068" lon="9.176685875281692">
        <ele>405.81</ele>
        <time>2013-10-27T13:48:35Z</time>
      </trkpt>
      <trkpt lat="46.270404327660799" lon="9.176575569435954">
        <ele>402.44999999999999</ele>
        <time>2013-10-27T13:48:48Z</time>
      </trkpt>
      <trkpt lat="46.270358478650451" lon="9.176515722647309">
        <ele>399.56999999999999</ele>
        <time>2013-10-27T13:48:59Z</time>
      </trkpt>
      <trkpt lat="46.270404160022736" lon="9.176451768726111">
        <ele>397.16000000000003</ele>
        <time>2013-10-27T13:49:09Z</time>
      </trkpt>
      <trkpt lat="46.270354958251119" lon="9.176328890025616">
        <ele>394.75999999999999</ele>
        <time>2013-10-27T13:49:22Z</time>
      </trkpt>
      <trkpt lat="46.270435340702534" lon="9.176256889477372">
        <ele>392.83999999999997</ele>
        <time>2013-10-27T13:49:35Z</time>
      </trkpt>
      <trkpt lat="46.270407345145941" lon="9.176225708797574">
        <ele>390.43000000000001</ele>
        <time>2013-10-27T13:49:48Z</time>
      </trkpt>
      <trkpt lat="46.270350264385343" lon="9.176188996061683">
        <ele>389.94999999999999</ele>
        <time>2013-10-27T13:49:53Z</time>
      </trkpt>
      <trkpt lat="46.270288322120905" lon="9.1760862339288">
        <ele>386.11000000000001</ele>
        <time>2013-10-27T13:50:04Z</time>
      </trkpt>
      <trkpt lat="46.270199976861477" lon="9.175925385206938">
        <ele>382.74000000000001</ele>
        <time>2013-10-27T13:50:17Z</time>
      </trkpt>
      <trkpt lat="46.270153876394033" lon="9.17589420452714">
        <ele>381.30000000000001</ele>
        <time>2013-10-27T13:50:25Z</time>
      </trkpt>
      <trkpt lat="46.269999230280519" lon="9.175769314169884">
        <ele>379.38</ele>
        <time>2013-10-27T13:50:40Z</time>
      </trkpt>
      <trkpt lat="46.269939048215747" lon="9.175608633086085">
        <ele>376.49000000000001</ele>
        <time>2013-10-27T13:50:54Z</time>
      </trkpt>
      <trkpt lat="46.269930247217417" lon="9.175573009997606">
        <ele>376.00999999999999</ele>
        <time>2013-10-27T13:50:57Z</time>
      </trkpt>
      <trkpt lat="46.269931420683861" lon="9.175503775477409">
        <ele>375.05000000000001</ele>
        <time>2013-10-27T13:51:02Z</time>
      </trkpt>
      <trkpt lat="46.269942820072174" lon="9.175399420782924">
        <ele>374.08999999999997</ele>
        <time>2013-10-27T13:51:10Z</time>
      </trkpt>
      <trkpt lat="46.269912058487535" lon="9.175211163237691">
        <ele>373.13</ele>
        <time>2013-10-27T13:51:20Z</time>
      </trkpt>
      <trkpt lat="46.269886661320925" lon="9.175122817978263">
        <ele>373.13</ele>
        <time>2013-10-27T13:51:24Z</time>
      </trkpt>
      <trkpt lat="46.269820528104901" lon="9.174963980913162">
        <ele>372.17000000000002</ele>
        <time>2013-10-27T13:51:39Z</time>
      </trkpt>
      <trkpt lat="46.269820779561996" lon="9.174993736669421">
        <ele>371.20999999999998</ele>
        <time>2013-10-27T13:51:46Z</time>
      </trkpt>
      <trkpt lat="46.269832011312246" lon="9.175017792731524">
        <ele>371.20999999999998</ele>
        <time>2013-10-27T13:52:00Z</time>
      </trkpt>
      <trkpt lat="46.269834274426103" lon="9.175013434141874">
        <ele>373.13</ele>
        <time>2013-10-27T13:52:03Z</time>
      </trkpt>
    </trkseg>
  </trk>

</gpx>